<?xml version="1.0" encoding="UTF-8" standalone="no" ?>
<gpx xmlns="http://www.topografix.com/GPX/1/1" xmlns:xsi="http://www.w3.org/2001/XMLSchema-instance" xsi:schemaLocation="http://www.topografix.com/GPX/1/1 http://www.topografix.com/GPX/1/1/gpx.xsd" version="1.1" creator="VisuGPX - https://www.visugpx.com">
  <metadata>
    <name>Les Marais Morbier,Chapelle des Bois</name>
  </metadata>
  <trk>
    <name><![CDATA[Les Marais Morbier,Chapelle des Bois_1]]></name>
    <trkseg>
      <trkpt lat="46.58568" lon="6.06058">
        <ele>1102.1</ele>
        <time>2020-07-12T08:09:40Z</time>
      </trkpt>
      <trkpt lat="46.58568" lon="6.0606">
        <ele>1085.1</ele>
        <time>2020-07-12T08:14:20Z</time>
      </trkpt>
      <trkpt lat="46.58567" lon="6.06061">
        <ele>1083.9</ele>
        <time>2020-07-12T08:14:51Z</time>
      </trkpt>
      <trkpt lat="46.58564" lon="6.06068">
        <ele>1083.8</ele>
        <time>2020-07-12T08:14:55Z</time>
      </trkpt>
      <trkpt lat="46.58558" lon="6.06066">
        <ele>1083.4</ele>
        <time>2020-07-12T08:15:00Z</time>
      </trkpt>
      <trkpt lat="46.58559" lon="6.06057">
        <ele>1079.5</ele>
        <time>2020-07-12T08:15:32Z</time>
      </trkpt>
      <trkpt lat="46.58572" lon="6.06074">
        <ele>1074.6</ele>
        <time>2020-07-12T08:16:38Z</time>
      </trkpt>
      <trkpt lat="46.58574" lon="6.0608">
        <ele>1073.7</ele>
        <time>2020-07-12T08:16:45Z</time>
      </trkpt>
      <trkpt lat="46.58579" lon="6.06085">
        <ele>1073.5</ele>
        <time>2020-07-12T08:16:54Z</time>
      </trkpt>
      <trkpt lat="46.58585" lon="6.06086">
        <ele>1072.6</ele>
        <time>2020-07-12T08:17:05Z</time>
      </trkpt>
      <trkpt lat="46.58598" lon="6.06073">
        <ele>1071.4</ele>
        <time>2020-07-12T08:17:16Z</time>
      </trkpt>
      <trkpt lat="46.58607" lon="6.06066">
        <ele>1071</ele>
        <time>2020-07-12T08:17:24Z</time>
      </trkpt>
      <trkpt lat="46.58621" lon="6.06053">
        <ele>1072</ele>
        <time>2020-07-12T08:17:45Z</time>
      </trkpt>
      <trkpt lat="46.58626" lon="6.06055">
        <ele>1072.2</ele>
        <time>2020-07-12T08:17:47Z</time>
      </trkpt>
      <trkpt lat="46.5863" lon="6.06058">
        <ele>1072.5</ele>
        <time>2020-07-12T08:17:53Z</time>
      </trkpt>
      <trkpt lat="46.58635" lon="6.0606">
        <ele>1071.6</ele>
        <time>2020-07-12T08:18:01Z</time>
      </trkpt>
      <trkpt lat="46.58655" lon="6.06074">
        <ele>1069.6</ele>
        <time>2020-07-12T08:18:28Z</time>
      </trkpt>
      <trkpt lat="46.5867" lon="6.06081">
        <ele>1072</ele>
        <time>2020-07-12T08:18:50Z</time>
      </trkpt>
      <trkpt lat="46.58676" lon="6.06081">
        <ele>1072.4</ele>
        <time>2020-07-12T08:18:53Z</time>
      </trkpt>
      <trkpt lat="46.58681" lon="6.06082">
        <ele>1073</ele>
        <time>2020-07-12T08:18:59Z</time>
      </trkpt>
      <trkpt lat="46.58701" lon="6.06098">
        <ele>1076.1</ele>
        <time>2020-07-12T08:19:19Z</time>
      </trkpt>
      <trkpt lat="46.58706" lon="6.06101">
        <ele>1076.5</ele>
        <time>2020-07-12T08:19:24Z</time>
      </trkpt>
      <trkpt lat="46.58709" lon="6.06107">
        <ele>1076.5</ele>
        <time>2020-07-12T08:19:30Z</time>
      </trkpt>
      <trkpt lat="46.58713" lon="6.06111">
        <ele>1075.9</ele>
        <time>2020-07-12T08:19:36Z</time>
      </trkpt>
      <trkpt lat="46.58716" lon="6.06117">
        <ele>1074.9</ele>
        <time>2020-07-12T08:19:43Z</time>
      </trkpt>
      <trkpt lat="46.58719" lon="6.06122">
        <ele>1074.2</ele>
        <time>2020-07-12T08:19:49Z</time>
      </trkpt>
      <trkpt lat="46.58738" lon="6.06145">
        <ele>1073.2</ele>
        <time>2020-07-12T08:20:06Z</time>
      </trkpt>
      <trkpt lat="46.58742" lon="6.06148">
        <ele>1073.2</ele>
        <time>2020-07-12T08:20:09Z</time>
      </trkpt>
      <trkpt lat="46.58747" lon="6.06152">
        <ele>1073.3</ele>
        <time>2020-07-12T08:20:12Z</time>
      </trkpt>
      <trkpt lat="46.58749" lon="6.06158">
        <ele>1073.6</ele>
        <time>2020-07-12T08:20:16Z</time>
      </trkpt>
      <trkpt lat="46.58752" lon="6.06164">
        <ele>1074.2</ele>
        <time>2020-07-12T08:20:21Z</time>
      </trkpt>
      <trkpt lat="46.58754" lon="6.0617">
        <ele>1074.9</ele>
        <time>2020-07-12T08:20:26Z</time>
      </trkpt>
      <trkpt lat="46.58759" lon="6.06185">
        <ele>1076.5</ele>
        <time>2020-07-12T08:20:39Z</time>
      </trkpt>
      <trkpt lat="46.58762" lon="6.06193">
        <ele>1076.6</ele>
        <time>2020-07-12T08:20:44Z</time>
      </trkpt>
      <trkpt lat="46.58764" lon="6.062">
        <ele>1076.6</ele>
        <time>2020-07-12T08:20:49Z</time>
      </trkpt>
      <trkpt lat="46.58767" lon="6.06205">
        <ele>1076.3</ele>
        <time>2020-07-12T08:20:56Z</time>
      </trkpt>
      <trkpt lat="46.58771" lon="6.0621">
        <ele>1076.1</ele>
        <time>2020-07-12T08:21:01Z</time>
      </trkpt>
      <trkpt lat="46.58774" lon="6.06216">
        <ele>1076.2</ele>
        <time>2020-07-12T08:21:06Z</time>
      </trkpt>
      <trkpt lat="46.58778" lon="6.06222">
        <ele>1076.5</ele>
        <time>2020-07-12T08:21:14Z</time>
      </trkpt>
      <trkpt lat="46.58783" lon="6.06225">
        <ele>1076.5</ele>
        <time>2020-07-12T08:21:17Z</time>
      </trkpt>
      <trkpt lat="46.58787" lon="6.0623">
        <ele>1076.8</ele>
        <time>2020-07-12T08:21:25Z</time>
      </trkpt>
      <trkpt lat="46.5879" lon="6.06235">
        <ele>1076.9</ele>
        <time>2020-07-12T08:21:29Z</time>
      </trkpt>
      <trkpt lat="46.58794" lon="6.06239">
        <ele>1077.3</ele>
        <time>2020-07-12T08:21:35Z</time>
      </trkpt>
      <trkpt lat="46.58798" lon="6.06244">
        <ele>1077.7</ele>
        <time>2020-07-12T08:21:38Z</time>
      </trkpt>
      <trkpt lat="46.58803" lon="6.06248">
        <ele>1078</ele>
        <time>2020-07-12T08:21:41Z</time>
      </trkpt>
      <trkpt lat="46.58809" lon="6.0625">
        <ele>1078.2</ele>
        <time>2020-07-12T08:21:45Z</time>
      </trkpt>
      <trkpt lat="46.58813" lon="6.06252">
        <ele>1078.7</ele>
        <time>2020-07-12T08:21:53Z</time>
      </trkpt>
      <trkpt lat="46.58824" lon="6.06258">
        <ele>1080.1</ele>
        <time>2020-07-12T08:22:04Z</time>
      </trkpt>
      <trkpt lat="46.58829" lon="6.06261">
        <ele>1080.4</ele>
        <time>2020-07-12T08:22:09Z</time>
      </trkpt>
      <trkpt lat="46.58832" lon="6.06266">
        <ele>1081.7</ele>
        <time>2020-07-12T08:22:20Z</time>
      </trkpt>
      <trkpt lat="46.58839" lon="6.06271">
        <ele>1083.2</ele>
        <time>2020-07-12T08:22:28Z</time>
      </trkpt>
      <trkpt lat="46.58845" lon="6.06273">
        <ele>1083.9</ele>
        <time>2020-07-12T08:22:34Z</time>
      </trkpt>
      <trkpt lat="46.58851" lon="6.06273">
        <ele>1084.4</ele>
        <time>2020-07-12T08:22:36Z</time>
      </trkpt>
      <trkpt lat="46.58856" lon="6.06274">
        <ele>1084.8</ele>
        <time>2020-07-12T08:22:38Z</time>
      </trkpt>
      <trkpt lat="46.58869" lon="6.06278">
        <ele>1088.9</ele>
        <time>2020-07-12T08:22:53Z</time>
      </trkpt>
      <trkpt lat="46.58878" lon="6.06286">
        <ele>1089.5</ele>
        <time>2020-07-12T08:23:07Z</time>
      </trkpt>
      <trkpt lat="46.58883" lon="6.06286">
        <ele>1089.7</ele>
        <time>2020-07-12T08:23:09Z</time>
      </trkpt>
      <trkpt lat="46.58888" lon="6.06285">
        <ele>1089.7</ele>
        <time>2020-07-12T08:23:11Z</time>
      </trkpt>
      <trkpt lat="46.58892" lon="6.06287">
        <ele>1089.7</ele>
        <time>2020-07-12T08:23:14Z</time>
      </trkpt>
      <trkpt lat="46.58897" lon="6.06289">
        <ele>1089.7</ele>
        <time>2020-07-12T08:23:18Z</time>
      </trkpt>
      <trkpt lat="46.58917" lon="6.0629">
        <ele>1092</ele>
        <time>2020-07-12T08:23:48Z</time>
      </trkpt>
      <trkpt lat="46.58929" lon="6.06292">
        <ele>1094.7</ele>
        <time>2020-07-12T08:24:02Z</time>
      </trkpt>
      <trkpt lat="46.58945" lon="6.0629">
        <ele>1095.8</ele>
        <time>2020-07-12T08:24:07Z</time>
      </trkpt>
      <trkpt lat="46.5895" lon="6.06289">
        <ele>1096.2</ele>
        <time>2020-07-12T08:24:10Z</time>
      </trkpt>
      <trkpt lat="46.58956" lon="6.06291">
        <ele>1096.7</ele>
        <time>2020-07-12T08:24:13Z</time>
      </trkpt>
      <trkpt lat="46.5896" lon="6.06292">
        <ele>1097.5</ele>
        <time>2020-07-12T08:24:17Z</time>
      </trkpt>
      <trkpt lat="46.58967" lon="6.06295">
        <ele>1099.7</ele>
        <time>2020-07-12T08:24:38Z</time>
      </trkpt>
      <trkpt lat="46.58971" lon="6.06295">
        <ele>1099.8</ele>
        <time>2020-07-12T08:24:43Z</time>
      </trkpt>
      <trkpt lat="46.58976" lon="6.06292">
        <ele>1099.9</ele>
        <time>2020-07-12T08:24:48Z</time>
      </trkpt>
      <trkpt lat="46.58983" lon="6.06292">
        <ele>1100</ele>
        <time>2020-07-12T08:24:51Z</time>
      </trkpt>
      <trkpt lat="46.58987" lon="6.06293">
        <ele>1099.8</ele>
        <time>2020-07-12T08:24:54Z</time>
      </trkpt>
      <trkpt lat="46.58992" lon="6.06292">
        <ele>1099.5</ele>
        <time>2020-07-12T08:25:01Z</time>
      </trkpt>
      <trkpt lat="46.59011" lon="6.06292">
        <ele>1099.6</ele>
        <time>2020-07-12T08:25:12Z</time>
      </trkpt>
      <trkpt lat="46.59016" lon="6.06292">
        <ele>1099.8</ele>
        <time>2020-07-12T08:25:16Z</time>
      </trkpt>
      <trkpt lat="46.59027" lon="6.06302">
        <ele>1100.8</ele>
        <time>2020-07-12T08:25:28Z</time>
      </trkpt>
      <trkpt lat="46.59039" lon="6.06313">
        <ele>1101.2</ele>
        <time>2020-07-12T08:25:41Z</time>
      </trkpt>
      <trkpt lat="46.59041" lon="6.06319">
        <ele>1101.4</ele>
        <time>2020-07-12T08:25:45Z</time>
      </trkpt>
      <trkpt lat="46.59046" lon="6.06335">
        <ele>1102.2</ele>
        <time>2020-07-12T08:25:56Z</time>
      </trkpt>
      <trkpt lat="46.59048" lon="6.06343">
        <ele>1102.4</ele>
        <time>2020-07-12T08:26:00Z</time>
      </trkpt>
      <trkpt lat="46.59052" lon="6.06347">
        <ele>1102.6</ele>
        <time>2020-07-12T08:26:04Z</time>
      </trkpt>
      <trkpt lat="46.59065" lon="6.06386">
        <ele>1103.3</ele>
        <time>2020-07-12T08:26:27Z</time>
      </trkpt>
      <trkpt lat="46.59077" lon="6.06411">
        <ele>1100.5</ele>
        <time>2020-07-12T08:26:45Z</time>
      </trkpt>
      <trkpt lat="46.5908" lon="6.06418">
        <ele>1100</ele>
        <time>2020-07-12T08:26:50Z</time>
      </trkpt>
      <trkpt lat="46.59083" lon="6.06424">
        <ele>1099.5</ele>
        <time>2020-07-12T08:26:54Z</time>
      </trkpt>
      <trkpt lat="46.59087" lon="6.06429">
        <ele>1099</ele>
        <time>2020-07-12T08:26:59Z</time>
      </trkpt>
      <trkpt lat="46.59092" lon="6.06432">
        <ele>1098.1</ele>
        <time>2020-07-12T08:27:05Z</time>
      </trkpt>
      <trkpt lat="46.59096" lon="6.06436">
        <ele>1097</ele>
        <time>2020-07-12T08:27:09Z</time>
      </trkpt>
      <trkpt lat="46.591" lon="6.0644">
        <ele>1095.9</ele>
        <time>2020-07-12T08:27:13Z</time>
      </trkpt>
      <trkpt lat="46.59105" lon="6.06443">
        <ele>1094.7</ele>
        <time>2020-07-12T08:27:17Z</time>
      </trkpt>
      <trkpt lat="46.5911" lon="6.06446">
        <ele>1093</ele>
        <time>2020-07-12T08:27:22Z</time>
      </trkpt>
      <trkpt lat="46.59116" lon="6.0645">
        <ele>1091.2</ele>
        <time>2020-07-12T08:27:26Z</time>
      </trkpt>
      <trkpt lat="46.5912" lon="6.06451">
        <ele>1088.8</ele>
        <time>2020-07-12T08:27:28Z</time>
      </trkpt>
      <trkpt lat="46.59124" lon="6.06455">
        <ele>1086.4</ele>
        <time>2020-07-12T08:27:32Z</time>
      </trkpt>
      <trkpt lat="46.59127" lon="6.0646">
        <ele>1084.7</ele>
        <time>2020-07-12T08:27:37Z</time>
      </trkpt>
      <trkpt lat="46.5913" lon="6.06466">
        <ele>1084</ele>
        <time>2020-07-12T08:27:43Z</time>
      </trkpt>
      <trkpt lat="46.59134" lon="6.06472">
        <ele>1084.2</ele>
        <time>2020-07-12T08:27:47Z</time>
      </trkpt>
      <trkpt lat="46.59144" lon="6.06491">
        <ele>1085.7</ele>
        <time>2020-07-12T08:27:57Z</time>
      </trkpt>
      <trkpt lat="46.59145" lon="6.06497">
        <ele>1085.9</ele>
        <time>2020-07-12T08:28:00Z</time>
      </trkpt>
      <trkpt lat="46.59146" lon="6.06504">
        <ele>1086.1</ele>
        <time>2020-07-12T08:28:02Z</time>
      </trkpt>
      <trkpt lat="46.59147" lon="6.06511">
        <ele>1086.4</ele>
        <time>2020-07-12T08:28:05Z</time>
      </trkpt>
      <trkpt lat="46.59148" lon="6.06529">
        <ele>1087.7</ele>
        <time>2020-07-12T08:28:15Z</time>
      </trkpt>
      <trkpt lat="46.5915" lon="6.06536">
        <ele>1088.4</ele>
        <time>2020-07-12T08:28:21Z</time>
      </trkpt>
      <trkpt lat="46.59157" lon="6.06553">
        <ele>1089</ele>
        <time>2020-07-12T08:28:34Z</time>
      </trkpt>
      <trkpt lat="46.5916" lon="6.06559">
        <ele>1089.3</ele>
        <time>2020-07-12T08:28:39Z</time>
      </trkpt>
      <trkpt lat="46.59165" lon="6.06564">
        <ele>1089.7</ele>
        <time>2020-07-12T08:28:44Z</time>
      </trkpt>
      <trkpt lat="46.5917" lon="6.06566">
        <ele>1090.1</ele>
        <time>2020-07-12T08:28:49Z</time>
      </trkpt>
      <trkpt lat="46.59175" lon="6.06568">
        <ele>1090.4</ele>
        <time>2020-07-12T08:28:57Z</time>
      </trkpt>
      <trkpt lat="46.59179" lon="6.0657">
        <ele>1090.5</ele>
        <time>2020-07-12T08:29:02Z</time>
      </trkpt>
      <trkpt lat="46.59184" lon="6.06569">
        <ele>1090.4</ele>
        <time>2020-07-12T08:29:05Z</time>
      </trkpt>
      <trkpt lat="46.5919" lon="6.06566">
        <ele>1090.2</ele>
        <time>2020-07-12T08:29:08Z</time>
      </trkpt>
      <trkpt lat="46.59195" lon="6.06569">
        <ele>1089.7</ele>
        <time>2020-07-12T08:29:15Z</time>
      </trkpt>
      <trkpt lat="46.59198" lon="6.06576">
        <ele>1089.1</ele>
        <time>2020-07-12T08:29:20Z</time>
      </trkpt>
      <trkpt lat="46.59204" lon="6.0659">
        <ele>1087.5</ele>
        <time>2020-07-12T08:29:28Z</time>
      </trkpt>
      <trkpt lat="46.59208" lon="6.06596">
        <ele>1087.1</ele>
        <time>2020-07-12T08:29:33Z</time>
      </trkpt>
      <trkpt lat="46.59212" lon="6.06599">
        <ele>1086.9</ele>
        <time>2020-07-12T08:29:37Z</time>
      </trkpt>
      <trkpt lat="46.59216" lon="6.06604">
        <ele>1086.6</ele>
        <time>2020-07-12T08:29:41Z</time>
      </trkpt>
      <trkpt lat="46.59219" lon="6.06608">
        <ele>1086.7</ele>
        <time>2020-07-12T08:29:46Z</time>
      </trkpt>
      <trkpt lat="46.59223" lon="6.06614">
        <ele>1087</ele>
        <time>2020-07-12T08:29:50Z</time>
      </trkpt>
      <trkpt lat="46.59226" lon="6.06619">
        <ele>1087.5</ele>
        <time>2020-07-12T08:29:54Z</time>
      </trkpt>
      <trkpt lat="46.59229" lon="6.06625">
        <ele>1088.1</ele>
        <time>2020-07-12T08:29:59Z</time>
      </trkpt>
      <trkpt lat="46.59235" lon="6.06631">
        <ele>1088.6</ele>
        <time>2020-07-12T08:30:04Z</time>
      </trkpt>
      <trkpt lat="46.59239" lon="6.06636">
        <ele>1089.2</ele>
        <time>2020-07-12T08:30:08Z</time>
      </trkpt>
      <trkpt lat="46.59243" lon="6.0664">
        <ele>1090</ele>
        <time>2020-07-12T08:30:13Z</time>
      </trkpt>
      <trkpt lat="46.59256" lon="6.06648">
        <ele>1093</ele>
        <time>2020-07-12T08:30:25Z</time>
      </trkpt>
      <trkpt lat="46.59267" lon="6.06652">
        <ele>1095.4</ele>
        <time>2020-07-12T08:30:37Z</time>
      </trkpt>
      <trkpt lat="46.59272" lon="6.06654">
        <ele>1096.1</ele>
        <time>2020-07-12T08:30:42Z</time>
      </trkpt>
      <trkpt lat="46.59283" lon="6.0666">
        <ele>1097.4</ele>
        <time>2020-07-12T08:30:54Z</time>
      </trkpt>
      <trkpt lat="46.59288" lon="6.0666">
        <ele>1096</ele>
        <time>2020-07-12T08:31:01Z</time>
      </trkpt>
      <trkpt lat="46.59293" lon="6.0666">
        <ele>1094.3</ele>
        <time>2020-07-12T08:31:07Z</time>
      </trkpt>
      <trkpt lat="46.59311" lon="6.0666">
        <ele>1088.8</ele>
        <time>2020-07-12T08:31:23Z</time>
      </trkpt>
      <trkpt lat="46.59316" lon="6.06658">
        <ele>1088.5</ele>
        <time>2020-07-12T08:31:28Z</time>
      </trkpt>
      <trkpt lat="46.5932" lon="6.06655">
        <ele>1088.6</ele>
        <time>2020-07-12T08:31:35Z</time>
      </trkpt>
      <trkpt lat="46.59325" lon="6.06652">
        <ele>1089.4</ele>
        <time>2020-07-12T08:31:43Z</time>
      </trkpt>
      <trkpt lat="46.59329" lon="6.06649">
        <ele>1090.1</ele>
        <time>2020-07-12T08:31:49Z</time>
      </trkpt>
      <trkpt lat="46.59335" lon="6.06648">
        <ele>1090.2</ele>
        <time>2020-07-12T08:31:51Z</time>
      </trkpt>
      <trkpt lat="46.59359" lon="6.06652">
        <ele>1095.9</ele>
        <time>2020-07-12T08:32:17Z</time>
      </trkpt>
      <trkpt lat="46.59363" lon="6.06655">
        <ele>1096.5</ele>
        <time>2020-07-12T08:32:20Z</time>
      </trkpt>
      <trkpt lat="46.59368" lon="6.06658">
        <ele>1097.1</ele>
        <time>2020-07-12T08:32:23Z</time>
      </trkpt>
      <trkpt lat="46.59373" lon="6.06661">
        <ele>1097.9</ele>
        <time>2020-07-12T08:32:27Z</time>
      </trkpt>
      <trkpt lat="46.59377" lon="6.06661">
        <ele>1099.1</ele>
        <time>2020-07-12T08:32:31Z</time>
      </trkpt>
      <trkpt lat="46.59382" lon="6.06664">
        <ele>1100.7</ele>
        <time>2020-07-12T08:32:38Z</time>
      </trkpt>
      <trkpt lat="46.59387" lon="6.06666">
        <ele>1101.2</ele>
        <time>2020-07-12T08:32:40Z</time>
      </trkpt>
      <trkpt lat="46.59392" lon="6.06669">
        <ele>1101.9</ele>
        <time>2020-07-12T08:32:43Z</time>
      </trkpt>
      <trkpt lat="46.59396" lon="6.06673">
        <ele>1103.4</ele>
        <time>2020-07-12T08:32:49Z</time>
      </trkpt>
      <trkpt lat="46.59399" lon="6.06678">
        <ele>1104.6</ele>
        <time>2020-07-12T08:32:55Z</time>
      </trkpt>
      <trkpt lat="46.59403" lon="6.06685">
        <ele>1105.2</ele>
        <time>2020-07-12T08:32:59Z</time>
      </trkpt>
      <trkpt lat="46.59406" lon="6.0669">
        <ele>1105.7</ele>
        <time>2020-07-12T08:33:03Z</time>
      </trkpt>
      <trkpt lat="46.5941" lon="6.06694">
        <ele>1106.1</ele>
        <time>2020-07-12T08:33:07Z</time>
      </trkpt>
      <trkpt lat="46.59414" lon="6.06698">
        <ele>1106.3</ele>
        <time>2020-07-12T08:33:10Z</time>
      </trkpt>
      <trkpt lat="46.59419" lon="6.06701">
        <ele>1106.8</ele>
        <time>2020-07-12T08:33:14Z</time>
      </trkpt>
      <trkpt lat="46.59423" lon="6.06706">
        <ele>1107.3</ele>
        <time>2020-07-12T08:33:18Z</time>
      </trkpt>
      <trkpt lat="46.59424" lon="6.06714">
        <ele>1108</ele>
        <time>2020-07-12T08:33:22Z</time>
      </trkpt>
      <trkpt lat="46.59421" lon="6.06747">
        <ele>1112.6</ele>
        <time>2020-07-12T08:33:55Z</time>
      </trkpt>
      <trkpt lat="46.5942" lon="6.06754">
        <ele>1112.8</ele>
        <time>2020-07-12T08:33:58Z</time>
      </trkpt>
      <trkpt lat="46.59419" lon="6.0676">
        <ele>1113.2</ele>
        <time>2020-07-12T08:34:03Z</time>
      </trkpt>
      <trkpt lat="46.5942" lon="6.06782">
        <ele>1115.2</ele>
        <time>2020-07-12T08:34:15Z</time>
      </trkpt>
      <trkpt lat="46.59413" lon="6.06804">
        <ele>1117</ele>
        <time>2020-07-12T08:34:28Z</time>
      </trkpt>
      <trkpt lat="46.59414" lon="6.0681">
        <ele>1117.2</ele>
        <time>2020-07-12T08:34:32Z</time>
      </trkpt>
      <trkpt lat="46.59417" lon="6.06816">
        <ele>1117.5</ele>
        <time>2020-07-12T08:34:36Z</time>
      </trkpt>
      <trkpt lat="46.59418" lon="6.06823">
        <ele>1117.7</ele>
        <time>2020-07-12T08:34:43Z</time>
      </trkpt>
      <trkpt lat="46.59423" lon="6.06827">
        <ele>1117.8</ele>
        <time>2020-07-12T08:34:46Z</time>
      </trkpt>
      <trkpt lat="46.59427" lon="6.06829">
        <ele>1117.8</ele>
        <time>2020-07-12T08:34:50Z</time>
      </trkpt>
      <trkpt lat="46.59432" lon="6.06831">
        <ele>1118.2</ele>
        <time>2020-07-12T08:34:55Z</time>
      </trkpt>
      <trkpt lat="46.59435" lon="6.06836">
        <ele>1118.8</ele>
        <time>2020-07-12T08:35:01Z</time>
      </trkpt>
      <trkpt lat="46.59439" lon="6.06839">
        <ele>1118.7</ele>
        <time>2020-07-12T08:35:10Z</time>
      </trkpt>
      <trkpt lat="46.5944" lon="6.06846">
        <ele>1117.8</ele>
        <time>2020-07-12T08:35:17Z</time>
      </trkpt>
      <trkpt lat="46.59444" lon="6.06852">
        <ele>1117.4</ele>
        <time>2020-07-12T08:35:20Z</time>
      </trkpt>
      <trkpt lat="46.59447" lon="6.06857">
        <ele>1117.1</ele>
        <time>2020-07-12T08:35:22Z</time>
      </trkpt>
      <trkpt lat="46.59453" lon="6.06862">
        <ele>1116.8</ele>
        <time>2020-07-12T08:35:25Z</time>
      </trkpt>
      <trkpt lat="46.59459" lon="6.06863">
        <ele>1116.5</ele>
        <time>2020-07-12T08:35:28Z</time>
      </trkpt>
      <trkpt lat="46.59464" lon="6.06862">
        <ele>1116.3</ele>
        <time>2020-07-12T08:35:30Z</time>
      </trkpt>
      <trkpt lat="46.59469" lon="6.06858">
        <ele>1116</ele>
        <time>2020-07-12T08:35:33Z</time>
      </trkpt>
      <trkpt lat="46.59472" lon="6.06854">
        <ele>1115.6</ele>
        <time>2020-07-12T08:35:39Z</time>
      </trkpt>
      <trkpt lat="46.59476" lon="6.06849">
        <ele>1114.4</ele>
        <time>2020-07-12T08:35:49Z</time>
      </trkpt>
      <trkpt lat="46.59502" lon="6.06814">
        <ele>1109.6</ele>
        <time>2020-07-12T08:37:26Z</time>
      </trkpt>
      <trkpt lat="46.59506" lon="6.0681">
        <ele>1109.2</ele>
        <time>2020-07-12T08:37:30Z</time>
      </trkpt>
      <trkpt lat="46.59525" lon="6.06796">
        <ele>1106.8</ele>
        <time>2020-07-12T08:37:53Z</time>
      </trkpt>
      <trkpt lat="46.5953" lon="6.06791">
        <ele>1106.6</ele>
        <time>2020-07-12T08:37:56Z</time>
      </trkpt>
      <trkpt lat="46.59534" lon="6.06786">
        <ele>1106.5</ele>
        <time>2020-07-12T08:38:00Z</time>
      </trkpt>
      <trkpt lat="46.59538" lon="6.0678">
        <ele>1106.3</ele>
        <time>2020-07-12T08:38:06Z</time>
      </trkpt>
      <trkpt lat="46.59548" lon="6.06768">
        <ele>1103.7</ele>
        <time>2020-07-12T08:38:23Z</time>
      </trkpt>
      <trkpt lat="46.59563" lon="6.06756">
        <ele>1102.7</ele>
        <time>2020-07-12T08:38:32Z</time>
      </trkpt>
      <trkpt lat="46.59567" lon="6.06751">
        <ele>1102.6</ele>
        <time>2020-07-12T08:38:36Z</time>
      </trkpt>
      <trkpt lat="46.59569" lon="6.06745">
        <ele>1102.4</ele>
        <time>2020-07-12T08:38:40Z</time>
      </trkpt>
      <trkpt lat="46.59572" lon="6.06738">
        <ele>1102.3</ele>
        <time>2020-07-12T08:38:44Z</time>
      </trkpt>
      <trkpt lat="46.59573" lon="6.06731">
        <ele>1102.4</ele>
        <time>2020-07-12T08:38:48Z</time>
      </trkpt>
      <trkpt lat="46.59575" lon="6.06725">
        <ele>1102.4</ele>
        <time>2020-07-12T08:38:51Z</time>
      </trkpt>
      <trkpt lat="46.59578" lon="6.06719">
        <ele>1102.5</ele>
        <time>2020-07-12T08:38:53Z</time>
      </trkpt>
      <trkpt lat="46.59581" lon="6.06713">
        <ele>1102.8</ele>
        <time>2020-07-12T08:38:57Z</time>
      </trkpt>
      <trkpt lat="46.59585" lon="6.06708">
        <ele>1103</ele>
        <time>2020-07-12T08:39:03Z</time>
      </trkpt>
      <trkpt lat="46.5959" lon="6.06708">
        <ele>1103.1</ele>
        <time>2020-07-12T08:39:08Z</time>
      </trkpt>
      <trkpt lat="46.59594" lon="6.06704">
        <ele>1103.2</ele>
        <time>2020-07-12T08:39:13Z</time>
      </trkpt>
      <trkpt lat="46.59602" lon="6.06696">
        <ele>1103.4</ele>
        <time>2020-07-12T08:39:23Z</time>
      </trkpt>
      <trkpt lat="46.59607" lon="6.06696">
        <ele>1103.3</ele>
        <time>2020-07-12T08:39:28Z</time>
      </trkpt>
      <trkpt lat="46.59612" lon="6.06697">
        <ele>1103.2</ele>
        <time>2020-07-12T08:39:33Z</time>
      </trkpt>
      <trkpt lat="46.59618" lon="6.06699">
        <ele>1103.2</ele>
        <time>2020-07-12T08:39:36Z</time>
      </trkpt>
      <trkpt lat="46.59622" lon="6.06704">
        <ele>1103.2</ele>
        <time>2020-07-12T08:39:41Z</time>
      </trkpt>
      <trkpt lat="46.59623" lon="6.0671">
        <ele>1103.3</ele>
        <time>2020-07-12T08:39:45Z</time>
      </trkpt>
      <trkpt lat="46.59624" lon="6.06717">
        <ele>1103.3</ele>
        <time>2020-07-12T08:39:51Z</time>
      </trkpt>
      <trkpt lat="46.59624" lon="6.06724">
        <ele>1103.3</ele>
        <time>2020-07-12T08:39:54Z</time>
      </trkpt>
      <trkpt lat="46.59627" lon="6.06732">
        <ele>1103.3</ele>
        <time>2020-07-12T08:39:57Z</time>
      </trkpt>
      <trkpt lat="46.59646" lon="6.06764">
        <ele>1100.9</ele>
        <time>2020-07-12T08:40:26Z</time>
      </trkpt>
      <trkpt lat="46.59647" lon="6.06771">
        <ele>1101</ele>
        <time>2020-07-12T08:40:29Z</time>
      </trkpt>
      <trkpt lat="46.59646" lon="6.06778">
        <ele>1101.2</ele>
        <time>2020-07-12T08:40:32Z</time>
      </trkpt>
      <trkpt lat="46.59643" lon="6.06784">
        <ele>1101.5</ele>
        <time>2020-07-12T08:40:36Z</time>
      </trkpt>
      <trkpt lat="46.59643" lon="6.06791">
        <ele>1101.9</ele>
        <time>2020-07-12T08:40:42Z</time>
      </trkpt>
      <trkpt lat="46.59645" lon="6.06798">
        <ele>1101.9</ele>
        <time>2020-07-12T08:40:48Z</time>
      </trkpt>
      <trkpt lat="46.59646" lon="6.06805">
        <ele>1101.9</ele>
        <time>2020-07-12T08:40:53Z</time>
      </trkpt>
      <trkpt lat="46.59648" lon="6.06815">
        <ele>1102.1</ele>
        <time>2020-07-12T08:40:58Z</time>
      </trkpt>
      <trkpt lat="46.59647" lon="6.06821">
        <ele>1102.2</ele>
        <time>2020-07-12T08:41:00Z</time>
      </trkpt>
      <trkpt lat="46.5964" lon="6.06861">
        <ele>1105</ele>
        <time>2020-07-12T08:41:25Z</time>
      </trkpt>
      <trkpt lat="46.59636" lon="6.06866">
        <ele>1104.9</ele>
        <time>2020-07-12T08:41:29Z</time>
      </trkpt>
      <trkpt lat="46.59631" lon="6.06878">
        <ele>1105.7</ele>
        <time>2020-07-12T08:41:42Z</time>
      </trkpt>
      <trkpt lat="46.59631" lon="6.06886">
        <ele>1106</ele>
        <time>2020-07-12T08:41:47Z</time>
      </trkpt>
      <trkpt lat="46.59636" lon="6.06899">
        <ele>1105.4</ele>
        <time>2020-07-12T08:42:00Z</time>
      </trkpt>
      <trkpt lat="46.5965" lon="6.06915">
        <ele>1099.3</ele>
        <time>2020-07-12T08:42:27Z</time>
      </trkpt>
      <trkpt lat="46.59655" lon="6.06918">
        <ele>1099</ele>
        <time>2020-07-12T08:42:29Z</time>
      </trkpt>
      <trkpt lat="46.5966" lon="6.06919">
        <ele>1098.4</ele>
        <time>2020-07-12T08:42:32Z</time>
      </trkpt>
      <trkpt lat="46.59665" lon="6.06918">
        <ele>1097.2</ele>
        <time>2020-07-12T08:42:38Z</time>
      </trkpt>
      <trkpt lat="46.59669" lon="6.06917">
        <ele>1096.6</ele>
        <time>2020-07-12T08:42:41Z</time>
      </trkpt>
      <trkpt lat="46.59683" lon="6.06915">
        <ele>1092.4</ele>
        <time>2020-07-12T08:43:00Z</time>
      </trkpt>
      <trkpt lat="46.59688" lon="6.06914">
        <ele>1092.1</ele>
        <time>2020-07-12T08:43:02Z</time>
      </trkpt>
      <trkpt lat="46.59716" lon="6.06939">
        <ele>1085.9</ele>
        <time>2020-07-12T08:43:31Z</time>
      </trkpt>
      <trkpt lat="46.5972" lon="6.06944">
        <ele>1085.7</ele>
        <time>2020-07-12T08:43:35Z</time>
      </trkpt>
      <trkpt lat="46.5973" lon="6.06958">
        <ele>1084.5</ele>
        <time>2020-07-12T08:43:46Z</time>
      </trkpt>
      <trkpt lat="46.59734" lon="6.06962">
        <ele>1084.1</ele>
        <time>2020-07-12T08:43:50Z</time>
      </trkpt>
      <trkpt lat="46.5976" lon="6.06976">
        <ele>1083.2</ele>
        <time>2020-07-12T08:44:18Z</time>
      </trkpt>
      <trkpt lat="46.59775" lon="6.06987">
        <ele>1083.3</ele>
        <time>2020-07-12T08:44:36Z</time>
      </trkpt>
      <trkpt lat="46.59786" lon="6.06995">
        <ele>1082.8</ele>
        <time>2020-07-12T08:45:07Z</time>
      </trkpt>
      <trkpt lat="46.59796" lon="6.06989">
        <ele>1084</ele>
        <time>2020-07-12T08:46:48Z</time>
      </trkpt>
      <trkpt lat="46.59799" lon="6.06983">
        <ele>1085.4</ele>
        <time>2020-07-12T08:47:01Z</time>
      </trkpt>
      <trkpt lat="46.59803" lon="6.06979">
        <ele>1086.6</ele>
        <time>2020-07-12T08:47:08Z</time>
      </trkpt>
      <trkpt lat="46.59807" lon="6.06975">
        <ele>1087.9</ele>
        <time>2020-07-12T08:47:14Z</time>
      </trkpt>
      <trkpt lat="46.59817" lon="6.06965">
        <ele>1090.9</ele>
        <time>2020-07-12T08:47:31Z</time>
      </trkpt>
      <trkpt lat="46.5982" lon="6.06961">
        <ele>1091.2</ele>
        <time>2020-07-12T08:47:35Z</time>
      </trkpt>
      <trkpt lat="46.59825" lon="6.06959">
        <ele>1091.5</ele>
        <time>2020-07-12T08:47:40Z</time>
      </trkpt>
      <trkpt lat="46.59829" lon="6.06955">
        <ele>1091.7</ele>
        <time>2020-07-12T08:47:46Z</time>
      </trkpt>
      <trkpt lat="46.59832" lon="6.06949">
        <ele>1092</ele>
        <time>2020-07-12T08:47:53Z</time>
      </trkpt>
      <trkpt lat="46.59836" lon="6.06944">
        <ele>1092.3</ele>
        <time>2020-07-12T08:47:58Z</time>
      </trkpt>
      <trkpt lat="46.5984" lon="6.0694">
        <ele>1092.4</ele>
        <time>2020-07-12T08:48:04Z</time>
      </trkpt>
      <trkpt lat="46.59843" lon="6.06935">
        <ele>1092.5</ele>
        <time>2020-07-12T08:48:09Z</time>
      </trkpt>
      <trkpt lat="46.59847" lon="6.06931">
        <ele>1092.6</ele>
        <time>2020-07-12T08:48:14Z</time>
      </trkpt>
      <trkpt lat="46.59852" lon="6.06926">
        <ele>1092.3</ele>
        <time>2020-07-12T08:48:20Z</time>
      </trkpt>
      <trkpt lat="46.59855" lon="6.06922">
        <ele>1091.8</ele>
        <time>2020-07-12T08:48:26Z</time>
      </trkpt>
      <trkpt lat="46.59865" lon="6.06901">
        <ele>1089.4</ele>
        <time>2020-07-12T08:48:40Z</time>
      </trkpt>
      <trkpt lat="46.59866" lon="6.06894">
        <ele>1089.1</ele>
        <time>2020-07-12T08:48:44Z</time>
      </trkpt>
      <trkpt lat="46.59867" lon="6.06887">
        <ele>1088.9</ele>
        <time>2020-07-12T08:48:48Z</time>
      </trkpt>
      <trkpt lat="46.5987" lon="6.06882">
        <ele>1088.7</ele>
        <time>2020-07-12T08:48:53Z</time>
      </trkpt>
      <trkpt lat="46.59874" lon="6.06877">
        <ele>1088.5</ele>
        <time>2020-07-12T08:48:58Z</time>
      </trkpt>
      <trkpt lat="46.59877" lon="6.06871">
        <ele>1088.5</ele>
        <time>2020-07-12T08:49:05Z</time>
      </trkpt>
      <trkpt lat="46.5988" lon="6.06865">
        <ele>1088.4</ele>
        <time>2020-07-12T08:49:11Z</time>
      </trkpt>
      <trkpt lat="46.59883" lon="6.06859">
        <ele>1088.4</ele>
        <time>2020-07-12T08:49:17Z</time>
      </trkpt>
      <trkpt lat="46.59886" lon="6.06854">
        <ele>1088.1</ele>
        <time>2020-07-12T08:49:23Z</time>
      </trkpt>
      <trkpt lat="46.59889" lon="6.06848">
        <ele>1087.7</ele>
        <time>2020-07-12T08:49:28Z</time>
      </trkpt>
      <trkpt lat="46.59892" lon="6.06843">
        <ele>1087.5</ele>
        <time>2020-07-12T08:49:32Z</time>
      </trkpt>
      <trkpt lat="46.59895" lon="6.06839">
        <ele>1087.3</ele>
        <time>2020-07-12T08:49:37Z</time>
      </trkpt>
      <trkpt lat="46.599" lon="6.06835">
        <ele>1087</ele>
        <time>2020-07-12T08:49:42Z</time>
      </trkpt>
      <trkpt lat="46.59904" lon="6.06832">
        <ele>1086.7</ele>
        <time>2020-07-12T08:49:48Z</time>
      </trkpt>
      <trkpt lat="46.59908" lon="6.06828">
        <ele>1086.4</ele>
        <time>2020-07-12T08:49:54Z</time>
      </trkpt>
      <trkpt lat="46.59918" lon="6.06818">
        <ele>1085.7</ele>
        <time>2020-07-12T08:50:09Z</time>
      </trkpt>
      <trkpt lat="46.59922" lon="6.06814">
        <ele>1085.5</ele>
        <time>2020-07-12T08:50:16Z</time>
      </trkpt>
      <trkpt lat="46.59926" lon="6.06811">
        <ele>1085.2</ele>
        <time>2020-07-12T08:50:22Z</time>
      </trkpt>
      <trkpt lat="46.59931" lon="6.06808">
        <ele>1084.2</ele>
        <time>2020-07-12T08:50:39Z</time>
      </trkpt>
      <trkpt lat="46.59935" lon="6.06807">
        <ele>1083</ele>
        <time>2020-07-12T08:51:02Z</time>
      </trkpt>
      <trkpt lat="46.59939" lon="6.06803">
        <ele>1082</ele>
        <time>2020-07-12T08:51:14Z</time>
      </trkpt>
      <trkpt lat="46.59944" lon="6.068">
        <ele>1082</ele>
        <time>2020-07-12T08:51:18Z</time>
      </trkpt>
      <trkpt lat="46.59949" lon="6.06797">
        <ele>1081.9</ele>
        <time>2020-07-12T08:51:22Z</time>
      </trkpt>
      <trkpt lat="46.59953" lon="6.06794">
        <ele>1081.6</ele>
        <time>2020-07-12T08:51:28Z</time>
      </trkpt>
      <trkpt lat="46.5996" lon="6.06785">
        <ele>1080.4</ele>
        <time>2020-07-12T08:51:39Z</time>
      </trkpt>
      <trkpt lat="46.59971" lon="6.06775">
        <ele>1078.6</ele>
        <time>2020-07-12T08:51:49Z</time>
      </trkpt>
      <trkpt lat="46.59975" lon="6.06771">
        <ele>1078.2</ele>
        <time>2020-07-12T08:51:53Z</time>
      </trkpt>
      <trkpt lat="46.59984" lon="6.06766">
        <ele>1077.6</ele>
        <time>2020-07-12T08:52:03Z</time>
      </trkpt>
      <trkpt lat="46.59994" lon="6.06754">
        <ele>1077.6</ele>
        <time>2020-07-12T08:52:16Z</time>
      </trkpt>
      <trkpt lat="46.59998" lon="6.0675">
        <ele>1076.9</ele>
        <time>2020-07-12T08:52:22Z</time>
      </trkpt>
      <trkpt lat="46.60002" lon="6.06744">
        <ele>1076.3</ele>
        <time>2020-07-12T08:52:26Z</time>
      </trkpt>
      <trkpt lat="46.60007" lon="6.0674">
        <ele>1076</ele>
        <time>2020-07-12T08:52:30Z</time>
      </trkpt>
      <trkpt lat="46.60011" lon="6.06737">
        <ele>1075.7</ele>
        <time>2020-07-12T08:52:36Z</time>
      </trkpt>
      <trkpt lat="46.60016" lon="6.06735">
        <ele>1075.9</ele>
        <time>2020-07-12T08:52:41Z</time>
      </trkpt>
      <trkpt lat="46.6002" lon="6.06732">
        <ele>1075.9</ele>
        <time>2020-07-12T08:52:46Z</time>
      </trkpt>
      <trkpt lat="46.60023" lon="6.06725">
        <ele>1075.8</ele>
        <time>2020-07-12T08:52:51Z</time>
      </trkpt>
      <trkpt lat="46.60032" lon="6.06715">
        <ele>1076.4</ele>
        <time>2020-07-12T08:53:02Z</time>
      </trkpt>
      <trkpt lat="46.60051" lon="6.06674">
        <ele>1077.2</ele>
        <time>2020-07-12T08:53:32Z</time>
      </trkpt>
      <trkpt lat="46.60062" lon="6.06656">
        <ele>1078.6</ele>
        <time>2020-07-12T08:53:47Z</time>
      </trkpt>
      <trkpt lat="46.60065" lon="6.06651">
        <ele>1078.9</ele>
        <time>2020-07-12T08:53:50Z</time>
      </trkpt>
      <trkpt lat="46.60069" lon="6.06646">
        <ele>1079.7</ele>
        <time>2020-07-12T08:53:55Z</time>
      </trkpt>
      <trkpt lat="46.60072" lon="6.0664">
        <ele>1080.3</ele>
        <time>2020-07-12T08:53:59Z</time>
      </trkpt>
      <trkpt lat="46.60083" lon="6.06623">
        <ele>1083</ele>
        <time>2020-07-12T08:54:15Z</time>
      </trkpt>
      <trkpt lat="46.60091" lon="6.066">
        <ele>1084.6</ele>
        <time>2020-07-12T08:54:32Z</time>
      </trkpt>
      <trkpt lat="46.60091" lon="6.06594">
        <ele>1084.8</ele>
        <time>2020-07-12T08:54:37Z</time>
      </trkpt>
      <trkpt lat="46.60097" lon="6.06577">
        <ele>1085</ele>
        <time>2020-07-12T08:54:52Z</time>
      </trkpt>
      <trkpt lat="46.60099" lon="6.06571">
        <ele>1085.1</ele>
        <time>2020-07-12T08:54:55Z</time>
      </trkpt>
      <trkpt lat="46.60101" lon="6.06564">
        <ele>1085.4</ele>
        <time>2020-07-12T08:55:00Z</time>
      </trkpt>
      <trkpt lat="46.60104" lon="6.06556">
        <ele>1085.8</ele>
        <time>2020-07-12T08:55:05Z</time>
      </trkpt>
      <trkpt lat="46.60106" lon="6.06549">
        <ele>1086.4</ele>
        <time>2020-07-12T08:55:09Z</time>
      </trkpt>
      <trkpt lat="46.60117" lon="6.06538">
        <ele>1088.8</ele>
        <time>2020-07-12T08:55:19Z</time>
      </trkpt>
      <trkpt lat="46.60131" lon="6.06538">
        <ele>1089.6</ele>
        <time>2020-07-12T08:55:28Z</time>
      </trkpt>
      <trkpt lat="46.60137" lon="6.06538">
        <ele>1089.5</ele>
        <time>2020-07-12T08:55:34Z</time>
      </trkpt>
      <trkpt lat="46.60142" lon="6.06539">
        <ele>1089.2</ele>
        <time>2020-07-12T08:55:38Z</time>
      </trkpt>
      <trkpt lat="46.60147" lon="6.06539">
        <ele>1088.7</ele>
        <time>2020-07-12T08:55:45Z</time>
      </trkpt>
      <trkpt lat="46.60151" lon="6.06541">
        <ele>1088.3</ele>
        <time>2020-07-12T08:55:48Z</time>
      </trkpt>
      <trkpt lat="46.6016" lon="6.06534">
        <ele>1086.7</ele>
        <time>2020-07-12T08:55:58Z</time>
      </trkpt>
      <trkpt lat="46.60163" lon="6.06528">
        <ele>1085.9</ele>
        <time>2020-07-12T08:56:03Z</time>
      </trkpt>
      <trkpt lat="46.60168" lon="6.06511">
        <ele>1084.1</ele>
        <time>2020-07-12T08:56:15Z</time>
      </trkpt>
      <trkpt lat="46.60176" lon="6.065">
        <ele>1083.3</ele>
        <time>2020-07-12T08:56:27Z</time>
      </trkpt>
      <trkpt lat="46.60195" lon="6.06517">
        <ele>1080.5</ele>
        <time>2020-07-12T08:56:43Z</time>
      </trkpt>
      <trkpt lat="46.60199" lon="6.0652">
        <ele>1080.4</ele>
        <time>2020-07-12T08:56:45Z</time>
      </trkpt>
      <trkpt lat="46.60204" lon="6.06524">
        <ele>1080.2</ele>
        <time>2020-07-12T08:56:48Z</time>
      </trkpt>
      <trkpt lat="46.60208" lon="6.06527">
        <ele>1079.7</ele>
        <time>2020-07-12T08:56:52Z</time>
      </trkpt>
      <trkpt lat="46.60212" lon="6.06532">
        <ele>1078.7</ele>
        <time>2020-07-12T08:56:58Z</time>
      </trkpt>
      <trkpt lat="46.60216" lon="6.06537">
        <ele>1078.1</ele>
        <time>2020-07-12T08:57:03Z</time>
      </trkpt>
      <trkpt lat="46.60224" lon="6.0655">
        <ele>1077.5</ele>
        <time>2020-07-12T08:57:14Z</time>
      </trkpt>
      <trkpt lat="46.60237" lon="6.06584">
        <ele>1076</ele>
        <time>2020-07-12T08:57:34Z</time>
      </trkpt>
      <trkpt lat="46.60239" lon="6.06591">
        <ele>1076.3</ele>
        <time>2020-07-12T08:57:39Z</time>
      </trkpt>
      <trkpt lat="46.60253" lon="6.06628">
        <ele>1081</ele>
        <time>2020-07-12T08:58:04Z</time>
      </trkpt>
      <trkpt lat="46.60256" lon="6.06634">
        <ele>1081.2</ele>
        <time>2020-07-12T08:58:07Z</time>
      </trkpt>
      <trkpt lat="46.60263" lon="6.06695">
        <ele>1087.3</ele>
        <time>2020-07-12T08:58:42Z</time>
      </trkpt>
      <trkpt lat="46.60267" lon="6.06699">
        <ele>1087.6</ele>
        <time>2020-07-12T08:58:51Z</time>
      </trkpt>
      <trkpt lat="46.60271" lon="6.06703">
        <ele>1087.2</ele>
        <time>2020-07-12T08:58:59Z</time>
      </trkpt>
      <trkpt lat="46.60281" lon="6.0673">
        <ele>1082.5</ele>
        <time>2020-07-12T08:59:22Z</time>
      </trkpt>
      <trkpt lat="46.60291" lon="6.06743">
        <ele>1078.6</ele>
        <time>2020-07-12T08:59:32Z</time>
      </trkpt>
      <trkpt lat="46.60301" lon="6.06759">
        <ele>1076.2</ele>
        <time>2020-07-12T08:59:43Z</time>
      </trkpt>
      <trkpt lat="46.60303" lon="6.06765">
        <ele>1076</ele>
        <time>2020-07-12T08:59:46Z</time>
      </trkpt>
      <trkpt lat="46.60305" lon="6.06773">
        <ele>1075.7</ele>
        <time>2020-07-12T08:59:50Z</time>
      </trkpt>
      <trkpt lat="46.60309" lon="6.06777">
        <ele>1075.6</ele>
        <time>2020-07-12T08:59:52Z</time>
      </trkpt>
      <trkpt lat="46.60315" lon="6.06792">
        <ele>1076.3</ele>
        <time>2020-07-12T09:00:03Z</time>
      </trkpt>
      <trkpt lat="46.60326" lon="6.06812">
        <ele>1078.4</ele>
        <time>2020-07-12T09:00:17Z</time>
      </trkpt>
      <trkpt lat="46.60328" lon="6.06818">
        <ele>1078.7</ele>
        <time>2020-07-12T09:00:21Z</time>
      </trkpt>
      <trkpt lat="46.60333" lon="6.06838">
        <ele>1080.6</ele>
        <time>2020-07-12T09:00:39Z</time>
      </trkpt>
      <trkpt lat="46.60334" lon="6.06845">
        <ele>1080.6</ele>
        <time>2020-07-12T09:00:43Z</time>
      </trkpt>
      <trkpt lat="46.60336" lon="6.06851">
        <ele>1080.8</ele>
        <time>2020-07-12T09:00:47Z</time>
      </trkpt>
      <trkpt lat="46.60353" lon="6.06891">
        <ele>1084.9</ele>
        <time>2020-07-12T09:01:17Z</time>
      </trkpt>
      <trkpt lat="46.60355" lon="6.06898">
        <ele>1085.5</ele>
        <time>2020-07-12T09:01:23Z</time>
      </trkpt>
      <trkpt lat="46.60358" lon="6.0691">
        <ele>1087.3</ele>
        <time>2020-07-12T09:01:34Z</time>
      </trkpt>
      <trkpt lat="46.6036" lon="6.06916">
        <ele>1087.4</ele>
        <time>2020-07-12T09:01:39Z</time>
      </trkpt>
      <trkpt lat="46.60362" lon="6.06923">
        <ele>1087.5</ele>
        <time>2020-07-12T09:01:43Z</time>
      </trkpt>
      <trkpt lat="46.60367" lon="6.0695">
        <ele>1089.4</ele>
        <time>2020-07-12T09:01:58Z</time>
      </trkpt>
      <trkpt lat="46.60369" lon="6.06958">
        <ele>1089.6</ele>
        <time>2020-07-12T09:02:02Z</time>
      </trkpt>
      <trkpt lat="46.60372" lon="6.06965">
        <ele>1089.9</ele>
        <time>2020-07-12T09:02:05Z</time>
      </trkpt>
      <trkpt lat="46.60374" lon="6.06971">
        <ele>1090.8</ele>
        <time>2020-07-12T09:02:10Z</time>
      </trkpt>
      <trkpt lat="46.60377" lon="6.06977">
        <ele>1091.8</ele>
        <time>2020-07-12T09:02:16Z</time>
      </trkpt>
      <trkpt lat="46.60378" lon="6.06984">
        <ele>1092.2</ele>
        <time>2020-07-12T09:02:22Z</time>
      </trkpt>
      <trkpt lat="46.60381" lon="6.06989">
        <ele>1092.5</ele>
        <time>2020-07-12T09:02:30Z</time>
      </trkpt>
      <trkpt lat="46.60385" lon="6.06987">
        <ele>1092</ele>
        <time>2020-07-12T09:02:39Z</time>
      </trkpt>
      <trkpt lat="46.60374" lon="6.07007">
        <ele>1088.6</ele>
        <time>2020-07-12T09:05:38Z</time>
      </trkpt>
      <trkpt lat="46.60375" lon="6.07014">
        <ele>1088.5</ele>
        <time>2020-07-12T09:05:40Z</time>
      </trkpt>
      <trkpt lat="46.60376" lon="6.07021">
        <ele>1088</ele>
        <time>2020-07-12T09:05:45Z</time>
      </trkpt>
      <trkpt lat="46.60374" lon="6.07045">
        <ele>1086.6</ele>
        <time>2020-07-12T09:06:03Z</time>
      </trkpt>
      <trkpt lat="46.6037" lon="6.07058">
        <ele>1086.6</ele>
        <time>2020-07-12T09:06:15Z</time>
      </trkpt>
      <trkpt lat="46.60366" lon="6.07065">
        <ele>1086.5</ele>
        <time>2020-07-12T09:06:17Z</time>
      </trkpt>
      <trkpt lat="46.60362" lon="6.0707">
        <ele>1086.3</ele>
        <time>2020-07-12T09:06:19Z</time>
      </trkpt>
      <trkpt lat="46.60358" lon="6.07076">
        <ele>1086.1</ele>
        <time>2020-07-12T09:06:22Z</time>
      </trkpt>
      <trkpt lat="46.60355" lon="6.07084">
        <ele>1085.2</ele>
        <time>2020-07-12T09:06:32Z</time>
      </trkpt>
      <trkpt lat="46.60352" lon="6.07092">
        <ele>1084.9</ele>
        <time>2020-07-12T09:06:37Z</time>
      </trkpt>
      <trkpt lat="46.60348" lon="6.07097">
        <ele>1084.8</ele>
        <time>2020-07-12T09:06:39Z</time>
      </trkpt>
      <trkpt lat="46.60346" lon="6.07102">
        <ele>1084.6</ele>
        <time>2020-07-12T09:06:42Z</time>
      </trkpt>
      <trkpt lat="46.60342" lon="6.07109">
        <ele>1084.5</ele>
        <time>2020-07-12T09:06:45Z</time>
      </trkpt>
      <trkpt lat="46.6034" lon="6.0715">
        <ele>1085.5</ele>
        <time>2020-07-12T09:07:06Z</time>
      </trkpt>
      <trkpt lat="46.60343" lon="6.07185">
        <ele>1086.8</ele>
        <time>2020-07-12T09:07:28Z</time>
      </trkpt>
      <trkpt lat="46.60344" lon="6.07191">
        <ele>1087.1</ele>
        <time>2020-07-12T09:07:32Z</time>
      </trkpt>
      <trkpt lat="46.60346" lon="6.07197">
        <ele>1087.3</ele>
        <time>2020-07-12T09:07:36Z</time>
      </trkpt>
      <trkpt lat="46.60329" lon="6.0726">
        <ele>1084.9</ele>
        <time>2020-07-12T09:08:17Z</time>
      </trkpt>
      <trkpt lat="46.60327" lon="6.07267">
        <ele>1084.7</ele>
        <time>2020-07-12T09:08:20Z</time>
      </trkpt>
      <trkpt lat="46.60318" lon="6.07296">
        <ele>1083.4</ele>
        <time>2020-07-12T09:08:37Z</time>
      </trkpt>
      <trkpt lat="46.60318" lon="6.07304">
        <ele>1083.2</ele>
        <time>2020-07-12T09:08:41Z</time>
      </trkpt>
      <trkpt lat="46.60309" lon="6.07347">
        <ele>1079.7</ele>
        <time>2020-07-12T09:09:09Z</time>
      </trkpt>
      <trkpt lat="46.60308" lon="6.07354">
        <ele>1078.7</ele>
        <time>2020-07-12T09:09:15Z</time>
      </trkpt>
      <trkpt lat="46.60303" lon="6.07371">
        <ele>1076.3</ele>
        <time>2020-07-12T09:09:25Z</time>
      </trkpt>
      <trkpt lat="46.603" lon="6.07377">
        <ele>1075.5</ele>
        <time>2020-07-12T09:09:30Z</time>
      </trkpt>
      <trkpt lat="46.60296" lon="6.07384">
        <ele>1075</ele>
        <time>2020-07-12T09:09:33Z</time>
      </trkpt>
      <trkpt lat="46.60279" lon="6.07406">
        <ele>1070</ele>
        <time>2020-07-12T09:10:07Z</time>
      </trkpt>
      <trkpt lat="46.60277" lon="6.07411">
        <ele>1069.1</ele>
        <time>2020-07-12T09:10:14Z</time>
      </trkpt>
      <trkpt lat="46.60273" lon="6.07416">
        <ele>1068.4</ele>
        <time>2020-07-12T09:10:20Z</time>
      </trkpt>
      <trkpt lat="46.60271" lon="6.07422">
        <ele>1068</ele>
        <time>2020-07-12T09:10:23Z</time>
      </trkpt>
      <trkpt lat="46.60268" lon="6.07429">
        <ele>1067.3</ele>
        <time>2020-07-12T09:10:30Z</time>
      </trkpt>
      <trkpt lat="46.60266" lon="6.07435">
        <ele>1066.9</ele>
        <time>2020-07-12T09:10:35Z</time>
      </trkpt>
      <trkpt lat="46.60262" lon="6.0744">
        <ele>1066.6</ele>
        <time>2020-07-12T09:10:39Z</time>
      </trkpt>
      <trkpt lat="46.60259" lon="6.07445">
        <ele>1066.4</ele>
        <time>2020-07-12T09:10:42Z</time>
      </trkpt>
      <trkpt lat="46.60255" lon="6.0745">
        <ele>1065.9</ele>
        <time>2020-07-12T09:10:47Z</time>
      </trkpt>
      <trkpt lat="46.60252" lon="6.07455">
        <ele>1065.4</ele>
        <time>2020-07-12T09:10:52Z</time>
      </trkpt>
      <trkpt lat="46.60248" lon="6.0746">
        <ele>1064.9</ele>
        <time>2020-07-12T09:10:57Z</time>
      </trkpt>
      <trkpt lat="46.60244" lon="6.07464">
        <ele>1064.2</ele>
        <time>2020-07-12T09:11:02Z</time>
      </trkpt>
      <trkpt lat="46.60241" lon="6.07469">
        <ele>1063.4</ele>
        <time>2020-07-12T09:11:07Z</time>
      </trkpt>
      <trkpt lat="46.60236" lon="6.07473">
        <ele>1062.6</ele>
        <time>2020-07-12T09:11:12Z</time>
      </trkpt>
      <trkpt lat="46.60232" lon="6.07479">
        <ele>1061.7</ele>
        <time>2020-07-12T09:11:17Z</time>
      </trkpt>
      <trkpt lat="46.60228" lon="6.07484">
        <ele>1060.7</ele>
        <time>2020-07-12T09:11:23Z</time>
      </trkpt>
      <trkpt lat="46.60225" lon="6.07489">
        <ele>1059.9</ele>
        <time>2020-07-12T09:11:28Z</time>
      </trkpt>
      <trkpt lat="46.60221" lon="6.07496">
        <ele>1059.1</ele>
        <time>2020-07-12T09:11:33Z</time>
      </trkpt>
      <trkpt lat="46.60219" lon="6.07503">
        <ele>1058.7</ele>
        <time>2020-07-12T09:11:37Z</time>
      </trkpt>
      <trkpt lat="46.60216" lon="6.0751">
        <ele>1058.2</ele>
        <time>2020-07-12T09:11:41Z</time>
      </trkpt>
      <trkpt lat="46.60213" lon="6.07515">
        <ele>1057.8</ele>
        <time>2020-07-12T09:11:45Z</time>
      </trkpt>
      <trkpt lat="46.6021" lon="6.07521">
        <ele>1057.4</ele>
        <time>2020-07-12T09:11:49Z</time>
      </trkpt>
      <trkpt lat="46.60207" lon="6.07527">
        <ele>1056.9</ele>
        <time>2020-07-12T09:11:54Z</time>
      </trkpt>
      <trkpt lat="46.60205" lon="6.07534">
        <ele>1056.3</ele>
        <time>2020-07-12T09:11:59Z</time>
      </trkpt>
      <trkpt lat="46.60201" lon="6.07538">
        <ele>1055.8</ele>
        <time>2020-07-12T09:12:03Z</time>
      </trkpt>
      <trkpt lat="46.60198" lon="6.07543">
        <ele>1055.3</ele>
        <time>2020-07-12T09:12:07Z</time>
      </trkpt>
      <trkpt lat="46.60195" lon="6.0755">
        <ele>1054.9</ele>
        <time>2020-07-12T09:12:11Z</time>
      </trkpt>
      <trkpt lat="46.60192" lon="6.07556">
        <ele>1054.4</ele>
        <time>2020-07-12T09:12:16Z</time>
      </trkpt>
      <trkpt lat="46.60189" lon="6.07562">
        <ele>1054</ele>
        <time>2020-07-12T09:12:20Z</time>
      </trkpt>
      <trkpt lat="46.60187" lon="6.07567">
        <ele>1053.6</ele>
        <time>2020-07-12T09:12:24Z</time>
      </trkpt>
      <trkpt lat="46.60183" lon="6.07573">
        <ele>1053</ele>
        <time>2020-07-12T09:12:29Z</time>
      </trkpt>
      <trkpt lat="46.6018" lon="6.07579">
        <ele>1052.7</ele>
        <time>2020-07-12T09:12:32Z</time>
      </trkpt>
      <trkpt lat="46.60177" lon="6.07584">
        <ele>1052.3</ele>
        <time>2020-07-12T09:12:36Z</time>
      </trkpt>
      <trkpt lat="46.60174" lon="6.0759">
        <ele>1051.7</ele>
        <time>2020-07-12T09:12:42Z</time>
      </trkpt>
      <trkpt lat="46.6017" lon="6.07596">
        <ele>1051.3</ele>
        <time>2020-07-12T09:12:47Z</time>
      </trkpt>
      <trkpt lat="46.60166" lon="6.076">
        <ele>1051</ele>
        <time>2020-07-12T09:12:51Z</time>
      </trkpt>
      <trkpt lat="46.60162" lon="6.07606">
        <ele>1050.8</ele>
        <time>2020-07-12T09:12:55Z</time>
      </trkpt>
      <trkpt lat="46.60159" lon="6.0761">
        <ele>1050.7</ele>
        <time>2020-07-12T09:12:59Z</time>
      </trkpt>
      <trkpt lat="46.60155" lon="6.07614">
        <ele>1050.5</ele>
        <time>2020-07-12T09:13:04Z</time>
      </trkpt>
      <trkpt lat="46.60151" lon="6.07619">
        <ele>1050.4</ele>
        <time>2020-07-12T09:13:09Z</time>
      </trkpt>
      <trkpt lat="46.60147" lon="6.07623">
        <ele>1050.3</ele>
        <time>2020-07-12T09:13:14Z</time>
      </trkpt>
      <trkpt lat="46.60142" lon="6.07627">
        <ele>1050.2</ele>
        <time>2020-07-12T09:13:19Z</time>
      </trkpt>
      <trkpt lat="46.60137" lon="6.07631">
        <ele>1049.9</ele>
        <time>2020-07-12T09:13:24Z</time>
      </trkpt>
      <trkpt lat="46.60132" lon="6.07634">
        <ele>1049.3</ele>
        <time>2020-07-12T09:13:30Z</time>
      </trkpt>
      <trkpt lat="46.60129" lon="6.0764">
        <ele>1049</ele>
        <time>2020-07-12T09:13:35Z</time>
      </trkpt>
      <trkpt lat="46.60125" lon="6.07646">
        <ele>1048.9</ele>
        <time>2020-07-12T09:13:39Z</time>
      </trkpt>
      <trkpt lat="46.60123" lon="6.07652">
        <ele>1049.1</ele>
        <time>2020-07-12T09:13:43Z</time>
      </trkpt>
      <trkpt lat="46.60121" lon="6.07658">
        <ele>1049.4</ele>
        <time>2020-07-12T09:13:47Z</time>
      </trkpt>
      <trkpt lat="46.60118" lon="6.07665">
        <ele>1049.6</ele>
        <time>2020-07-12T09:13:51Z</time>
      </trkpt>
      <trkpt lat="46.60117" lon="6.07673">
        <ele>1049.7</ele>
        <time>2020-07-12T09:13:55Z</time>
      </trkpt>
      <trkpt lat="46.60114" lon="6.0768">
        <ele>1049.9</ele>
        <time>2020-07-12T09:14:00Z</time>
      </trkpt>
      <trkpt lat="46.60113" lon="6.07686">
        <ele>1050</ele>
        <time>2020-07-12T09:14:04Z</time>
      </trkpt>
      <trkpt lat="46.60111" lon="6.07693">
        <ele>1050</ele>
        <time>2020-07-12T09:14:08Z</time>
      </trkpt>
      <trkpt lat="46.60109" lon="6.07699">
        <ele>1050</ele>
        <time>2020-07-12T09:14:12Z</time>
      </trkpt>
      <trkpt lat="46.60106" lon="6.07706">
        <ele>1050.1</ele>
        <time>2020-07-12T09:14:16Z</time>
      </trkpt>
      <trkpt lat="46.60104" lon="6.07713">
        <ele>1050.3</ele>
        <time>2020-07-12T09:14:20Z</time>
      </trkpt>
      <trkpt lat="46.60101" lon="6.07719">
        <ele>1050.5</ele>
        <time>2020-07-12T09:14:25Z</time>
      </trkpt>
      <trkpt lat="46.60098" lon="6.07726">
        <ele>1050.5</ele>
        <time>2020-07-12T09:14:30Z</time>
      </trkpt>
      <trkpt lat="46.60094" lon="6.07732">
        <ele>1050.5</ele>
        <time>2020-07-12T09:14:35Z</time>
      </trkpt>
      <trkpt lat="46.60091" lon="6.07736">
        <ele>1050.5</ele>
        <time>2020-07-12T09:14:39Z</time>
      </trkpt>
      <trkpt lat="46.60088" lon="6.07742">
        <ele>1050.6</ele>
        <time>2020-07-12T09:14:44Z</time>
      </trkpt>
      <trkpt lat="46.60084" lon="6.07747">
        <ele>1050.9</ele>
        <time>2020-07-12T09:14:49Z</time>
      </trkpt>
      <trkpt lat="46.60081" lon="6.07752">
        <ele>1051.2</ele>
        <time>2020-07-12T09:14:55Z</time>
      </trkpt>
      <trkpt lat="46.60077" lon="6.07747">
        <ele>1050.9</ele>
        <time>2020-07-12T09:15:02Z</time>
      </trkpt>
      <trkpt lat="46.60072" lon="6.07743">
        <ele>1050.6</ele>
        <time>2020-07-12T09:15:09Z</time>
      </trkpt>
      <trkpt lat="46.60068" lon="6.07737">
        <ele>1050.2</ele>
        <time>2020-07-12T09:15:15Z</time>
      </trkpt>
      <trkpt lat="46.60066" lon="6.07731">
        <ele>1049.6</ele>
        <time>2020-07-12T09:15:20Z</time>
      </trkpt>
      <trkpt lat="46.60064" lon="6.07725">
        <ele>1048.9</ele>
        <time>2020-07-12T09:15:26Z</time>
      </trkpt>
      <trkpt lat="46.60061" lon="6.0772">
        <ele>1048.3</ele>
        <time>2020-07-12T09:15:31Z</time>
      </trkpt>
      <trkpt lat="46.60057" lon="6.07714">
        <ele>1047.6</ele>
        <time>2020-07-12T09:15:36Z</time>
      </trkpt>
      <trkpt lat="46.60054" lon="6.07708">
        <ele>1047</ele>
        <time>2020-07-12T09:15:40Z</time>
      </trkpt>
      <trkpt lat="46.60051" lon="6.07702">
        <ele>1046.5</ele>
        <time>2020-07-12T09:15:45Z</time>
      </trkpt>
      <trkpt lat="46.60048" lon="6.07696">
        <ele>1046.1</ele>
        <time>2020-07-12T09:15:49Z</time>
      </trkpt>
      <trkpt lat="46.60046" lon="6.0769">
        <ele>1045.9</ele>
        <time>2020-07-12T09:15:54Z</time>
      </trkpt>
      <trkpt lat="46.60045" lon="6.07682">
        <ele>1045.9</ele>
        <time>2020-07-12T09:16:04Z</time>
      </trkpt>
      <trkpt lat="46.60043" lon="6.07676">
        <ele>1045.9</ele>
        <time>2020-07-12T09:16:08Z</time>
      </trkpt>
      <trkpt lat="46.60041" lon="6.07669">
        <ele>1045.7</ele>
        <time>2020-07-12T09:16:13Z</time>
      </trkpt>
      <trkpt lat="46.60039" lon="6.07662">
        <ele>1045.6</ele>
        <time>2020-07-12T09:16:18Z</time>
      </trkpt>
      <trkpt lat="46.60035" lon="6.07656">
        <ele>1045.5</ele>
        <time>2020-07-12T09:16:23Z</time>
      </trkpt>
      <trkpt lat="46.60031" lon="6.07652">
        <ele>1045.6</ele>
        <time>2020-07-12T09:16:27Z</time>
      </trkpt>
      <trkpt lat="46.60027" lon="6.07647">
        <ele>1045.7</ele>
        <time>2020-07-12T09:16:32Z</time>
      </trkpt>
      <trkpt lat="46.60023" lon="6.07644">
        <ele>1045.9</ele>
        <time>2020-07-12T09:16:37Z</time>
      </trkpt>
      <trkpt lat="46.60019" lon="6.0764">
        <ele>1046</ele>
        <time>2020-07-12T09:16:42Z</time>
      </trkpt>
      <trkpt lat="46.60015" lon="6.07637">
        <ele>1045.9</ele>
        <time>2020-07-12T09:16:47Z</time>
      </trkpt>
      <trkpt lat="46.6001" lon="6.07633">
        <ele>1046.1</ele>
        <time>2020-07-12T09:16:52Z</time>
      </trkpt>
      <trkpt lat="46.60006" lon="6.07629">
        <ele>1046.3</ele>
        <time>2020-07-12T09:16:57Z</time>
      </trkpt>
      <trkpt lat="46.60002" lon="6.07625">
        <ele>1046.5</ele>
        <time>2020-07-12T09:17:02Z</time>
      </trkpt>
      <trkpt lat="46.59998" lon="6.07622">
        <ele>1046.9</ele>
        <time>2020-07-12T09:17:07Z</time>
      </trkpt>
      <trkpt lat="46.59994" lon="6.07619">
        <ele>1047.5</ele>
        <time>2020-07-12T09:17:12Z</time>
      </trkpt>
      <trkpt lat="46.59989" lon="6.07616">
        <ele>1049.3</ele>
        <time>2020-07-12T09:17:20Z</time>
      </trkpt>
      <trkpt lat="46.59984" lon="6.07614">
        <ele>1050.6</ele>
        <time>2020-07-12T09:17:25Z</time>
      </trkpt>
      <trkpt lat="46.59979" lon="6.07613">
        <ele>1051.8</ele>
        <time>2020-07-12T09:17:30Z</time>
      </trkpt>
      <trkpt lat="46.59974" lon="6.0761">
        <ele>1053</ele>
        <time>2020-07-12T09:17:35Z</time>
      </trkpt>
      <trkpt lat="46.5997" lon="6.07608">
        <ele>1054.1</ele>
        <time>2020-07-12T09:17:40Z</time>
      </trkpt>
      <trkpt lat="46.59965" lon="6.07606">
        <ele>1055</ele>
        <time>2020-07-12T09:17:45Z</time>
      </trkpt>
      <trkpt lat="46.59961" lon="6.07605">
        <ele>1056</ele>
        <time>2020-07-12T09:17:50Z</time>
      </trkpt>
      <trkpt lat="46.59957" lon="6.07603">
        <ele>1057</ele>
        <time>2020-07-12T09:17:55Z</time>
      </trkpt>
      <trkpt lat="46.59952" lon="6.076">
        <ele>1058.5</ele>
        <time>2020-07-12T09:18:02Z</time>
      </trkpt>
      <trkpt lat="46.59948" lon="6.07598">
        <ele>1059.5</ele>
        <time>2020-07-12T09:18:08Z</time>
      </trkpt>
      <trkpt lat="46.59943" lon="6.07595">
        <ele>1060.3</ele>
        <time>2020-07-12T09:18:14Z</time>
      </trkpt>
      <trkpt lat="46.59939" lon="6.07593">
        <ele>1060.8</ele>
        <time>2020-07-12T09:18:18Z</time>
      </trkpt>
      <trkpt lat="46.59934" lon="6.07591">
        <ele>1061.4</ele>
        <time>2020-07-12T09:18:22Z</time>
      </trkpt>
      <trkpt lat="46.59929" lon="6.07587">
        <ele>1062.1</ele>
        <time>2020-07-12T09:18:27Z</time>
      </trkpt>
      <trkpt lat="46.59924" lon="6.07586">
        <ele>1062.6</ele>
        <time>2020-07-12T09:18:32Z</time>
      </trkpt>
      <trkpt lat="46.5992" lon="6.07584">
        <ele>1064.9</ele>
        <time>2020-07-12T09:18:46Z</time>
      </trkpt>
      <trkpt lat="46.59916" lon="6.07579">
        <ele>1066.1</ele>
        <time>2020-07-12T09:18:54Z</time>
      </trkpt>
      <trkpt lat="46.59912" lon="6.07578">
        <ele>1066.5</ele>
        <time>2020-07-12T09:19:00Z</time>
      </trkpt>
      <trkpt lat="46.59907" lon="6.07577">
        <ele>1066.6</ele>
        <time>2020-07-12T09:19:04Z</time>
      </trkpt>
      <trkpt lat="46.59902" lon="6.07576">
        <ele>1066.8</ele>
        <time>2020-07-12T09:19:09Z</time>
      </trkpt>
      <trkpt lat="46.59897" lon="6.07574">
        <ele>1067</ele>
        <time>2020-07-12T09:19:15Z</time>
      </trkpt>
      <trkpt lat="46.59892" lon="6.07573">
        <ele>1067.3</ele>
        <time>2020-07-12T09:19:19Z</time>
      </trkpt>
      <trkpt lat="46.59887" lon="6.07573">
        <ele>1067.6</ele>
        <time>2020-07-12T09:19:24Z</time>
      </trkpt>
      <trkpt lat="46.59882" lon="6.07573">
        <ele>1067.8</ele>
        <time>2020-07-12T09:19:29Z</time>
      </trkpt>
      <trkpt lat="46.59877" lon="6.07572">
        <ele>1067.9</ele>
        <time>2020-07-12T09:19:34Z</time>
      </trkpt>
      <trkpt lat="46.59872" lon="6.07573">
        <ele>1068.1</ele>
        <time>2020-07-12T09:19:39Z</time>
      </trkpt>
      <trkpt lat="46.59867" lon="6.07575">
        <ele>1068.2</ele>
        <time>2020-07-12T09:19:44Z</time>
      </trkpt>
      <trkpt lat="46.59862" lon="6.07575">
        <ele>1068.2</ele>
        <time>2020-07-12T09:19:49Z</time>
      </trkpt>
      <trkpt lat="46.59857" lon="6.07575">
        <ele>1068.2</ele>
        <time>2020-07-12T09:19:54Z</time>
      </trkpt>
      <trkpt lat="46.59851" lon="6.07573">
        <ele>1068.3</ele>
        <time>2020-07-12T09:20:00Z</time>
      </trkpt>
      <trkpt lat="46.59847" lon="6.07571">
        <ele>1068.3</ele>
        <time>2020-07-12T09:20:04Z</time>
      </trkpt>
      <trkpt lat="46.59842" lon="6.0757">
        <ele>1068.4</ele>
        <time>2020-07-12T09:20:08Z</time>
      </trkpt>
      <trkpt lat="46.59837" lon="6.07569">
        <ele>1068.5</ele>
        <time>2020-07-12T09:20:13Z</time>
      </trkpt>
      <trkpt lat="46.59832" lon="6.07569">
        <ele>1068.4</ele>
        <time>2020-07-12T09:20:18Z</time>
      </trkpt>
      <trkpt lat="46.59827" lon="6.07568">
        <ele>1068.5</ele>
        <time>2020-07-12T09:20:22Z</time>
      </trkpt>
      <trkpt lat="46.59822" lon="6.07565">
        <ele>1068.6</ele>
        <time>2020-07-12T09:20:27Z</time>
      </trkpt>
      <trkpt lat="46.59818" lon="6.07562">
        <ele>1068.6</ele>
        <time>2020-07-12T09:20:31Z</time>
      </trkpt>
      <trkpt lat="46.59813" lon="6.0756">
        <ele>1068.6</ele>
        <time>2020-07-12T09:20:35Z</time>
      </trkpt>
      <trkpt lat="46.59808" lon="6.07559">
        <ele>1068.5</ele>
        <time>2020-07-12T09:20:39Z</time>
      </trkpt>
      <trkpt lat="46.59803" lon="6.07558">
        <ele>1068.4</ele>
        <time>2020-07-12T09:20:43Z</time>
      </trkpt>
      <trkpt lat="46.59798" lon="6.07556">
        <ele>1068.5</ele>
        <time>2020-07-12T09:20:48Z</time>
      </trkpt>
      <trkpt lat="46.59793" lon="6.07555">
        <ele>1068.7</ele>
        <time>2020-07-12T09:20:53Z</time>
      </trkpt>
      <trkpt lat="46.59788" lon="6.07552">
        <ele>1068.9</ele>
        <time>2020-07-12T09:20:57Z</time>
      </trkpt>
      <trkpt lat="46.59783" lon="6.0755">
        <ele>1069.2</ele>
        <time>2020-07-12T09:21:01Z</time>
      </trkpt>
      <trkpt lat="46.59778" lon="6.07548">
        <ele>1069.6</ele>
        <time>2020-07-12T09:21:05Z</time>
      </trkpt>
      <trkpt lat="46.59774" lon="6.07546">
        <ele>1069.9</ele>
        <time>2020-07-12T09:21:09Z</time>
      </trkpt>
      <trkpt lat="46.59769" lon="6.07544">
        <ele>1070.4</ele>
        <time>2020-07-12T09:21:14Z</time>
      </trkpt>
      <trkpt lat="46.59764" lon="6.07541">
        <ele>1070.8</ele>
        <time>2020-07-12T09:21:18Z</time>
      </trkpt>
      <trkpt lat="46.59759" lon="6.07539">
        <ele>1071.2</ele>
        <time>2020-07-12T09:21:21Z</time>
      </trkpt>
      <trkpt lat="46.59754" lon="6.07536">
        <ele>1071.7</ele>
        <time>2020-07-12T09:21:25Z</time>
      </trkpt>
      <trkpt lat="46.59749" lon="6.07533">
        <ele>1072.2</ele>
        <time>2020-07-12T09:21:29Z</time>
      </trkpt>
      <trkpt lat="46.59745" lon="6.07531">
        <ele>1072.8</ele>
        <time>2020-07-12T09:21:34Z</time>
      </trkpt>
      <trkpt lat="46.5974" lon="6.07529">
        <ele>1073.6</ele>
        <time>2020-07-12T09:21:40Z</time>
      </trkpt>
      <trkpt lat="46.59735" lon="6.07527">
        <ele>1074.5</ele>
        <time>2020-07-12T09:21:46Z</time>
      </trkpt>
      <trkpt lat="46.5973" lon="6.07525">
        <ele>1075.2</ele>
        <time>2020-07-12T09:21:51Z</time>
      </trkpt>
      <trkpt lat="46.59725" lon="6.07522">
        <ele>1076</ele>
        <time>2020-07-12T09:21:55Z</time>
      </trkpt>
      <trkpt lat="46.5972" lon="6.07519">
        <ele>1076.8</ele>
        <time>2020-07-12T09:21:59Z</time>
      </trkpt>
      <trkpt lat="46.59714" lon="6.07518">
        <ele>1077.6</ele>
        <time>2020-07-12T09:22:04Z</time>
      </trkpt>
      <trkpt lat="46.5971" lon="6.07517">
        <ele>1078.2</ele>
        <time>2020-07-12T09:22:08Z</time>
      </trkpt>
      <trkpt lat="46.59705" lon="6.07513">
        <ele>1079.1</ele>
        <time>2020-07-12T09:22:13Z</time>
      </trkpt>
      <trkpt lat="46.597" lon="6.0751">
        <ele>1080.2</ele>
        <time>2020-07-12T09:22:19Z</time>
      </trkpt>
      <trkpt lat="46.59696" lon="6.07508">
        <ele>1080.9</ele>
        <time>2020-07-12T09:22:24Z</time>
      </trkpt>
      <trkpt lat="46.59691" lon="6.07505">
        <ele>1081.8</ele>
        <time>2020-07-12T09:22:29Z</time>
      </trkpt>
      <trkpt lat="46.59687" lon="6.07502">
        <ele>1082.9</ele>
        <time>2020-07-12T09:22:35Z</time>
      </trkpt>
      <trkpt lat="46.59682" lon="6.075">
        <ele>1083.5</ele>
        <time>2020-07-12T09:22:39Z</time>
      </trkpt>
      <trkpt lat="46.59678" lon="6.07497">
        <ele>1084</ele>
        <time>2020-07-12T09:22:43Z</time>
      </trkpt>
      <trkpt lat="46.59673" lon="6.07494">
        <ele>1084.6</ele>
        <time>2020-07-12T09:22:48Z</time>
      </trkpt>
      <trkpt lat="46.59668" lon="6.07493">
        <ele>1085.4</ele>
        <time>2020-07-12T09:22:55Z</time>
      </trkpt>
      <trkpt lat="46.59663" lon="6.07493">
        <ele>1086.2</ele>
        <time>2020-07-12T09:23:01Z</time>
      </trkpt>
      <trkpt lat="46.59659" lon="6.07494">
        <ele>1087.5</ele>
        <time>2020-07-12T09:23:18Z</time>
      </trkpt>
      <trkpt lat="46.59658" lon="6.07501">
        <ele>1095</ele>
        <time>2020-07-12T09:27:12Z</time>
      </trkpt>
      <trkpt lat="46.59654" lon="6.07505">
        <ele>1094.8</ele>
        <time>2020-07-12T09:27:21Z</time>
      </trkpt>
      <trkpt lat="46.59652" lon="6.07511">
        <ele>1094.9</ele>
        <time>2020-07-12T09:27:29Z</time>
      </trkpt>
      <trkpt lat="46.59648" lon="6.07517">
        <ele>1095.2</ele>
        <time>2020-07-12T09:27:39Z</time>
      </trkpt>
      <trkpt lat="46.59646" lon="6.07523">
        <ele>1095.6</ele>
        <time>2020-07-12T09:27:46Z</time>
      </trkpt>
      <trkpt lat="46.59644" lon="6.0753">
        <ele>1095.9</ele>
        <time>2020-07-12T09:27:54Z</time>
      </trkpt>
      <trkpt lat="46.59643" lon="6.07537">
        <ele>1095.8</ele>
        <time>2020-07-12T09:27:59Z</time>
      </trkpt>
      <trkpt lat="46.59638" lon="6.07548">
        <ele>1095</ele>
        <time>2020-07-12T09:28:10Z</time>
      </trkpt>
      <trkpt lat="46.59636" lon="6.07555">
        <ele>1094.1</ele>
        <time>2020-07-12T09:28:19Z</time>
      </trkpt>
      <trkpt lat="46.59633" lon="6.0756">
        <ele>1093.3</ele>
        <time>2020-07-12T09:28:25Z</time>
      </trkpt>
      <trkpt lat="46.59629" lon="6.07565">
        <ele>1092.7</ele>
        <time>2020-07-12T09:28:31Z</time>
      </trkpt>
      <trkpt lat="46.59625" lon="6.07569">
        <ele>1092.3</ele>
        <time>2020-07-12T09:28:35Z</time>
      </trkpt>
      <trkpt lat="46.59622" lon="6.07574">
        <ele>1092.1</ele>
        <time>2020-07-12T09:28:40Z</time>
      </trkpt>
      <trkpt lat="46.59619" lon="6.0758">
        <ele>1092</ele>
        <time>2020-07-12T09:28:45Z</time>
      </trkpt>
      <trkpt lat="46.59615" lon="6.07585">
        <ele>1091.9</ele>
        <time>2020-07-12T09:28:50Z</time>
      </trkpt>
      <trkpt lat="46.59612" lon="6.07591">
        <ele>1091.8</ele>
        <time>2020-07-12T09:28:54Z</time>
      </trkpt>
      <trkpt lat="46.59609" lon="6.07597">
        <ele>1091.7</ele>
        <time>2020-07-12T09:28:58Z</time>
      </trkpt>
      <trkpt lat="46.59607" lon="6.07603">
        <ele>1091.7</ele>
        <time>2020-07-12T09:29:02Z</time>
      </trkpt>
      <trkpt lat="46.59603" lon="6.07609">
        <ele>1091.9</ele>
        <time>2020-07-12T09:29:07Z</time>
      </trkpt>
      <trkpt lat="46.596" lon="6.07614">
        <ele>1092.2</ele>
        <time>2020-07-12T09:29:11Z</time>
      </trkpt>
      <trkpt lat="46.59597" lon="6.0762">
        <ele>1092.7</ele>
        <time>2020-07-12T09:29:15Z</time>
      </trkpt>
      <trkpt lat="46.59593" lon="6.07625">
        <ele>1093.4</ele>
        <time>2020-07-12T09:29:20Z</time>
      </trkpt>
      <trkpt lat="46.5959" lon="6.0763">
        <ele>1094</ele>
        <time>2020-07-12T09:29:24Z</time>
      </trkpt>
      <trkpt lat="46.59587" lon="6.07636">
        <ele>1094.8</ele>
        <time>2020-07-12T09:29:30Z</time>
      </trkpt>
      <trkpt lat="46.59584" lon="6.07641">
        <ele>1095.3</ele>
        <time>2020-07-12T09:29:35Z</time>
      </trkpt>
      <trkpt lat="46.59581" lon="6.07646">
        <ele>1095.8</ele>
        <time>2020-07-12T09:29:41Z</time>
      </trkpt>
      <trkpt lat="46.59577" lon="6.07651">
        <ele>1096.1</ele>
        <time>2020-07-12T09:29:46Z</time>
      </trkpt>
      <trkpt lat="46.59573" lon="6.07655">
        <ele>1096.3</ele>
        <time>2020-07-12T09:29:51Z</time>
      </trkpt>
      <trkpt lat="46.59569" lon="6.0766">
        <ele>1096.3</ele>
        <time>2020-07-12T09:29:57Z</time>
      </trkpt>
      <trkpt lat="46.59567" lon="6.07666">
        <ele>1096.3</ele>
        <time>2020-07-12T09:30:02Z</time>
      </trkpt>
      <trkpt lat="46.59564" lon="6.07673">
        <ele>1096.7</ele>
        <time>2020-07-12T09:30:07Z</time>
      </trkpt>
      <trkpt lat="46.59562" lon="6.0768">
        <ele>1097.1</ele>
        <time>2020-07-12T09:30:12Z</time>
      </trkpt>
      <trkpt lat="46.59559" lon="6.07686">
        <ele>1097.6</ele>
        <time>2020-07-12T09:30:16Z</time>
      </trkpt>
      <trkpt lat="46.59556" lon="6.0769">
        <ele>1098.3</ele>
        <time>2020-07-12T09:30:23Z</time>
      </trkpt>
      <trkpt lat="46.59554" lon="6.07696">
        <ele>1099.5</ele>
        <time>2020-07-12T09:30:36Z</time>
      </trkpt>
      <trkpt lat="46.59552" lon="6.07703">
        <ele>1100.6</ele>
        <time>2020-07-12T09:30:43Z</time>
      </trkpt>
      <trkpt lat="46.59551" lon="6.0771">
        <ele>1101.5</ele>
        <time>2020-07-12T09:30:49Z</time>
      </trkpt>
      <trkpt lat="46.5955" lon="6.07716">
        <ele>1102.5</ele>
        <time>2020-07-12T09:30:55Z</time>
      </trkpt>
      <trkpt lat="46.59548" lon="6.07723">
        <ele>1103.3</ele>
        <time>2020-07-12T09:30:59Z</time>
      </trkpt>
      <trkpt lat="46.59547" lon="6.07731">
        <ele>1104.1</ele>
        <time>2020-07-12T09:31:03Z</time>
      </trkpt>
      <trkpt lat="46.59546" lon="6.07737">
        <ele>1105.1</ele>
        <time>2020-07-12T09:31:08Z</time>
      </trkpt>
      <trkpt lat="46.59545" lon="6.07744">
        <ele>1106.2</ele>
        <time>2020-07-12T09:31:14Z</time>
      </trkpt>
      <trkpt lat="46.59543" lon="6.0775">
        <ele>1106.7</ele>
        <time>2020-07-12T09:31:20Z</time>
      </trkpt>
      <trkpt lat="46.5954" lon="6.07757">
        <ele>1106.8</ele>
        <time>2020-07-12T09:31:25Z</time>
      </trkpt>
      <trkpt lat="46.59537" lon="6.07763">
        <ele>1107</ele>
        <time>2020-07-12T09:31:30Z</time>
      </trkpt>
      <trkpt lat="46.59535" lon="6.07769">
        <ele>1107.2</ele>
        <time>2020-07-12T09:31:34Z</time>
      </trkpt>
      <trkpt lat="46.59533" lon="6.07775">
        <ele>1107.4</ele>
        <time>2020-07-12T09:31:39Z</time>
      </trkpt>
      <trkpt lat="46.59531" lon="6.07781">
        <ele>1107.2</ele>
        <time>2020-07-12T09:31:44Z</time>
      </trkpt>
      <trkpt lat="46.59528" lon="6.07788">
        <ele>1106.7</ele>
        <time>2020-07-12T09:31:48Z</time>
      </trkpt>
      <trkpt lat="46.59526" lon="6.07794">
        <ele>1106.2</ele>
        <time>2020-07-12T09:31:52Z</time>
      </trkpt>
      <trkpt lat="46.59524" lon="6.07801">
        <ele>1105.6</ele>
        <time>2020-07-12T09:31:56Z</time>
      </trkpt>
      <trkpt lat="46.59521" lon="6.07807">
        <ele>1105</ele>
        <time>2020-07-12T09:32:00Z</time>
      </trkpt>
      <trkpt lat="46.5952" lon="6.07814">
        <ele>1104.3</ele>
        <time>2020-07-12T09:32:06Z</time>
      </trkpt>
      <trkpt lat="46.59518" lon="6.0782">
        <ele>1104.1</ele>
        <time>2020-07-12T09:32:12Z</time>
      </trkpt>
      <trkpt lat="46.59517" lon="6.07831">
        <ele>1103.2</ele>
        <time>2020-07-12T09:32:23Z</time>
      </trkpt>
      <trkpt lat="46.59517" lon="6.07838">
        <ele>1101.8</ele>
        <time>2020-07-12T09:32:33Z</time>
      </trkpt>
      <trkpt lat="46.59518" lon="6.07845">
        <ele>1100.9</ele>
        <time>2020-07-12T09:32:39Z</time>
      </trkpt>
      <trkpt lat="46.59517" lon="6.07854">
        <ele>1099.8</ele>
        <time>2020-07-12T09:32:44Z</time>
      </trkpt>
      <trkpt lat="46.59515" lon="6.0786">
        <ele>1099.2</ele>
        <time>2020-07-12T09:32:47Z</time>
      </trkpt>
      <trkpt lat="46.59512" lon="6.07884">
        <ele>1097.1</ele>
        <time>2020-07-12T09:32:57Z</time>
      </trkpt>
      <trkpt lat="46.59499" lon="6.07899">
        <ele>1101.1</ele>
        <time>2020-07-12T09:33:32Z</time>
      </trkpt>
      <trkpt lat="46.59495" lon="6.07903">
        <ele>1101.7</ele>
        <time>2020-07-12T09:33:40Z</time>
      </trkpt>
      <trkpt lat="46.59488" lon="6.07903">
        <ele>1102</ele>
        <time>2020-07-12T09:33:43Z</time>
      </trkpt>
      <trkpt lat="46.59483" lon="6.07902">
        <ele>1102.2</ele>
        <time>2020-07-12T09:33:46Z</time>
      </trkpt>
      <trkpt lat="46.59478" lon="6.07904">
        <ele>1102.4</ele>
        <time>2020-07-12T09:33:49Z</time>
      </trkpt>
      <trkpt lat="46.59472" lon="6.07908">
        <ele>1102.6</ele>
        <time>2020-07-12T09:33:51Z</time>
      </trkpt>
      <trkpt lat="46.59468" lon="6.07911">
        <ele>1103</ele>
        <time>2020-07-12T09:33:55Z</time>
      </trkpt>
      <trkpt lat="46.59461" lon="6.07915">
        <ele>1103.8</ele>
        <time>2020-07-12T09:34:00Z</time>
      </trkpt>
      <trkpt lat="46.59456" lon="6.07917">
        <ele>1104.2</ele>
        <time>2020-07-12T09:34:03Z</time>
      </trkpt>
      <trkpt lat="46.59451" lon="6.07918">
        <ele>1105</ele>
        <time>2020-07-12T09:34:09Z</time>
      </trkpt>
      <trkpt lat="46.59444" lon="6.07918">
        <ele>1105.5</ele>
        <time>2020-07-12T09:34:13Z</time>
      </trkpt>
      <trkpt lat="46.59427" lon="6.07918">
        <ele>1107.4</ele>
        <time>2020-07-12T09:34:26Z</time>
      </trkpt>
      <trkpt lat="46.59422" lon="6.07915">
        <ele>1107.6</ele>
        <time>2020-07-12T09:34:29Z</time>
      </trkpt>
      <trkpt lat="46.59416" lon="6.07912">
        <ele>1108</ele>
        <time>2020-07-12T09:34:34Z</time>
      </trkpt>
      <trkpt lat="46.59412" lon="6.0791">
        <ele>1108.1</ele>
        <time>2020-07-12T09:34:36Z</time>
      </trkpt>
      <trkpt lat="46.59407" lon="6.07909">
        <ele>1108.5</ele>
        <time>2020-07-12T09:34:40Z</time>
      </trkpt>
      <trkpt lat="46.59402" lon="6.07908">
        <ele>1109.4</ele>
        <time>2020-07-12T09:34:47Z</time>
      </trkpt>
      <trkpt lat="46.59398" lon="6.07904">
        <ele>1109.9</ele>
        <time>2020-07-12T09:34:51Z</time>
      </trkpt>
      <trkpt lat="46.59393" lon="6.07901">
        <ele>1110.3</ele>
        <time>2020-07-12T09:34:56Z</time>
      </trkpt>
      <trkpt lat="46.59388" lon="6.07898">
        <ele>1110.6</ele>
        <time>2020-07-12T09:35:01Z</time>
      </trkpt>
      <trkpt lat="46.59384" lon="6.07898">
        <ele>1110.3</ele>
        <time>2020-07-12T09:35:07Z</time>
      </trkpt>
      <trkpt lat="46.59379" lon="6.07897">
        <ele>1109.9</ele>
        <time>2020-07-12T09:35:11Z</time>
      </trkpt>
      <trkpt lat="46.59374" lon="6.07896">
        <ele>1109.7</ele>
        <time>2020-07-12T09:35:15Z</time>
      </trkpt>
      <trkpt lat="46.59359" lon="6.07887">
        <ele>1109.4</ele>
        <time>2020-07-12T09:35:26Z</time>
      </trkpt>
      <trkpt lat="46.59356" lon="6.07882">
        <ele>1109</ele>
        <time>2020-07-12T09:35:31Z</time>
      </trkpt>
      <trkpt lat="46.59347" lon="6.07867">
        <ele>1107.1</ele>
        <time>2020-07-12T09:35:45Z</time>
      </trkpt>
      <trkpt lat="46.59343" lon="6.07858">
        <ele>1106.8</ele>
        <time>2020-07-12T09:35:48Z</time>
      </trkpt>
      <trkpt lat="46.5934" lon="6.07852">
        <ele>1106.6</ele>
        <time>2020-07-12T09:35:52Z</time>
      </trkpt>
      <trkpt lat="46.59337" lon="6.07848">
        <ele>1106.5</ele>
        <time>2020-07-12T09:35:55Z</time>
      </trkpt>
      <trkpt lat="46.59333" lon="6.07841">
        <ele>1106.3</ele>
        <time>2020-07-12T09:35:59Z</time>
      </trkpt>
      <trkpt lat="46.59331" lon="6.07835">
        <ele>1106.1</ele>
        <time>2020-07-12T09:36:03Z</time>
      </trkpt>
      <trkpt lat="46.59327" lon="6.07831">
        <ele>1105.6</ele>
        <time>2020-07-12T09:36:08Z</time>
      </trkpt>
      <trkpt lat="46.59322" lon="6.07828">
        <ele>1105.3</ele>
        <time>2020-07-12T09:36:13Z</time>
      </trkpt>
      <trkpt lat="46.59318" lon="6.07825">
        <ele>1105.3</ele>
        <time>2020-07-12T09:36:19Z</time>
      </trkpt>
      <trkpt lat="46.59314" lon="6.0782">
        <ele>1105.6</ele>
        <time>2020-07-12T09:36:25Z</time>
      </trkpt>
      <trkpt lat="46.5931" lon="6.07816">
        <ele>1105.9</ele>
        <time>2020-07-12T09:36:33Z</time>
      </trkpt>
      <trkpt lat="46.59303" lon="6.07813">
        <ele>1105.9</ele>
        <time>2020-07-12T09:36:36Z</time>
      </trkpt>
      <trkpt lat="46.59297" lon="6.07809">
        <ele>1105.7</ele>
        <time>2020-07-12T09:36:39Z</time>
      </trkpt>
      <trkpt lat="46.59292" lon="6.07808">
        <ele>1105.5</ele>
        <time>2020-07-12T09:36:41Z</time>
      </trkpt>
      <trkpt lat="46.59287" lon="6.07806">
        <ele>1105.3</ele>
        <time>2020-07-12T09:36:45Z</time>
      </trkpt>
      <trkpt lat="46.59278" lon="6.07806">
        <ele>1102.5</ele>
        <time>2020-07-12T09:37:06Z</time>
      </trkpt>
      <trkpt lat="46.59265" lon="6.07833">
        <ele>1101.1</ele>
        <time>2020-07-12T09:37:34Z</time>
      </trkpt>
      <trkpt lat="46.59264" lon="6.07843">
        <ele>1101.1</ele>
        <time>2020-07-12T09:37:36Z</time>
      </trkpt>
      <trkpt lat="46.59252" lon="6.07874">
        <ele>1100.7</ele>
        <time>2020-07-12T09:37:48Z</time>
      </trkpt>
      <trkpt lat="46.59234" lon="6.07902">
        <ele>1101.3</ele>
        <time>2020-07-12T09:38:10Z</time>
      </trkpt>
      <trkpt lat="46.59234" lon="6.07909">
        <ele>1101.6</ele>
        <time>2020-07-12T09:38:14Z</time>
      </trkpt>
      <trkpt lat="46.59237" lon="6.07924">
        <ele>1102.3</ele>
        <time>2020-07-12T09:38:26Z</time>
      </trkpt>
      <trkpt lat="46.5924" lon="6.0793">
        <ele>1102.2</ele>
        <time>2020-07-12T09:38:30Z</time>
      </trkpt>
      <trkpt lat="46.59244" lon="6.07954">
        <ele>1097.7</ele>
        <time>2020-07-12T09:39:46Z</time>
      </trkpt>
      <trkpt lat="46.59239" lon="6.07954">
        <ele>1097.2</ele>
        <time>2020-07-12T09:39:49Z</time>
      </trkpt>
      <trkpt lat="46.59237" lon="6.0798">
        <ele>1095</ele>
        <time>2020-07-12T09:40:02Z</time>
      </trkpt>
      <trkpt lat="46.59235" lon="6.08011">
        <ele>1094.5</ele>
        <time>2020-07-12T09:40:14Z</time>
      </trkpt>
      <trkpt lat="46.59234" lon="6.08023">
        <ele>1095.5</ele>
        <time>2020-07-12T09:40:25Z</time>
      </trkpt>
      <trkpt lat="46.59234" lon="6.08031">
        <ele>1095.6</ele>
        <time>2020-07-12T09:40:27Z</time>
      </trkpt>
      <trkpt lat="46.59234" lon="6.08038">
        <ele>1095.8</ele>
        <time>2020-07-12T09:40:29Z</time>
      </trkpt>
      <trkpt lat="46.59231" lon="6.08046">
        <ele>1096</ele>
        <time>2020-07-12T09:40:32Z</time>
      </trkpt>
      <trkpt lat="46.59226" lon="6.08054">
        <ele>1096.3</ele>
        <time>2020-07-12T09:40:36Z</time>
      </trkpt>
      <trkpt lat="46.59224" lon="6.0806">
        <ele>1096.7</ele>
        <time>2020-07-12T09:40:41Z</time>
      </trkpt>
      <trkpt lat="46.59222" lon="6.08073">
        <ele>1097.6</ele>
        <time>2020-07-12T09:40:49Z</time>
      </trkpt>
      <trkpt lat="46.59218" lon="6.08087">
        <ele>1098.2</ele>
        <time>2020-07-12T09:40:58Z</time>
      </trkpt>
      <trkpt lat="46.59211" lon="6.08103">
        <ele>1097.8</ele>
        <time>2020-07-12T09:41:06Z</time>
      </trkpt>
      <trkpt lat="46.59208" lon="6.08108">
        <ele>1098</ele>
        <time>2020-07-12T09:41:10Z</time>
      </trkpt>
      <trkpt lat="46.59203" lon="6.08115">
        <ele>1098.1</ele>
        <time>2020-07-12T09:41:16Z</time>
      </trkpt>
      <trkpt lat="46.59199" lon="6.0812">
        <ele>1098.1</ele>
        <time>2020-07-12T09:41:20Z</time>
      </trkpt>
      <trkpt lat="46.59196" lon="6.08127">
        <ele>1098.1</ele>
        <time>2020-07-12T09:41:23Z</time>
      </trkpt>
      <trkpt lat="46.59194" lon="6.08133">
        <ele>1098.1</ele>
        <time>2020-07-12T09:41:29Z</time>
      </trkpt>
      <trkpt lat="46.59197" lon="6.08141">
        <ele>1098.1</ele>
        <time>2020-07-12T09:41:33Z</time>
      </trkpt>
      <trkpt lat="46.59199" lon="6.0815">
        <ele>1098.1</ele>
        <time>2020-07-12T09:41:35Z</time>
      </trkpt>
      <trkpt lat="46.59202" lon="6.08165">
        <ele>1098.1</ele>
        <time>2020-07-12T09:41:45Z</time>
      </trkpt>
      <trkpt lat="46.59201" lon="6.08172">
        <ele>1098.1</ele>
        <time>2020-07-12T09:41:48Z</time>
      </trkpt>
      <trkpt lat="46.592" lon="6.08185">
        <ele>1096.7</ele>
        <time>2020-07-12T09:42:54Z</time>
      </trkpt>
      <trkpt lat="46.59202" lon="6.08192">
        <ele>1096.8</ele>
        <time>2020-07-12T09:42:58Z</time>
      </trkpt>
      <trkpt lat="46.59206" lon="6.08197">
        <ele>1097.2</ele>
        <time>2020-07-12T09:43:05Z</time>
      </trkpt>
      <trkpt lat="46.5921" lon="6.08202">
        <ele>1097.4</ele>
        <time>2020-07-12T09:43:08Z</time>
      </trkpt>
      <trkpt lat="46.59213" lon="6.08208">
        <ele>1097.5</ele>
        <time>2020-07-12T09:43:11Z</time>
      </trkpt>
      <trkpt lat="46.59215" lon="6.08214">
        <ele>1097.8</ele>
        <time>2020-07-12T09:43:16Z</time>
      </trkpt>
      <trkpt lat="46.59221" lon="6.08213">
        <ele>1099.6</ele>
        <time>2020-07-12T09:43:29Z</time>
      </trkpt>
      <trkpt lat="46.59226" lon="6.08213">
        <ele>1100.7</ele>
        <time>2020-07-12T09:43:34Z</time>
      </trkpt>
      <trkpt lat="46.59228" lon="6.0822">
        <ele>1102.1</ele>
        <time>2020-07-12T09:43:42Z</time>
      </trkpt>
      <trkpt lat="46.5923" lon="6.08226">
        <ele>1102.3</ele>
        <time>2020-07-12T09:43:44Z</time>
      </trkpt>
      <trkpt lat="46.59234" lon="6.08234">
        <ele>1102.4</ele>
        <time>2020-07-12T09:43:46Z</time>
      </trkpt>
      <trkpt lat="46.59237" lon="6.08241">
        <ele>1102.6</ele>
        <time>2020-07-12T09:43:49Z</time>
      </trkpt>
      <trkpt lat="46.5924" lon="6.08248">
        <ele>1102.7</ele>
        <time>2020-07-12T09:43:51Z</time>
      </trkpt>
      <trkpt lat="46.59243" lon="6.08254">
        <ele>1102.7</ele>
        <time>2020-07-12T09:43:54Z</time>
      </trkpt>
      <trkpt lat="46.59245" lon="6.0826">
        <ele>1102.3</ele>
        <time>2020-07-12T09:44:02Z</time>
      </trkpt>
      <trkpt lat="46.59246" lon="6.08267">
        <ele>1101.5</ele>
        <time>2020-07-12T09:44:08Z</time>
      </trkpt>
      <trkpt lat="46.59245" lon="6.08274">
        <ele>1100.7</ele>
        <time>2020-07-12T09:44:13Z</time>
      </trkpt>
      <trkpt lat="46.59245" lon="6.08281">
        <ele>1100</ele>
        <time>2020-07-12T09:44:20Z</time>
      </trkpt>
      <trkpt lat="46.59245" lon="6.08288">
        <ele>1099.5</ele>
        <time>2020-07-12T09:44:24Z</time>
      </trkpt>
      <trkpt lat="46.59246" lon="6.08298">
        <ele>1099.2</ele>
        <time>2020-07-12T09:44:27Z</time>
      </trkpt>
      <trkpt lat="46.59248" lon="6.08304">
        <ele>1098.9</ele>
        <time>2020-07-12T09:44:29Z</time>
      </trkpt>
      <trkpt lat="46.5925" lon="6.08311">
        <ele>1098.3</ele>
        <time>2020-07-12T09:44:34Z</time>
      </trkpt>
      <trkpt lat="46.59252" lon="6.08318">
        <ele>1097.7</ele>
        <time>2020-07-12T09:44:39Z</time>
      </trkpt>
      <trkpt lat="46.59252" lon="6.08325">
        <ele>1097.2</ele>
        <time>2020-07-12T09:44:44Z</time>
      </trkpt>
      <trkpt lat="46.59252" lon="6.08331">
        <ele>1096.8</ele>
        <time>2020-07-12T09:44:49Z</time>
      </trkpt>
      <trkpt lat="46.59254" lon="6.0835">
        <ele>1095.1</ele>
        <time>2020-07-12T09:45:01Z</time>
      </trkpt>
      <trkpt lat="46.59252" lon="6.08376">
        <ele>1094.1</ele>
        <time>2020-07-12T09:45:20Z</time>
      </trkpt>
      <trkpt lat="46.59255" lon="6.08381">
        <ele>1094.1</ele>
        <time>2020-07-12T09:45:25Z</time>
      </trkpt>
      <trkpt lat="46.59256" lon="6.08396">
        <ele>1094</ele>
        <time>2020-07-12T09:45:43Z</time>
      </trkpt>
      <trkpt lat="46.59251" lon="6.08409">
        <ele>1094.6</ele>
        <time>2020-07-12T09:45:52Z</time>
      </trkpt>
      <trkpt lat="46.59249" lon="6.08417">
        <ele>1094.8</ele>
        <time>2020-07-12T09:45:54Z</time>
      </trkpt>
      <trkpt lat="46.59249" lon="6.08425">
        <ele>1095.1</ele>
        <time>2020-07-12T09:45:56Z</time>
      </trkpt>
      <trkpt lat="46.59248" lon="6.08432">
        <ele>1095.4</ele>
        <time>2020-07-12T09:45:58Z</time>
      </trkpt>
      <trkpt lat="46.59246" lon="6.0844">
        <ele>1096</ele>
        <time>2020-07-12T09:46:02Z</time>
      </trkpt>
      <trkpt lat="46.59245" lon="6.08446">
        <ele>1096.7</ele>
        <time>2020-07-12T09:46:08Z</time>
      </trkpt>
      <trkpt lat="46.5924" lon="6.0845">
        <ele>1097.1</ele>
        <time>2020-07-12T09:46:13Z</time>
      </trkpt>
      <trkpt lat="46.59236" lon="6.08454">
        <ele>1097.3</ele>
        <time>2020-07-12T09:46:18Z</time>
      </trkpt>
      <trkpt lat="46.59233" lon="6.08461">
        <ele>1097.6</ele>
        <time>2020-07-12T09:46:23Z</time>
      </trkpt>
      <trkpt lat="46.59231" lon="6.08467">
        <ele>1097.9</ele>
        <time>2020-07-12T09:46:27Z</time>
      </trkpt>
      <trkpt lat="46.59228" lon="6.08472">
        <ele>1098.2</ele>
        <time>2020-07-12T09:46:33Z</time>
      </trkpt>
      <trkpt lat="46.59225" lon="6.08481">
        <ele>1098.3</ele>
        <time>2020-07-12T09:46:37Z</time>
      </trkpt>
      <trkpt lat="46.59223" lon="6.08489">
        <ele>1098.4</ele>
        <time>2020-07-12T09:46:40Z</time>
      </trkpt>
      <trkpt lat="46.59223" lon="6.08496">
        <ele>1098.8</ele>
        <time>2020-07-12T09:46:46Z</time>
      </trkpt>
      <trkpt lat="46.59222" lon="6.08504">
        <ele>1099.1</ele>
        <time>2020-07-12T09:46:53Z</time>
      </trkpt>
      <trkpt lat="46.59222" lon="6.08511">
        <ele>1099.4</ele>
        <time>2020-07-12T09:46:57Z</time>
      </trkpt>
      <trkpt lat="46.59221" lon="6.08517">
        <ele>1099.4</ele>
        <time>2020-07-12T09:47:02Z</time>
      </trkpt>
      <trkpt lat="46.59219" lon="6.08524">
        <ele>1099.2</ele>
        <time>2020-07-12T09:47:10Z</time>
      </trkpt>
      <trkpt lat="46.59218" lon="6.08531">
        <ele>1099.1</ele>
        <time>2020-07-12T09:47:16Z</time>
      </trkpt>
      <trkpt lat="46.59218" lon="6.08538">
        <ele>1099.3</ele>
        <time>2020-07-12T09:47:19Z</time>
      </trkpt>
      <trkpt lat="46.59216" lon="6.08546">
        <ele>1099.3</ele>
        <time>2020-07-12T09:47:22Z</time>
      </trkpt>
      <trkpt lat="46.59215" lon="6.08552">
        <ele>1099.4</ele>
        <time>2020-07-12T09:47:26Z</time>
      </trkpt>
      <trkpt lat="46.59214" lon="6.08559">
        <ele>1099.5</ele>
        <time>2020-07-12T09:47:31Z</time>
      </trkpt>
      <trkpt lat="46.59211" lon="6.08564">
        <ele>1099.5</ele>
        <time>2020-07-12T09:47:34Z</time>
      </trkpt>
      <trkpt lat="46.59208" lon="6.08569">
        <ele>1099.3</ele>
        <time>2020-07-12T09:47:39Z</time>
      </trkpt>
      <trkpt lat="46.59204" lon="6.08576">
        <ele>1099.3</ele>
        <time>2020-07-12T09:47:44Z</time>
      </trkpt>
      <trkpt lat="46.59203" lon="6.08585">
        <ele>1099.1</ele>
        <time>2020-07-12T09:47:47Z</time>
      </trkpt>
      <trkpt lat="46.59202" lon="6.08593">
        <ele>1099</ele>
        <time>2020-07-12T09:47:51Z</time>
      </trkpt>
      <trkpt lat="46.59201" lon="6.086">
        <ele>1098.9</ele>
        <time>2020-07-12T09:47:56Z</time>
      </trkpt>
      <trkpt lat="46.592" lon="6.08606">
        <ele>1098.3</ele>
        <time>2020-07-12T09:48:05Z</time>
      </trkpt>
      <trkpt lat="46.59198" lon="6.08614">
        <ele>1097.7</ele>
        <time>2020-07-12T09:48:11Z</time>
      </trkpt>
      <trkpt lat="46.59198" lon="6.0862">
        <ele>1097.2</ele>
        <time>2020-07-12T09:48:17Z</time>
      </trkpt>
      <trkpt lat="46.59198" lon="6.08636">
        <ele>1095.7</ele>
        <time>2020-07-12T09:48:27Z</time>
      </trkpt>
      <trkpt lat="46.59196" lon="6.08643">
        <ele>1095.7</ele>
        <time>2020-07-12T09:48:30Z</time>
      </trkpt>
      <trkpt lat="46.59193" lon="6.08649">
        <ele>1095.8</ele>
        <time>2020-07-12T09:48:34Z</time>
      </trkpt>
      <trkpt lat="46.59192" lon="6.08656">
        <ele>1096.1</ele>
        <time>2020-07-12T09:48:39Z</time>
      </trkpt>
      <trkpt lat="46.59192" lon="6.08663">
        <ele>1096.3</ele>
        <time>2020-07-12T09:48:45Z</time>
      </trkpt>
      <trkpt lat="46.59193" lon="6.0867">
        <ele>1096.3</ele>
        <time>2020-07-12T09:48:51Z</time>
      </trkpt>
      <trkpt lat="46.59192" lon="6.08679">
        <ele>1096.1</ele>
        <time>2020-07-12T09:48:57Z</time>
      </trkpt>
      <trkpt lat="46.5919" lon="6.08685">
        <ele>1095.8</ele>
        <time>2020-07-12T09:49:02Z</time>
      </trkpt>
      <trkpt lat="46.59187" lon="6.08692">
        <ele>1095.4</ele>
        <time>2020-07-12T09:49:09Z</time>
      </trkpt>
      <trkpt lat="46.59186" lon="6.08699">
        <ele>1094.8</ele>
        <time>2020-07-12T09:49:16Z</time>
      </trkpt>
      <trkpt lat="46.59186" lon="6.08707">
        <ele>1094.3</ele>
        <time>2020-07-12T09:49:19Z</time>
      </trkpt>
      <trkpt lat="46.59187" lon="6.08714">
        <ele>1094.1</ele>
        <time>2020-07-12T09:49:21Z</time>
      </trkpt>
      <trkpt lat="46.59186" lon="6.0872">
        <ele>1093.8</ele>
        <time>2020-07-12T09:49:24Z</time>
      </trkpt>
      <trkpt lat="46.59186" lon="6.08728">
        <ele>1093.5</ele>
        <time>2020-07-12T09:49:28Z</time>
      </trkpt>
      <trkpt lat="46.59185" lon="6.08735">
        <ele>1093.1</ele>
        <time>2020-07-12T09:49:32Z</time>
      </trkpt>
      <trkpt lat="46.59183" lon="6.08743">
        <ele>1092.9</ele>
        <time>2020-07-12T09:49:36Z</time>
      </trkpt>
      <trkpt lat="46.5918" lon="6.08748">
        <ele>1092.8</ele>
        <time>2020-07-12T09:49:40Z</time>
      </trkpt>
      <trkpt lat="46.59178" lon="6.08756">
        <ele>1092.7</ele>
        <time>2020-07-12T09:49:45Z</time>
      </trkpt>
      <trkpt lat="46.59176" lon="6.08763">
        <ele>1092.7</ele>
        <time>2020-07-12T09:49:49Z</time>
      </trkpt>
      <trkpt lat="46.59175" lon="6.0877">
        <ele>1092.8</ele>
        <time>2020-07-12T09:49:53Z</time>
      </trkpt>
      <trkpt lat="46.59172" lon="6.08779">
        <ele>1093</ele>
        <time>2020-07-12T09:50:01Z</time>
      </trkpt>
      <trkpt lat="46.5917" lon="6.08784">
        <ele>1093.2</ele>
        <time>2020-07-12T09:50:03Z</time>
      </trkpt>
      <trkpt lat="46.59167" lon="6.0879">
        <ele>1093.4</ele>
        <time>2020-07-12T09:50:06Z</time>
      </trkpt>
      <trkpt lat="46.59164" lon="6.08798">
        <ele>1093.9</ele>
        <time>2020-07-12T09:50:11Z</time>
      </trkpt>
      <trkpt lat="46.59161" lon="6.08803">
        <ele>1095</ele>
        <time>2020-07-12T09:50:20Z</time>
      </trkpt>
      <trkpt lat="46.59158" lon="6.08808">
        <ele>1095.5</ele>
        <time>2020-07-12T09:50:24Z</time>
      </trkpt>
      <trkpt lat="46.59153" lon="6.08814">
        <ele>1096.5</ele>
        <time>2020-07-12T09:50:31Z</time>
      </trkpt>
      <trkpt lat="46.59149" lon="6.0882">
        <ele>1096.8</ele>
        <time>2020-07-12T09:50:35Z</time>
      </trkpt>
      <trkpt lat="46.59147" lon="6.08826">
        <ele>1096.7</ele>
        <time>2020-07-12T09:50:40Z</time>
      </trkpt>
      <trkpt lat="46.59145" lon="6.08832">
        <ele>1096.1</ele>
        <time>2020-07-12T09:50:46Z</time>
      </trkpt>
      <trkpt lat="46.59142" lon="6.08838">
        <ele>1095.5</ele>
        <time>2020-07-12T09:50:51Z</time>
      </trkpt>
      <trkpt lat="46.59138" lon="6.08843">
        <ele>1094.4</ele>
        <time>2020-07-12T09:50:57Z</time>
      </trkpt>
      <trkpt lat="46.59138" lon="6.08854">
        <ele>1091.8</ele>
        <time>2020-07-12T09:51:16Z</time>
      </trkpt>
      <trkpt lat="46.59134" lon="6.08865">
        <ele>1091.2</ele>
        <time>2020-07-12T09:51:42Z</time>
      </trkpt>
      <trkpt lat="46.59135" lon="6.08874">
        <ele>1091.3</ele>
        <time>2020-07-12T09:51:45Z</time>
      </trkpt>
      <trkpt lat="46.59136" lon="6.08882">
        <ele>1091.5</ele>
        <time>2020-07-12T09:51:49Z</time>
      </trkpt>
      <trkpt lat="46.59137" lon="6.08889">
        <ele>1091.8</ele>
        <time>2020-07-12T09:51:54Z</time>
      </trkpt>
      <trkpt lat="46.59139" lon="6.08896">
        <ele>1092.1</ele>
        <time>2020-07-12T09:52:01Z</time>
      </trkpt>
      <trkpt lat="46.59141" lon="6.08902">
        <ele>1092.2</ele>
        <time>2020-07-12T09:52:06Z</time>
      </trkpt>
      <trkpt lat="46.59146" lon="6.08909">
        <ele>1092.1</ele>
        <time>2020-07-12T09:52:11Z</time>
      </trkpt>
      <trkpt lat="46.5915" lon="6.08915">
        <ele>1092.1</ele>
        <time>2020-07-12T09:52:15Z</time>
      </trkpt>
      <trkpt lat="46.59152" lon="6.08921">
        <ele>1092.1</ele>
        <time>2020-07-12T09:52:21Z</time>
      </trkpt>
      <trkpt lat="46.59153" lon="6.08929">
        <ele>1091.6</ele>
        <time>2020-07-12T09:52:35Z</time>
      </trkpt>
      <trkpt lat="46.59154" lon="6.08937">
        <ele>1091.5</ele>
        <time>2020-07-12T09:52:37Z</time>
      </trkpt>
      <trkpt lat="46.59157" lon="6.08946">
        <ele>1091.4</ele>
        <time>2020-07-12T09:52:39Z</time>
      </trkpt>
      <trkpt lat="46.59163" lon="6.08964">
        <ele>1090.9</ele>
        <time>2020-07-12T09:52:49Z</time>
      </trkpt>
      <trkpt lat="46.59166" lon="6.08969">
        <ele>1090.7</ele>
        <time>2020-07-12T09:52:53Z</time>
      </trkpt>
      <trkpt lat="46.59168" lon="6.08977">
        <ele>1090.5</ele>
        <time>2020-07-12T09:52:58Z</time>
      </trkpt>
      <trkpt lat="46.5917" lon="6.08984">
        <ele>1090.3</ele>
        <time>2020-07-12T09:53:03Z</time>
      </trkpt>
      <trkpt lat="46.59174" lon="6.08988">
        <ele>1090.1</ele>
        <time>2020-07-12T09:53:08Z</time>
      </trkpt>
      <trkpt lat="46.59178" lon="6.08993">
        <ele>1089.8</ele>
        <time>2020-07-12T09:53:13Z</time>
      </trkpt>
      <trkpt lat="46.59181" lon="6.08997">
        <ele>1089.2</ele>
        <time>2020-07-12T09:53:19Z</time>
      </trkpt>
      <trkpt lat="46.59185" lon="6.09001">
        <ele>1088.6</ele>
        <time>2020-07-12T09:53:24Z</time>
      </trkpt>
      <trkpt lat="46.59188" lon="6.09007">
        <ele>1088.2</ele>
        <time>2020-07-12T09:53:29Z</time>
      </trkpt>
      <trkpt lat="46.5919" lon="6.09013">
        <ele>1087.5</ele>
        <time>2020-07-12T09:53:35Z</time>
      </trkpt>
      <trkpt lat="46.59195" lon="6.09018">
        <ele>1085.9</ele>
        <time>2020-07-12T09:53:47Z</time>
      </trkpt>
      <trkpt lat="46.59199" lon="6.09025">
        <ele>1079.4</ele>
        <time>2020-07-12T09:55:20Z</time>
      </trkpt>
      <trkpt lat="46.59203" lon="6.09028">
        <ele>1079.7</ele>
        <time>2020-07-12T09:56:10Z</time>
      </trkpt>
      <trkpt lat="46.59208" lon="6.0903">
        <ele>1079.8</ele>
        <time>2020-07-12T09:56:14Z</time>
      </trkpt>
      <trkpt lat="46.59218" lon="6.09035">
        <ele>1077</ele>
        <time>2020-07-12T09:56:36Z</time>
      </trkpt>
      <trkpt lat="46.59223" lon="6.09037">
        <ele>1076.1</ele>
        <time>2020-07-12T09:56:42Z</time>
      </trkpt>
      <trkpt lat="46.59228" lon="6.0904">
        <ele>1075.2</ele>
        <time>2020-07-12T09:56:47Z</time>
      </trkpt>
      <trkpt lat="46.59231" lon="6.09044">
        <ele>1074.4</ele>
        <time>2020-07-12T09:56:51Z</time>
      </trkpt>
      <trkpt lat="46.59236" lon="6.09048">
        <ele>1073.5</ele>
        <time>2020-07-12T09:56:56Z</time>
      </trkpt>
      <trkpt lat="46.5924" lon="6.09052">
        <ele>1072.7</ele>
        <time>2020-07-12T09:57:01Z</time>
      </trkpt>
      <trkpt lat="46.59244" lon="6.09058">
        <ele>1072</ele>
        <time>2020-07-12T09:57:06Z</time>
      </trkpt>
      <trkpt lat="46.59246" lon="6.09064">
        <ele>1071.5</ele>
        <time>2020-07-12T09:57:11Z</time>
      </trkpt>
      <trkpt lat="46.5925" lon="6.0907">
        <ele>1071.3</ele>
        <time>2020-07-12T09:57:16Z</time>
      </trkpt>
      <trkpt lat="46.59253" lon="6.09075">
        <ele>1071.4</ele>
        <time>2020-07-12T09:57:21Z</time>
      </trkpt>
      <trkpt lat="46.59257" lon="6.09079">
        <ele>1071.4</ele>
        <time>2020-07-12T09:57:26Z</time>
      </trkpt>
      <trkpt lat="46.59261" lon="6.09083">
        <ele>1071.4</ele>
        <time>2020-07-12T09:57:30Z</time>
      </trkpt>
      <trkpt lat="46.59265" lon="6.09087">
        <ele>1071.6</ele>
        <time>2020-07-12T09:57:35Z</time>
      </trkpt>
      <trkpt lat="46.59267" lon="6.09094">
        <ele>1071.6</ele>
        <time>2020-07-12T09:57:40Z</time>
      </trkpt>
      <trkpt lat="46.59271" lon="6.09099">
        <ele>1071.8</ele>
        <time>2020-07-12T09:57:45Z</time>
      </trkpt>
      <trkpt lat="46.59275" lon="6.09103">
        <ele>1071.9</ele>
        <time>2020-07-12T09:57:49Z</time>
      </trkpt>
      <trkpt lat="46.59278" lon="6.09107">
        <ele>1072</ele>
        <time>2020-07-12T09:57:52Z</time>
      </trkpt>
      <trkpt lat="46.59282" lon="6.09113">
        <ele>1072</ele>
        <time>2020-07-12T09:57:57Z</time>
      </trkpt>
      <trkpt lat="46.59285" lon="6.09118">
        <ele>1072.2</ele>
        <time>2020-07-12T09:58:01Z</time>
      </trkpt>
      <trkpt lat="46.59287" lon="6.09125">
        <ele>1072.7</ele>
        <time>2020-07-12T09:58:07Z</time>
      </trkpt>
      <trkpt lat="46.5929" lon="6.09129">
        <ele>1073.3</ele>
        <time>2020-07-12T09:58:20Z</time>
      </trkpt>
      <trkpt lat="46.59295" lon="6.09133">
        <ele>1073.1</ele>
        <time>2020-07-12T09:58:27Z</time>
      </trkpt>
      <trkpt lat="46.59298" lon="6.09139">
        <ele>1073.2</ele>
        <time>2020-07-12T09:58:31Z</time>
      </trkpt>
      <trkpt lat="46.593" lon="6.09145">
        <ele>1073.3</ele>
        <time>2020-07-12T09:58:35Z</time>
      </trkpt>
      <trkpt lat="46.59302" lon="6.09152">
        <ele>1073.7</ele>
        <time>2020-07-12T09:58:41Z</time>
      </trkpt>
      <trkpt lat="46.59305" lon="6.09158">
        <ele>1074</ele>
        <time>2020-07-12T09:58:46Z</time>
      </trkpt>
      <trkpt lat="46.59307" lon="6.09165">
        <ele>1074.2</ele>
        <time>2020-07-12T09:58:51Z</time>
      </trkpt>
      <trkpt lat="46.5931" lon="6.09171">
        <ele>1074.4</ele>
        <time>2020-07-12T09:58:54Z</time>
      </trkpt>
      <trkpt lat="46.59312" lon="6.09179">
        <ele>1074.6</ele>
        <time>2020-07-12T09:58:57Z</time>
      </trkpt>
      <trkpt lat="46.59314" lon="6.09185">
        <ele>1074.9</ele>
        <time>2020-07-12T09:58:59Z</time>
      </trkpt>
      <trkpt lat="46.59316" lon="6.09191">
        <ele>1075.4</ele>
        <time>2020-07-12T09:59:02Z</time>
      </trkpt>
      <trkpt lat="46.59318" lon="6.09197">
        <ele>1076.4</ele>
        <time>2020-07-12T09:59:08Z</time>
      </trkpt>
      <trkpt lat="46.59318" lon="6.09205">
        <ele>1077.2</ele>
        <time>2020-07-12T09:59:13Z</time>
      </trkpt>
      <trkpt lat="46.59319" lon="6.09213">
        <ele>1078.3</ele>
        <time>2020-07-12T09:59:19Z</time>
      </trkpt>
      <trkpt lat="46.59319" lon="6.09221">
        <ele>1079.2</ele>
        <time>2020-07-12T09:59:24Z</time>
      </trkpt>
      <trkpt lat="46.5932" lon="6.09228">
        <ele>1079.7</ele>
        <time>2020-07-12T09:59:29Z</time>
      </trkpt>
      <trkpt lat="46.59321" lon="6.09234">
        <ele>1080.2</ele>
        <time>2020-07-12T09:59:34Z</time>
      </trkpt>
      <trkpt lat="46.59322" lon="6.09241">
        <ele>1080.7</ele>
        <time>2020-07-12T09:59:41Z</time>
      </trkpt>
      <trkpt lat="46.59325" lon="6.09247">
        <ele>1081.2</ele>
        <time>2020-07-12T09:59:49Z</time>
      </trkpt>
      <trkpt lat="46.59324" lon="6.09254">
        <ele>1081.1</ele>
        <time>2020-07-12T10:00:01Z</time>
      </trkpt>
      <trkpt lat="46.59327" lon="6.09261">
        <ele>1081.1</ele>
        <time>2020-07-12T10:00:08Z</time>
      </trkpt>
      <trkpt lat="46.59329" lon="6.09269">
        <ele>1081.3</ele>
        <time>2020-07-12T10:00:12Z</time>
      </trkpt>
      <trkpt lat="46.5933" lon="6.09277">
        <ele>1081.8</ele>
        <time>2020-07-12T10:00:16Z</time>
      </trkpt>
      <trkpt lat="46.59331" lon="6.09284">
        <ele>1082.4</ele>
        <time>2020-07-12T10:00:21Z</time>
      </trkpt>
      <trkpt lat="46.59333" lon="6.0929">
        <ele>1083.1</ele>
        <time>2020-07-12T10:00:25Z</time>
      </trkpt>
      <trkpt lat="46.59334" lon="6.09296">
        <ele>1083.8</ele>
        <time>2020-07-12T10:00:29Z</time>
      </trkpt>
      <trkpt lat="46.59335" lon="6.09303">
        <ele>1084.5</ele>
        <time>2020-07-12T10:00:34Z</time>
      </trkpt>
      <trkpt lat="46.59336" lon="6.09311">
        <ele>1085.1</ele>
        <time>2020-07-12T10:00:39Z</time>
      </trkpt>
      <trkpt lat="46.59337" lon="6.09319">
        <ele>1085.5</ele>
        <time>2020-07-12T10:00:43Z</time>
      </trkpt>
      <trkpt lat="46.59338" lon="6.09325">
        <ele>1086</ele>
        <time>2020-07-12T10:00:47Z</time>
      </trkpt>
      <trkpt lat="46.59339" lon="6.09332">
        <ele>1086.5</ele>
        <time>2020-07-12T10:00:52Z</time>
      </trkpt>
      <trkpt lat="46.59338" lon="6.0934">
        <ele>1087</ele>
        <time>2020-07-12T10:00:58Z</time>
      </trkpt>
      <trkpt lat="46.59336" lon="6.09347">
        <ele>1087.1</ele>
        <time>2020-07-12T10:01:02Z</time>
      </trkpt>
      <trkpt lat="46.59333" lon="6.09353">
        <ele>1086.9</ele>
        <time>2020-07-12T10:01:09Z</time>
      </trkpt>
      <trkpt lat="46.5933" lon="6.09359">
        <ele>1086.6</ele>
        <time>2020-07-12T10:01:15Z</time>
      </trkpt>
      <trkpt lat="46.59328" lon="6.09365">
        <ele>1085.9</ele>
        <time>2020-07-12T10:01:25Z</time>
      </trkpt>
      <trkpt lat="46.59327" lon="6.09372">
        <ele>1085.6</ele>
        <time>2020-07-12T10:01:34Z</time>
      </trkpt>
      <trkpt lat="46.59328" lon="6.0938">
        <ele>1085.5</ele>
        <time>2020-07-12T10:01:39Z</time>
      </trkpt>
      <trkpt lat="46.59328" lon="6.09387">
        <ele>1085.5</ele>
        <time>2020-07-12T10:01:43Z</time>
      </trkpt>
      <trkpt lat="46.59328" lon="6.09394">
        <ele>1085.4</ele>
        <time>2020-07-12T10:01:48Z</time>
      </trkpt>
      <trkpt lat="46.59326" lon="6.09401">
        <ele>1085.4</ele>
        <time>2020-07-12T10:01:54Z</time>
      </trkpt>
      <trkpt lat="46.59324" lon="6.09407">
        <ele>1085.4</ele>
        <time>2020-07-12T10:01:58Z</time>
      </trkpt>
      <trkpt lat="46.59322" lon="6.09415">
        <ele>1085.6</ele>
        <time>2020-07-12T10:02:03Z</time>
      </trkpt>
      <trkpt lat="46.59321" lon="6.09422">
        <ele>1085.7</ele>
        <time>2020-07-12T10:02:07Z</time>
      </trkpt>
      <trkpt lat="46.5932" lon="6.09429">
        <ele>1085.6</ele>
        <time>2020-07-12T10:02:11Z</time>
      </trkpt>
      <trkpt lat="46.59318" lon="6.09436">
        <ele>1085.7</ele>
        <time>2020-07-12T10:02:16Z</time>
      </trkpt>
      <trkpt lat="46.59316" lon="6.09443">
        <ele>1085.9</ele>
        <time>2020-07-12T10:02:21Z</time>
      </trkpt>
      <trkpt lat="46.59315" lon="6.09449">
        <ele>1086.3</ele>
        <time>2020-07-12T10:02:26Z</time>
      </trkpt>
      <trkpt lat="46.59314" lon="6.09457">
        <ele>1086.5</ele>
        <time>2020-07-12T10:02:31Z</time>
      </trkpt>
      <trkpt lat="46.59312" lon="6.09463">
        <ele>1086.8</ele>
        <time>2020-07-12T10:02:36Z</time>
      </trkpt>
      <trkpt lat="46.5931" lon="6.0947">
        <ele>1087.1</ele>
        <time>2020-07-12T10:02:41Z</time>
      </trkpt>
      <trkpt lat="46.59306" lon="6.09475">
        <ele>1087.3</ele>
        <time>2020-07-12T10:02:47Z</time>
      </trkpt>
      <trkpt lat="46.59301" lon="6.09478">
        <ele>1087.3</ele>
        <time>2020-07-12T10:02:52Z</time>
      </trkpt>
      <trkpt lat="46.59297" lon="6.09482">
        <ele>1087.1</ele>
        <time>2020-07-12T10:02:59Z</time>
      </trkpt>
      <trkpt lat="46.59294" lon="6.09487">
        <ele>1086.9</ele>
        <time>2020-07-12T10:03:06Z</time>
      </trkpt>
      <trkpt lat="46.59292" lon="6.09494">
        <ele>1086.9</ele>
        <time>2020-07-12T10:03:14Z</time>
      </trkpt>
      <trkpt lat="46.59291" lon="6.09501">
        <ele>1087</ele>
        <time>2020-07-12T10:03:18Z</time>
      </trkpt>
      <trkpt lat="46.5929" lon="6.09507">
        <ele>1087.1</ele>
        <time>2020-07-12T10:03:25Z</time>
      </trkpt>
      <trkpt lat="46.5929" lon="6.09517">
        <ele>1086.6</ele>
        <time>2020-07-12T10:04:13Z</time>
      </trkpt>
      <trkpt lat="46.59294" lon="6.09518">
        <ele>1086.6</ele>
        <time>2020-07-12T10:04:17Z</time>
      </trkpt>
      <trkpt lat="46.59299" lon="6.09515">
        <ele>1086.6</ele>
        <time>2020-07-12T10:04:20Z</time>
      </trkpt>
      <trkpt lat="46.593" lon="6.09508">
        <ele>1086.4</ele>
        <time>2020-07-12T10:04:26Z</time>
      </trkpt>
      <trkpt lat="46.593" lon="6.09517">
        <ele>1086</ele>
        <time>2020-07-12T10:56:48Z</time>
      </trkpt>
      <trkpt lat="46.59301" lon="6.09524">
        <ele>1085.4</ele>
        <time>2020-07-12T10:56:52Z</time>
      </trkpt>
      <trkpt lat="46.59302" lon="6.09531">
        <ele>1084.5</ele>
        <time>2020-07-12T10:56:58Z</time>
      </trkpt>
      <trkpt lat="46.59301" lon="6.09538">
        <ele>1083.6</ele>
        <time>2020-07-12T10:57:05Z</time>
      </trkpt>
      <trkpt lat="46.59287" lon="6.09541">
        <ele>1081.9</ele>
        <time>2020-07-12T10:57:20Z</time>
      </trkpt>
      <trkpt lat="46.59281" lon="6.09539">
        <ele>1081.8</ele>
        <time>2020-07-12T10:57:23Z</time>
      </trkpt>
      <trkpt lat="46.59278" lon="6.09534">
        <ele>1081.8</ele>
        <time>2020-07-12T10:57:28Z</time>
      </trkpt>
      <trkpt lat="46.59281" lon="6.09538">
        <ele>1083.9</ele>
        <time>2020-07-12T10:58:13Z</time>
      </trkpt>
      <trkpt lat="46.59286" lon="6.09551">
        <ele>1085.7</ele>
        <time>2020-07-12T10:58:32Z</time>
      </trkpt>
      <trkpt lat="46.59288" lon="6.09558">
        <ele>1085.4</ele>
        <time>2020-07-12T10:58:38Z</time>
      </trkpt>
      <trkpt lat="46.59289" lon="6.09566">
        <ele>1084.8</ele>
        <time>2020-07-12T10:58:46Z</time>
      </trkpt>
      <trkpt lat="46.59288" lon="6.09573">
        <ele>1084.5</ele>
        <time>2020-07-12T10:58:53Z</time>
      </trkpt>
      <trkpt lat="46.59277" lon="6.09587">
        <ele>1084.5</ele>
        <time>2020-07-12T10:59:10Z</time>
      </trkpt>
      <trkpt lat="46.59274" lon="6.09593">
        <ele>1084.5</ele>
        <time>2020-07-12T10:59:16Z</time>
      </trkpt>
      <trkpt lat="46.59271" lon="6.09599">
        <ele>1084.7</ele>
        <time>2020-07-12T10:59:20Z</time>
      </trkpt>
      <trkpt lat="46.5927" lon="6.09607">
        <ele>1085</ele>
        <time>2020-07-12T10:59:25Z</time>
      </trkpt>
      <trkpt lat="46.59268" lon="6.09614">
        <ele>1085.1</ele>
        <time>2020-07-12T10:59:31Z</time>
      </trkpt>
      <trkpt lat="46.59265" lon="6.0962">
        <ele>1084.9</ele>
        <time>2020-07-12T10:59:37Z</time>
      </trkpt>
      <trkpt lat="46.59261" lon="6.09624">
        <ele>1084.6</ele>
        <time>2020-07-12T10:59:42Z</time>
      </trkpt>
      <trkpt lat="46.59257" lon="6.09628">
        <ele>1084.4</ele>
        <time>2020-07-12T10:59:45Z</time>
      </trkpt>
      <trkpt lat="46.59253" lon="6.09631">
        <ele>1084.2</ele>
        <time>2020-07-12T10:59:48Z</time>
      </trkpt>
      <trkpt lat="46.59249" lon="6.09636">
        <ele>1084</ele>
        <time>2020-07-12T10:59:51Z</time>
      </trkpt>
      <trkpt lat="46.59245" lon="6.09639">
        <ele>1083.8</ele>
        <time>2020-07-12T10:59:54Z</time>
      </trkpt>
      <trkpt lat="46.5924" lon="6.09641">
        <ele>1083.5</ele>
        <time>2020-07-12T11:00:00Z</time>
      </trkpt>
      <trkpt lat="46.59236" lon="6.09646">
        <ele>1083.3</ele>
        <time>2020-07-12T11:00:06Z</time>
      </trkpt>
      <trkpt lat="46.59234" lon="6.09653">
        <ele>1083.1</ele>
        <time>2020-07-12T11:00:11Z</time>
      </trkpt>
      <trkpt lat="46.59231" lon="6.09659">
        <ele>1083.1</ele>
        <time>2020-07-12T11:00:16Z</time>
      </trkpt>
      <trkpt lat="46.59228" lon="6.09663">
        <ele>1083.4</ele>
        <time>2020-07-12T11:00:21Z</time>
      </trkpt>
      <trkpt lat="46.59223" lon="6.09668">
        <ele>1083.8</ele>
        <time>2020-07-12T11:00:26Z</time>
      </trkpt>
      <trkpt lat="46.59219" lon="6.09671">
        <ele>1083.9</ele>
        <time>2020-07-12T11:00:30Z</time>
      </trkpt>
      <trkpt lat="46.59214" lon="6.09674">
        <ele>1084.2</ele>
        <time>2020-07-12T11:00:36Z</time>
      </trkpt>
      <trkpt lat="46.59209" lon="6.09676">
        <ele>1084.4</ele>
        <time>2020-07-12T11:00:42Z</time>
      </trkpt>
      <trkpt lat="46.59205" lon="6.0968">
        <ele>1084.4</ele>
        <time>2020-07-12T11:00:47Z</time>
      </trkpt>
      <trkpt lat="46.59202" lon="6.09686">
        <ele>1084.4</ele>
        <time>2020-07-12T11:00:51Z</time>
      </trkpt>
      <trkpt lat="46.59198" lon="6.09691">
        <ele>1084.1</ele>
        <time>2020-07-12T11:00:56Z</time>
      </trkpt>
      <trkpt lat="46.59195" lon="6.09697">
        <ele>1083.8</ele>
        <time>2020-07-12T11:01:01Z</time>
      </trkpt>
      <trkpt lat="46.59193" lon="6.09703">
        <ele>1083.4</ele>
        <time>2020-07-12T11:01:05Z</time>
      </trkpt>
      <trkpt lat="46.5919" lon="6.09709">
        <ele>1083</ele>
        <time>2020-07-12T11:01:10Z</time>
      </trkpt>
      <trkpt lat="46.59187" lon="6.09715">
        <ele>1082.2</ele>
        <time>2020-07-12T11:01:15Z</time>
      </trkpt>
      <trkpt lat="46.59184" lon="6.09722">
        <ele>1081.2</ele>
        <time>2020-07-12T11:01:24Z</time>
      </trkpt>
      <trkpt lat="46.5918" lon="6.09722">
        <ele>1078.9</ele>
        <time>2020-07-12T11:01:49Z</time>
      </trkpt>
      <trkpt lat="46.59177" lon="6.09727">
        <ele>1078.4</ele>
        <time>2020-07-12T11:01:53Z</time>
      </trkpt>
      <trkpt lat="46.59175" lon="6.09733">
        <ele>1078.1</ele>
        <time>2020-07-12T11:01:59Z</time>
      </trkpt>
      <trkpt lat="46.59173" lon="6.09741">
        <ele>1078.2</ele>
        <time>2020-07-12T11:02:02Z</time>
      </trkpt>
      <trkpt lat="46.59172" lon="6.09747">
        <ele>1078.6</ele>
        <time>2020-07-12T11:02:05Z</time>
      </trkpt>
      <trkpt lat="46.5917" lon="6.09754">
        <ele>1079.3</ele>
        <time>2020-07-12T11:02:10Z</time>
      </trkpt>
      <trkpt lat="46.59169" lon="6.09761">
        <ele>1080.1</ele>
        <time>2020-07-12T11:02:14Z</time>
      </trkpt>
      <trkpt lat="46.59164" lon="6.09765">
        <ele>1081.2</ele>
        <time>2020-07-12T11:02:19Z</time>
      </trkpt>
      <trkpt lat="46.59161" lon="6.09768">
        <ele>1081.9</ele>
        <time>2020-07-12T11:02:24Z</time>
      </trkpt>
      <trkpt lat="46.59157" lon="6.09774">
        <ele>1082.8</ele>
        <time>2020-07-12T11:02:30Z</time>
      </trkpt>
      <trkpt lat="46.59154" lon="6.09779">
        <ele>1083.5</ele>
        <time>2020-07-12T11:02:35Z</time>
      </trkpt>
      <trkpt lat="46.59151" lon="6.09784">
        <ele>1084.1</ele>
        <time>2020-07-12T11:02:39Z</time>
      </trkpt>
      <trkpt lat="46.59148" lon="6.0979">
        <ele>1084.7</ele>
        <time>2020-07-12T11:02:45Z</time>
      </trkpt>
      <trkpt lat="46.59145" lon="6.09796">
        <ele>1085.4</ele>
        <time>2020-07-12T11:02:53Z</time>
      </trkpt>
      <trkpt lat="46.59141" lon="6.098">
        <ele>1085.7</ele>
        <time>2020-07-12T11:02:58Z</time>
      </trkpt>
      <trkpt lat="46.59137" lon="6.09805">
        <ele>1086.1</ele>
        <time>2020-07-12T11:03:03Z</time>
      </trkpt>
      <trkpt lat="46.59133" lon="6.0981">
        <ele>1086.1</ele>
        <time>2020-07-12T11:03:10Z</time>
      </trkpt>
      <trkpt lat="46.59129" lon="6.09815">
        <ele>1086.2</ele>
        <time>2020-07-12T11:03:20Z</time>
      </trkpt>
      <trkpt lat="46.59126" lon="6.09819">
        <ele>1086</ele>
        <time>2020-07-12T11:03:26Z</time>
      </trkpt>
      <trkpt lat="46.59122" lon="6.09823">
        <ele>1085.5</ele>
        <time>2020-07-12T11:03:31Z</time>
      </trkpt>
      <trkpt lat="46.59118" lon="6.09827">
        <ele>1085.1</ele>
        <time>2020-07-12T11:03:35Z</time>
      </trkpt>
      <trkpt lat="46.59114" lon="6.09833">
        <ele>1084.8</ele>
        <time>2020-07-12T11:03:38Z</time>
      </trkpt>
      <trkpt lat="46.59109" lon="6.09836">
        <ele>1084.5</ele>
        <time>2020-07-12T11:03:40Z</time>
      </trkpt>
      <trkpt lat="46.59106" lon="6.09842">
        <ele>1084.1</ele>
        <time>2020-07-12T11:03:44Z</time>
      </trkpt>
      <trkpt lat="46.59104" lon="6.0985">
        <ele>1083.8</ele>
        <time>2020-07-12T11:03:47Z</time>
      </trkpt>
      <trkpt lat="46.59102" lon="6.09856">
        <ele>1083.8</ele>
        <time>2020-07-12T11:03:49Z</time>
      </trkpt>
      <trkpt lat="46.591" lon="6.09864">
        <ele>1083.8</ele>
        <time>2020-07-12T11:03:52Z</time>
      </trkpt>
      <trkpt lat="46.59099" lon="6.09872">
        <ele>1084.1</ele>
        <time>2020-07-12T11:03:56Z</time>
      </trkpt>
      <trkpt lat="46.59098" lon="6.09879">
        <ele>1084.4</ele>
        <time>2020-07-12T11:04:00Z</time>
      </trkpt>
      <trkpt lat="46.59099" lon="6.09887">
        <ele>1084.9</ele>
        <time>2020-07-12T11:04:04Z</time>
      </trkpt>
      <trkpt lat="46.59101" lon="6.09893">
        <ele>1085.4</ele>
        <time>2020-07-12T11:04:09Z</time>
      </trkpt>
      <trkpt lat="46.59104" lon="6.09899">
        <ele>1086.1</ele>
        <time>2020-07-12T11:04:17Z</time>
      </trkpt>
      <trkpt lat="46.59104" lon="6.09906">
        <ele>1086.8</ele>
        <time>2020-07-12T11:04:23Z</time>
      </trkpt>
      <trkpt lat="46.59105" lon="6.09913">
        <ele>1087.3</ele>
        <time>2020-07-12T11:04:26Z</time>
      </trkpt>
      <trkpt lat="46.59106" lon="6.09921">
        <ele>1088.1</ele>
        <time>2020-07-12T11:04:31Z</time>
      </trkpt>
      <trkpt lat="46.59108" lon="6.09927">
        <ele>1088.9</ele>
        <time>2020-07-12T11:04:36Z</time>
      </trkpt>
      <trkpt lat="46.5911" lon="6.09933">
        <ele>1089.6</ele>
        <time>2020-07-12T11:04:42Z</time>
      </trkpt>
      <trkpt lat="46.59114" lon="6.09938">
        <ele>1090.2</ele>
        <time>2020-07-12T11:04:48Z</time>
      </trkpt>
      <trkpt lat="46.59117" lon="6.09943">
        <ele>1090.6</ele>
        <time>2020-07-12T11:04:53Z</time>
      </trkpt>
      <trkpt lat="46.59119" lon="6.0995">
        <ele>1090.7</ele>
        <time>2020-07-12T11:04:56Z</time>
      </trkpt>
      <trkpt lat="46.59123" lon="6.09958">
        <ele>1090.8</ele>
        <time>2020-07-12T11:05:00Z</time>
      </trkpt>
      <trkpt lat="46.59129" lon="6.09976">
        <ele>1093.7</ele>
        <time>2020-07-12T11:05:12Z</time>
      </trkpt>
      <trkpt lat="46.59132" lon="6.09982">
        <ele>1094</ele>
        <time>2020-07-12T11:05:16Z</time>
      </trkpt>
      <trkpt lat="46.59134" lon="6.09988">
        <ele>1094.4</ele>
        <time>2020-07-12T11:05:20Z</time>
      </trkpt>
      <trkpt lat="46.59137" lon="6.09994">
        <ele>1094.7</ele>
        <time>2020-07-12T11:05:25Z</time>
      </trkpt>
      <trkpt lat="46.5914" lon="6.10001">
        <ele>1095</ele>
        <time>2020-07-12T11:05:33Z</time>
      </trkpt>
      <trkpt lat="46.59142" lon="6.10009">
        <ele>1094.9</ele>
        <time>2020-07-12T11:05:37Z</time>
      </trkpt>
      <trkpt lat="46.59143" lon="6.10017">
        <ele>1094.8</ele>
        <time>2020-07-12T11:05:41Z</time>
      </trkpt>
      <trkpt lat="46.59143" lon="6.10025">
        <ele>1094.9</ele>
        <time>2020-07-12T11:05:45Z</time>
      </trkpt>
      <trkpt lat="46.59142" lon="6.10031">
        <ele>1095.3</ele>
        <time>2020-07-12T11:05:49Z</time>
      </trkpt>
      <trkpt lat="46.59139" lon="6.10038">
        <ele>1096</ele>
        <time>2020-07-12T11:05:53Z</time>
      </trkpt>
      <trkpt lat="46.59137" lon="6.10043">
        <ele>1096.5</ele>
        <time>2020-07-12T11:05:57Z</time>
      </trkpt>
      <trkpt lat="46.59134" lon="6.10049">
        <ele>1096.9</ele>
        <time>2020-07-12T11:06:01Z</time>
      </trkpt>
      <trkpt lat="46.59131" lon="6.10055">
        <ele>1097.2</ele>
        <time>2020-07-12T11:06:05Z</time>
      </trkpt>
      <trkpt lat="46.59129" lon="6.10061">
        <ele>1097.2</ele>
        <time>2020-07-12T11:06:10Z</time>
      </trkpt>
      <trkpt lat="46.59126" lon="6.10067">
        <ele>1096.7</ele>
        <time>2020-07-12T11:06:16Z</time>
      </trkpt>
      <trkpt lat="46.59123" lon="6.10072">
        <ele>1095.4</ele>
        <time>2020-07-12T11:06:24Z</time>
      </trkpt>
      <trkpt lat="46.59122" lon="6.10079">
        <ele>1093.3</ele>
        <time>2020-07-12T11:06:37Z</time>
      </trkpt>
      <trkpt lat="46.59117" lon="6.1008">
        <ele>1091.8</ele>
        <time>2020-07-12T11:06:45Z</time>
      </trkpt>
      <trkpt lat="46.59112" lon="6.10084">
        <ele>1088.4</ele>
        <time>2020-07-12T11:06:56Z</time>
      </trkpt>
      <trkpt lat="46.5911" lon="6.10092">
        <ele>1087.7</ele>
        <time>2020-07-12T11:06:59Z</time>
      </trkpt>
      <trkpt lat="46.59106" lon="6.10099">
        <ele>1087</ele>
        <time>2020-07-12T11:07:02Z</time>
      </trkpt>
      <trkpt lat="46.59104" lon="6.10105">
        <ele>1086.4</ele>
        <time>2020-07-12T11:07:05Z</time>
      </trkpt>
      <trkpt lat="46.59103" lon="6.10112">
        <ele>1085.4</ele>
        <time>2020-07-12T11:07:10Z</time>
      </trkpt>
      <trkpt lat="46.591" lon="6.10118">
        <ele>1085.1</ele>
        <time>2020-07-12T11:07:13Z</time>
      </trkpt>
      <trkpt lat="46.59098" lon="6.10125">
        <ele>1084.8</ele>
        <time>2020-07-12T11:07:19Z</time>
      </trkpt>
      <trkpt lat="46.59097" lon="6.10132">
        <ele>1084.7</ele>
        <time>2020-07-12T11:07:23Z</time>
      </trkpt>
      <trkpt lat="46.59096" lon="6.1014">
        <ele>1084.8</ele>
        <time>2020-07-12T11:07:26Z</time>
      </trkpt>
      <trkpt lat="46.59094" lon="6.10149">
        <ele>1085</ele>
        <time>2020-07-12T11:07:30Z</time>
      </trkpt>
      <trkpt lat="46.59094" lon="6.10158">
        <ele>1085.2</ele>
        <time>2020-07-12T11:07:32Z</time>
      </trkpt>
      <trkpt lat="46.59092" lon="6.10164">
        <ele>1085.3</ele>
        <time>2020-07-12T11:07:34Z</time>
      </trkpt>
      <trkpt lat="46.59089" lon="6.1017">
        <ele>1085.7</ele>
        <time>2020-07-12T11:07:39Z</time>
      </trkpt>
      <trkpt lat="46.59085" lon="6.10175">
        <ele>1086.9</ele>
        <time>2020-07-12T11:07:49Z</time>
      </trkpt>
      <trkpt lat="46.59081" lon="6.10179">
        <ele>1087.9</ele>
        <time>2020-07-12T11:07:53Z</time>
      </trkpt>
      <trkpt lat="46.59077" lon="6.10182">
        <ele>1089.4</ele>
        <time>2020-07-12T11:07:59Z</time>
      </trkpt>
      <trkpt lat="46.59073" lon="6.10188">
        <ele>1090.9</ele>
        <time>2020-07-12T11:08:05Z</time>
      </trkpt>
      <trkpt lat="46.59067" lon="6.10191">
        <ele>1091.6</ele>
        <time>2020-07-12T11:08:08Z</time>
      </trkpt>
      <trkpt lat="46.59061" lon="6.10192">
        <ele>1092.4</ele>
        <time>2020-07-12T11:08:11Z</time>
      </trkpt>
      <trkpt lat="46.59047" lon="6.10192">
        <ele>1100</ele>
        <time>2020-07-12T11:08:38Z</time>
      </trkpt>
      <trkpt lat="46.59041" lon="6.10194">
        <ele>1101.3</ele>
        <time>2020-07-12T11:08:44Z</time>
      </trkpt>
      <trkpt lat="46.59036" lon="6.10194">
        <ele>1101.7</ele>
        <time>2020-07-12T11:08:46Z</time>
      </trkpt>
      <trkpt lat="46.59023" lon="6.10203">
        <ele>1102.6</ele>
        <time>2020-07-12T11:09:04Z</time>
      </trkpt>
      <trkpt lat="46.59017" lon="6.10206">
        <ele>1102.6</ele>
        <time>2020-07-12T11:09:06Z</time>
      </trkpt>
      <trkpt lat="46.59012" lon="6.10209">
        <ele>1102.6</ele>
        <time>2020-07-12T11:09:09Z</time>
      </trkpt>
      <trkpt lat="46.59008" lon="6.10208">
        <ele>1103</ele>
        <time>2020-07-12T11:09:16Z</time>
      </trkpt>
      <trkpt lat="46.58998" lon="6.10189">
        <ele>1092.4</ele>
        <time>2020-07-12T11:15:54Z</time>
      </trkpt>
      <trkpt lat="46.58997" lon="6.10202">
        <ele>1091.4</ele>
        <time>2020-07-12T11:16:21Z</time>
      </trkpt>
      <trkpt lat="46.58996" lon="6.10211">
        <ele>1091.4</ele>
        <time>2020-07-12T11:16:24Z</time>
      </trkpt>
      <trkpt lat="46.58995" lon="6.10219">
        <ele>1091.5</ele>
        <time>2020-07-12T11:16:29Z</time>
      </trkpt>
      <trkpt lat="46.58994" lon="6.10226">
        <ele>1091.6</ele>
        <time>2020-07-12T11:16:33Z</time>
      </trkpt>
      <trkpt lat="46.58992" lon="6.10233">
        <ele>1091.7</ele>
        <time>2020-07-12T11:16:37Z</time>
      </trkpt>
      <trkpt lat="46.58989" lon="6.10239">
        <ele>1091.7</ele>
        <time>2020-07-12T11:16:41Z</time>
      </trkpt>
      <trkpt lat="46.58986" lon="6.10244">
        <ele>1091.5</ele>
        <time>2020-07-12T11:16:45Z</time>
      </trkpt>
      <trkpt lat="46.58983" lon="6.1025">
        <ele>1091.4</ele>
        <time>2020-07-12T11:16:51Z</time>
      </trkpt>
      <trkpt lat="46.58979" lon="6.10256">
        <ele>1091.3</ele>
        <time>2020-07-12T11:16:57Z</time>
      </trkpt>
      <trkpt lat="46.58977" lon="6.10262">
        <ele>1091.5</ele>
        <time>2020-07-12T11:17:02Z</time>
      </trkpt>
      <trkpt lat="46.58976" lon="6.1027">
        <ele>1091.7</ele>
        <time>2020-07-12T11:17:07Z</time>
      </trkpt>
      <trkpt lat="46.58974" lon="6.10277">
        <ele>1092.2</ele>
        <time>2020-07-12T11:17:12Z</time>
      </trkpt>
      <trkpt lat="46.58972" lon="6.10284">
        <ele>1092.9</ele>
        <time>2020-07-12T11:17:17Z</time>
      </trkpt>
      <trkpt lat="46.58968" lon="6.10289">
        <ele>1093.6</ele>
        <time>2020-07-12T11:17:22Z</time>
      </trkpt>
      <trkpt lat="46.58964" lon="6.10293">
        <ele>1093.5</ele>
        <time>2020-07-12T11:17:27Z</time>
      </trkpt>
      <trkpt lat="46.58963" lon="6.10301">
        <ele>1092.5</ele>
        <time>2020-07-12T11:17:33Z</time>
      </trkpt>
      <trkpt lat="46.58962" lon="6.10309">
        <ele>1092</ele>
        <time>2020-07-12T11:17:36Z</time>
      </trkpt>
      <trkpt lat="46.58959" lon="6.10314">
        <ele>1089.5</ele>
        <time>2020-07-12T11:17:56Z</time>
      </trkpt>
      <trkpt lat="46.58954" lon="6.10316">
        <ele>1087.8</ele>
        <time>2020-07-12T11:18:01Z</time>
      </trkpt>
      <trkpt lat="46.5895" lon="6.10321">
        <ele>1086.1</ele>
        <time>2020-07-12T11:18:06Z</time>
      </trkpt>
      <trkpt lat="46.58949" lon="6.10327">
        <ele>1084.6</ele>
        <time>2020-07-12T11:18:11Z</time>
      </trkpt>
      <trkpt lat="46.58948" lon="6.10335">
        <ele>1083.6</ele>
        <time>2020-07-12T11:18:16Z</time>
      </trkpt>
      <trkpt lat="46.58945" lon="6.10341">
        <ele>1083.6</ele>
        <time>2020-07-12T11:18:26Z</time>
      </trkpt>
      <trkpt lat="46.58945" lon="6.10348">
        <ele>1084.4</ele>
        <time>2020-07-12T11:18:35Z</time>
      </trkpt>
      <trkpt lat="46.58947" lon="6.10356">
        <ele>1085</ele>
        <time>2020-07-12T11:18:39Z</time>
      </trkpt>
      <trkpt lat="46.5895" lon="6.10362">
        <ele>1085.4</ele>
        <time>2020-07-12T11:18:42Z</time>
      </trkpt>
      <trkpt lat="46.58953" lon="6.10367">
        <ele>1085.9</ele>
        <time>2020-07-12T11:18:46Z</time>
      </trkpt>
      <trkpt lat="46.58957" lon="6.10371">
        <ele>1086.5</ele>
        <time>2020-07-12T11:18:50Z</time>
      </trkpt>
      <trkpt lat="46.58961" lon="6.10376">
        <ele>1089.4</ele>
        <time>2020-07-12T11:19:16Z</time>
      </trkpt>
      <trkpt lat="46.58965" lon="6.10379">
        <ele>1090</ele>
        <time>2020-07-12T11:19:21Z</time>
      </trkpt>
      <trkpt lat="46.58969" lon="6.10384">
        <ele>1090.6</ele>
        <time>2020-07-12T11:19:24Z</time>
      </trkpt>
      <trkpt lat="46.58973" lon="6.10388">
        <ele>1091.1</ele>
        <time>2020-07-12T11:19:27Z</time>
      </trkpt>
      <trkpt lat="46.58977" lon="6.10392">
        <ele>1091.7</ele>
        <time>2020-07-12T11:19:31Z</time>
      </trkpt>
      <trkpt lat="46.58979" lon="6.10398">
        <ele>1092.8</ele>
        <time>2020-07-12T11:19:37Z</time>
      </trkpt>
      <trkpt lat="46.58976" lon="6.10403">
        <ele>1093.3</ele>
        <time>2020-07-12T11:19:43Z</time>
      </trkpt>
      <trkpt lat="46.5897" lon="6.10405">
        <ele>1093.3</ele>
        <time>2020-07-12T11:19:48Z</time>
      </trkpt>
      <trkpt lat="46.58966" lon="6.10406">
        <ele>1092.8</ele>
        <time>2020-07-12T11:19:57Z</time>
      </trkpt>
      <trkpt lat="46.58964" lon="6.10421">
        <ele>1091.6</ele>
        <time>2020-07-12T11:20:12Z</time>
      </trkpt>
      <trkpt lat="46.58967" lon="6.10429">
        <ele>1091.5</ele>
        <time>2020-07-12T11:20:15Z</time>
      </trkpt>
      <trkpt lat="46.58968" lon="6.10435">
        <ele>1091.3</ele>
        <time>2020-07-12T11:20:18Z</time>
      </trkpt>
      <trkpt lat="46.58964" lon="6.10435">
        <ele>1090.6</ele>
        <time>2020-07-12T11:20:23Z</time>
      </trkpt>
      <trkpt lat="46.58959" lon="6.10432">
        <ele>1090.1</ele>
        <time>2020-07-12T11:20:26Z</time>
      </trkpt>
      <trkpt lat="46.58954" lon="6.10429">
        <ele>1089.2</ele>
        <time>2020-07-12T11:20:30Z</time>
      </trkpt>
      <trkpt lat="46.5895" lon="6.10426">
        <ele>1087.8</ele>
        <time>2020-07-12T11:20:35Z</time>
      </trkpt>
      <trkpt lat="46.58945" lon="6.10424">
        <ele>1085.7</ele>
        <time>2020-07-12T11:20:43Z</time>
      </trkpt>
      <trkpt lat="46.58939" lon="6.10421">
        <ele>1085.3</ele>
        <time>2020-07-12T11:20:47Z</time>
      </trkpt>
      <trkpt lat="46.58934" lon="6.10418">
        <ele>1085.2</ele>
        <time>2020-07-12T11:20:51Z</time>
      </trkpt>
      <trkpt lat="46.58929" lon="6.10414">
        <ele>1085.3</ele>
        <time>2020-07-12T11:20:57Z</time>
      </trkpt>
      <trkpt lat="46.58931" lon="6.1042">
        <ele>1086.3</ele>
        <time>2020-07-12T11:21:41Z</time>
      </trkpt>
      <trkpt lat="46.58925" lon="6.10418">
        <ele>1093.1</ele>
        <time>2020-07-12T11:22:31Z</time>
      </trkpt>
      <trkpt lat="46.58915" lon="6.1041">
        <ele>1121.1</ele>
        <time>2020-07-12T11:30:18Z</time>
      </trkpt>
      <trkpt lat="46.5891" lon="6.10409">
        <ele>1121</ele>
        <time>2020-07-12T11:30:25Z</time>
      </trkpt>
      <trkpt lat="46.58905" lon="6.1041">
        <ele>1120.3</ele>
        <time>2020-07-12T11:30:30Z</time>
      </trkpt>
      <trkpt lat="46.589" lon="6.10411">
        <ele>1118</ele>
        <time>2020-07-12T11:30:39Z</time>
      </trkpt>
      <trkpt lat="46.58896" lon="6.10412">
        <ele>1114.7</ele>
        <time>2020-07-12T11:30:48Z</time>
      </trkpt>
      <trkpt lat="46.58891" lon="6.10411">
        <ele>1111.6</ele>
        <time>2020-07-12T11:30:55Z</time>
      </trkpt>
      <trkpt lat="46.58886" lon="6.10407">
        <ele>1108.9</ele>
        <time>2020-07-12T11:31:01Z</time>
      </trkpt>
      <trkpt lat="46.58882" lon="6.10405">
        <ele>1107.4</ele>
        <time>2020-07-12T11:31:05Z</time>
      </trkpt>
      <trkpt lat="46.58877" lon="6.10402">
        <ele>1105.7</ele>
        <time>2020-07-12T11:31:10Z</time>
      </trkpt>
      <trkpt lat="46.58873" lon="6.10399">
        <ele>1104.1</ele>
        <time>2020-07-12T11:31:15Z</time>
      </trkpt>
      <trkpt lat="46.58868" lon="6.10396">
        <ele>1102.8</ele>
        <time>2020-07-12T11:31:20Z</time>
      </trkpt>
      <trkpt lat="46.58862" lon="6.10395">
        <ele>1102</ele>
        <time>2020-07-12T11:31:24Z</time>
      </trkpt>
      <trkpt lat="46.58856" lon="6.10393">
        <ele>1101.4</ele>
        <time>2020-07-12T11:31:28Z</time>
      </trkpt>
      <trkpt lat="46.58851" lon="6.1039">
        <ele>1100.9</ele>
        <time>2020-07-12T11:31:31Z</time>
      </trkpt>
      <trkpt lat="46.58847" lon="6.10386">
        <ele>1098.7</ele>
        <time>2020-07-12T11:31:41Z</time>
      </trkpt>
      <trkpt lat="46.58845" lon="6.1038">
        <ele>1095.8</ele>
        <time>2020-07-12T11:31:49Z</time>
      </trkpt>
      <trkpt lat="46.58843" lon="6.10374">
        <ele>1092.1</ele>
        <time>2020-07-12T11:32:03Z</time>
      </trkpt>
      <trkpt lat="46.58837" lon="6.10374">
        <ele>1090.3</ele>
        <time>2020-07-12T11:32:13Z</time>
      </trkpt>
      <trkpt lat="46.58832" lon="6.10374">
        <ele>1089.1</ele>
        <time>2020-07-12T11:32:18Z</time>
      </trkpt>
      <trkpt lat="46.58827" lon="6.10372">
        <ele>1088.2</ele>
        <time>2020-07-12T11:32:22Z</time>
      </trkpt>
      <trkpt lat="46.58823" lon="6.10371">
        <ele>1087.2</ele>
        <time>2020-07-12T11:32:26Z</time>
      </trkpt>
      <trkpt lat="46.58818" lon="6.10367">
        <ele>1086.4</ele>
        <time>2020-07-12T11:32:31Z</time>
      </trkpt>
      <trkpt lat="46.58815" lon="6.10362">
        <ele>1085.7</ele>
        <time>2020-07-12T11:32:36Z</time>
      </trkpt>
      <trkpt lat="46.58811" lon="6.10357">
        <ele>1085.2</ele>
        <time>2020-07-12T11:32:42Z</time>
      </trkpt>
      <trkpt lat="46.58807" lon="6.10352">
        <ele>1084.7</ele>
        <time>2020-07-12T11:32:46Z</time>
      </trkpt>
      <trkpt lat="46.58802" lon="6.1035">
        <ele>1084.1</ele>
        <time>2020-07-12T11:32:51Z</time>
      </trkpt>
      <trkpt lat="46.58798" lon="6.10347">
        <ele>1083.1</ele>
        <time>2020-07-12T11:32:57Z</time>
      </trkpt>
      <trkpt lat="46.58792" lon="6.10345">
        <ele>1082.3</ele>
        <time>2020-07-12T11:33:02Z</time>
      </trkpt>
      <trkpt lat="46.58787" lon="6.10343">
        <ele>1081.6</ele>
        <time>2020-07-12T11:33:06Z</time>
      </trkpt>
      <trkpt lat="46.58782" lon="6.10339">
        <ele>1080.8</ele>
        <time>2020-07-12T11:33:11Z</time>
      </trkpt>
      <trkpt lat="46.58778" lon="6.10334">
        <ele>1080.3</ele>
        <time>2020-07-12T11:33:16Z</time>
      </trkpt>
      <trkpt lat="46.58774" lon="6.1033">
        <ele>1080</ele>
        <time>2020-07-12T11:33:21Z</time>
      </trkpt>
      <trkpt lat="46.58769" lon="6.10327">
        <ele>1079.5</ele>
        <time>2020-07-12T11:33:26Z</time>
      </trkpt>
      <trkpt lat="46.58764" lon="6.10323">
        <ele>1079</ele>
        <time>2020-07-12T11:33:31Z</time>
      </trkpt>
      <trkpt lat="46.58759" lon="6.10321">
        <ele>1078.7</ele>
        <time>2020-07-12T11:33:37Z</time>
      </trkpt>
      <trkpt lat="46.58754" lon="6.10319">
        <ele>1078.6</ele>
        <time>2020-07-12T11:33:41Z</time>
      </trkpt>
      <trkpt lat="46.58749" lon="6.10315">
        <ele>1078.5</ele>
        <time>2020-07-12T11:33:45Z</time>
      </trkpt>
      <trkpt lat="46.58744" lon="6.10312">
        <ele>1078.4</ele>
        <time>2020-07-12T11:33:50Z</time>
      </trkpt>
      <trkpt lat="46.58741" lon="6.10308">
        <ele>1078.2</ele>
        <time>2020-07-12T11:33:56Z</time>
      </trkpt>
      <trkpt lat="46.58737" lon="6.10303">
        <ele>1077.9</ele>
        <time>2020-07-12T11:34:04Z</time>
      </trkpt>
      <trkpt lat="46.58732" lon="6.10299">
        <ele>1077.6</ele>
        <time>2020-07-12T11:34:09Z</time>
      </trkpt>
      <trkpt lat="46.58728" lon="6.10296">
        <ele>1077.7</ele>
        <time>2020-07-12T11:34:13Z</time>
      </trkpt>
      <trkpt lat="46.58723" lon="6.10293">
        <ele>1077.7</ele>
        <time>2020-07-12T11:34:18Z</time>
      </trkpt>
      <trkpt lat="46.58718" lon="6.1029">
        <ele>1077.9</ele>
        <time>2020-07-12T11:34:22Z</time>
      </trkpt>
      <trkpt lat="46.58713" lon="6.10288">
        <ele>1078.3</ele>
        <time>2020-07-12T11:34:27Z</time>
      </trkpt>
      <trkpt lat="46.58708" lon="6.10286">
        <ele>1078.8</ele>
        <time>2020-07-12T11:34:32Z</time>
      </trkpt>
      <trkpt lat="46.58703" lon="6.10283">
        <ele>1079.2</ele>
        <time>2020-07-12T11:34:36Z</time>
      </trkpt>
      <trkpt lat="46.58697" lon="6.1028">
        <ele>1079.8</ele>
        <time>2020-07-12T11:34:41Z</time>
      </trkpt>
      <trkpt lat="46.58692" lon="6.10277">
        <ele>1080.4</ele>
        <time>2020-07-12T11:34:45Z</time>
      </trkpt>
      <trkpt lat="46.58688" lon="6.10274">
        <ele>1081.4</ele>
        <time>2020-07-12T11:34:50Z</time>
      </trkpt>
      <trkpt lat="46.58683" lon="6.10271">
        <ele>1082.7</ele>
        <time>2020-07-12T11:34:56Z</time>
      </trkpt>
      <trkpt lat="46.58678" lon="6.10267">
        <ele>1083.8</ele>
        <time>2020-07-12T11:35:01Z</time>
      </trkpt>
      <trkpt lat="46.58674" lon="6.10263">
        <ele>1084.4</ele>
        <time>2020-07-12T11:35:04Z</time>
      </trkpt>
      <trkpt lat="46.58669" lon="6.10259">
        <ele>1085.3</ele>
        <time>2020-07-12T11:35:08Z</time>
      </trkpt>
      <trkpt lat="46.58665" lon="6.10256">
        <ele>1086.1</ele>
        <time>2020-07-12T11:35:12Z</time>
      </trkpt>
      <trkpt lat="46.58661" lon="6.10252">
        <ele>1087</ele>
        <time>2020-07-12T11:35:16Z</time>
      </trkpt>
      <trkpt lat="46.58657" lon="6.10249">
        <ele>1088</ele>
        <time>2020-07-12T11:35:20Z</time>
      </trkpt>
      <trkpt lat="46.58652" lon="6.10244">
        <ele>1089</ele>
        <time>2020-07-12T11:35:24Z</time>
      </trkpt>
      <trkpt lat="46.58648" lon="6.1024">
        <ele>1090.2</ele>
        <time>2020-07-12T11:35:28Z</time>
      </trkpt>
      <trkpt lat="46.58644" lon="6.10236">
        <ele>1091.3</ele>
        <time>2020-07-12T11:35:32Z</time>
      </trkpt>
      <trkpt lat="46.5864" lon="6.10231">
        <ele>1092.6</ele>
        <time>2020-07-12T11:35:37Z</time>
      </trkpt>
      <trkpt lat="46.58637" lon="6.10225">
        <ele>1093.3</ele>
        <time>2020-07-12T11:35:41Z</time>
      </trkpt>
      <trkpt lat="46.58633" lon="6.10218">
        <ele>1094.1</ele>
        <time>2020-07-12T11:35:45Z</time>
      </trkpt>
      <trkpt lat="46.5863" lon="6.10212">
        <ele>1095.1</ele>
        <time>2020-07-12T11:35:49Z</time>
      </trkpt>
      <trkpt lat="46.58629" lon="6.10205">
        <ele>1096.4</ele>
        <time>2020-07-12T11:35:53Z</time>
      </trkpt>
      <trkpt lat="46.58626" lon="6.10199">
        <ele>1098.6</ele>
        <time>2020-07-12T11:36:00Z</time>
      </trkpt>
      <trkpt lat="46.58623" lon="6.10193">
        <ele>1100.2</ele>
        <time>2020-07-12T11:36:05Z</time>
      </trkpt>
      <trkpt lat="46.58621" lon="6.10185">
        <ele>1101.2</ele>
        <time>2020-07-12T11:36:09Z</time>
      </trkpt>
      <trkpt lat="46.58619" lon="6.10179">
        <ele>1102.1</ele>
        <time>2020-07-12T11:36:13Z</time>
      </trkpt>
      <trkpt lat="46.58616" lon="6.10173">
        <ele>1103.5</ele>
        <time>2020-07-12T11:36:19Z</time>
      </trkpt>
      <trkpt lat="46.58613" lon="6.10168">
        <ele>1104.5</ele>
        <time>2020-07-12T11:36:24Z</time>
      </trkpt>
      <trkpt lat="46.5861" lon="6.10164">
        <ele>1105.6</ele>
        <time>2020-07-12T11:36:35Z</time>
      </trkpt>
      <trkpt lat="46.58608" lon="6.1017">
        <ele>1104.9</ele>
        <time>2020-07-12T11:36:49Z</time>
      </trkpt>
      <trkpt lat="46.58605" lon="6.10177">
        <ele>1104.1</ele>
        <time>2020-07-12T11:36:55Z</time>
      </trkpt>
      <trkpt lat="46.58603" lon="6.10184">
        <ele>1103.7</ele>
        <time>2020-07-12T11:36:59Z</time>
      </trkpt>
      <trkpt lat="46.586" lon="6.10189">
        <ele>1102.4</ele>
        <time>2020-07-12T11:37:06Z</time>
      </trkpt>
      <trkpt lat="46.58597" lon="6.10193">
        <ele>1101.3</ele>
        <time>2020-07-12T11:37:12Z</time>
      </trkpt>
      <trkpt lat="46.58593" lon="6.10198">
        <ele>1100.2</ele>
        <time>2020-07-12T11:37:20Z</time>
      </trkpt>
      <trkpt lat="46.58591" lon="6.10204">
        <ele>1099.5</ele>
        <time>2020-07-12T11:37:26Z</time>
      </trkpt>
      <trkpt lat="46.58587" lon="6.10209">
        <ele>1099.1</ele>
        <time>2020-07-12T11:37:31Z</time>
      </trkpt>
      <trkpt lat="46.58583" lon="6.10213">
        <ele>1098.4</ele>
        <time>2020-07-12T11:37:38Z</time>
      </trkpt>
      <trkpt lat="46.5858" lon="6.10219">
        <ele>1097.9</ele>
        <time>2020-07-12T11:37:45Z</time>
      </trkpt>
      <trkpt lat="46.58577" lon="6.10224">
        <ele>1097.8</ele>
        <time>2020-07-12T11:37:51Z</time>
      </trkpt>
      <trkpt lat="46.58573" lon="6.10229">
        <ele>1097.7</ele>
        <time>2020-07-12T11:37:56Z</time>
      </trkpt>
      <trkpt lat="46.58571" lon="6.10235">
        <ele>1097.5</ele>
        <time>2020-07-12T11:38:00Z</time>
      </trkpt>
      <trkpt lat="46.58568" lon="6.10241">
        <ele>1097.4</ele>
        <time>2020-07-12T11:38:04Z</time>
      </trkpt>
      <trkpt lat="46.58565" lon="6.10247">
        <ele>1097.3</ele>
        <time>2020-07-12T11:38:09Z</time>
      </trkpt>
      <trkpt lat="46.58562" lon="6.10253">
        <ele>1097.3</ele>
        <time>2020-07-12T11:38:15Z</time>
      </trkpt>
      <trkpt lat="46.5856" lon="6.10259">
        <ele>1097.2</ele>
        <time>2020-07-12T11:38:22Z</time>
      </trkpt>
      <trkpt lat="46.58559" lon="6.10267">
        <ele>1097.1</ele>
        <time>2020-07-12T11:38:27Z</time>
      </trkpt>
      <trkpt lat="46.58558" lon="6.10273">
        <ele>1097.1</ele>
        <time>2020-07-12T11:38:29Z</time>
      </trkpt>
      <trkpt lat="46.58553" lon="6.10281">
        <ele>1097.3</ele>
        <time>2020-07-12T11:38:32Z</time>
      </trkpt>
      <trkpt lat="46.5855" lon="6.10286">
        <ele>1097.6</ele>
        <time>2020-07-12T11:38:35Z</time>
      </trkpt>
      <trkpt lat="46.58546" lon="6.10291">
        <ele>1098</ele>
        <time>2020-07-12T11:38:39Z</time>
      </trkpt>
      <trkpt lat="46.58542" lon="6.10295">
        <ele>1098.3</ele>
        <time>2020-07-12T11:38:44Z</time>
      </trkpt>
      <trkpt lat="46.58538" lon="6.10299">
        <ele>1098.4</ele>
        <time>2020-07-12T11:38:50Z</time>
      </trkpt>
      <trkpt lat="46.58535" lon="6.10303">
        <ele>1098.2</ele>
        <time>2020-07-12T11:39:03Z</time>
      </trkpt>
      <trkpt lat="46.58531" lon="6.10309">
        <ele>1098.1</ele>
        <time>2020-07-12T11:39:09Z</time>
      </trkpt>
      <trkpt lat="46.58528" lon="6.10314">
        <ele>1098.1</ele>
        <time>2020-07-12T11:39:15Z</time>
      </trkpt>
      <trkpt lat="46.58524" lon="6.10319">
        <ele>1098.2</ele>
        <time>2020-07-12T11:39:19Z</time>
      </trkpt>
      <trkpt lat="46.58521" lon="6.10324">
        <ele>1098.1</ele>
        <time>2020-07-12T11:39:25Z</time>
      </trkpt>
      <trkpt lat="46.58517" lon="6.1033">
        <ele>1097.9</ele>
        <time>2020-07-12T11:39:32Z</time>
      </trkpt>
      <trkpt lat="46.58512" lon="6.10334">
        <ele>1097.9</ele>
        <time>2020-07-12T11:39:37Z</time>
      </trkpt>
      <trkpt lat="46.58508" lon="6.10337">
        <ele>1097.9</ele>
        <time>2020-07-12T11:39:43Z</time>
      </trkpt>
      <trkpt lat="46.58504" lon="6.1034">
        <ele>1098</ele>
        <time>2020-07-12T11:39:49Z</time>
      </trkpt>
      <trkpt lat="46.585" lon="6.10345">
        <ele>1098</ele>
        <time>2020-07-12T11:39:52Z</time>
      </trkpt>
      <trkpt lat="46.58497" lon="6.1035">
        <ele>1098.1</ele>
        <time>2020-07-12T11:39:56Z</time>
      </trkpt>
      <trkpt lat="46.58493" lon="6.10354">
        <ele>1098.1</ele>
        <time>2020-07-12T11:40:01Z</time>
      </trkpt>
      <trkpt lat="46.5849" lon="6.10359">
        <ele>1098.7</ele>
        <time>2020-07-12T11:40:19Z</time>
      </trkpt>
      <trkpt lat="46.58486" lon="6.10363">
        <ele>1099.2</ele>
        <time>2020-07-12T11:40:22Z</time>
      </trkpt>
      <trkpt lat="46.58482" lon="6.10367">
        <ele>1099.7</ele>
        <time>2020-07-12T11:40:25Z</time>
      </trkpt>
      <trkpt lat="46.58477" lon="6.1037">
        <ele>1100.1</ele>
        <time>2020-07-12T11:40:29Z</time>
      </trkpt>
      <trkpt lat="46.58472" lon="6.10372">
        <ele>1100.2</ele>
        <time>2020-07-12T11:40:33Z</time>
      </trkpt>
      <trkpt lat="46.58468" lon="6.10375">
        <ele>1100</ele>
        <time>2020-07-12T11:40:37Z</time>
      </trkpt>
      <trkpt lat="46.58463" lon="6.10378">
        <ele>1099.7</ele>
        <time>2020-07-12T11:40:41Z</time>
      </trkpt>
      <trkpt lat="46.58458" lon="6.1038">
        <ele>1099.5</ele>
        <time>2020-07-12T11:40:45Z</time>
      </trkpt>
      <trkpt lat="46.58453" lon="6.10386">
        <ele>1099.5</ele>
        <time>2020-07-12T11:40:49Z</time>
      </trkpt>
      <trkpt lat="46.5845" lon="6.1039">
        <ele>1099.7</ele>
        <time>2020-07-12T11:40:53Z</time>
      </trkpt>
      <trkpt lat="46.58445" lon="6.10395">
        <ele>1100</ele>
        <time>2020-07-12T11:40:58Z</time>
      </trkpt>
      <trkpt lat="46.58441" lon="6.10398">
        <ele>1100.3</ele>
        <time>2020-07-12T11:41:02Z</time>
      </trkpt>
      <trkpt lat="46.58437" lon="6.10402">
        <ele>1100.6</ele>
        <time>2020-07-12T11:41:06Z</time>
      </trkpt>
      <trkpt lat="46.58434" lon="6.10407">
        <ele>1100.8</ele>
        <time>2020-07-12T11:41:10Z</time>
      </trkpt>
      <trkpt lat="46.58431" lon="6.10414">
        <ele>1101.2</ele>
        <time>2020-07-12T11:41:14Z</time>
      </trkpt>
      <trkpt lat="46.58429" lon="6.1042">
        <ele>1101.3</ele>
        <time>2020-07-12T11:41:17Z</time>
      </trkpt>
      <trkpt lat="46.58427" lon="6.10428">
        <ele>1101.5</ele>
        <time>2020-07-12T11:41:21Z</time>
      </trkpt>
      <trkpt lat="46.58426" lon="6.10435">
        <ele>1101.7</ele>
        <time>2020-07-12T11:41:25Z</time>
      </trkpt>
      <trkpt lat="46.58424" lon="6.10441">
        <ele>1101.9</ele>
        <time>2020-07-12T11:41:31Z</time>
      </trkpt>
      <trkpt lat="46.58421" lon="6.10448">
        <ele>1102.2</ele>
        <time>2020-07-12T11:41:38Z</time>
      </trkpt>
      <trkpt lat="46.5842" lon="6.10455">
        <ele>1102.4</ele>
        <time>2020-07-12T11:41:43Z</time>
      </trkpt>
      <trkpt lat="46.58419" lon="6.10463">
        <ele>1102.6</ele>
        <time>2020-07-12T11:41:47Z</time>
      </trkpt>
      <trkpt lat="46.58418" lon="6.10471">
        <ele>1102.9</ele>
        <time>2020-07-12T11:41:51Z</time>
      </trkpt>
      <trkpt lat="46.58418" lon="6.10478">
        <ele>1103.2</ele>
        <time>2020-07-12T11:41:55Z</time>
      </trkpt>
      <trkpt lat="46.58419" lon="6.10485">
        <ele>1103.5</ele>
        <time>2020-07-12T11:42:00Z</time>
      </trkpt>
      <trkpt lat="46.58418" lon="6.10493">
        <ele>1103.9</ele>
        <time>2020-07-12T11:42:06Z</time>
      </trkpt>
      <trkpt lat="46.58417" lon="6.105">
        <ele>1104.3</ele>
        <time>2020-07-12T11:42:11Z</time>
      </trkpt>
      <trkpt lat="46.58417" lon="6.10508">
        <ele>1104.7</ele>
        <time>2020-07-12T11:42:16Z</time>
      </trkpt>
      <trkpt lat="46.58417" lon="6.10515">
        <ele>1105.1</ele>
        <time>2020-07-12T11:42:20Z</time>
      </trkpt>
      <trkpt lat="46.58416" lon="6.10521">
        <ele>1105.4</ele>
        <time>2020-07-12T11:42:24Z</time>
      </trkpt>
      <trkpt lat="46.58417" lon="6.10529">
        <ele>1105.9</ele>
        <time>2020-07-12T11:42:29Z</time>
      </trkpt>
      <trkpt lat="46.58415" lon="6.10535">
        <ele>1106.2</ele>
        <time>2020-07-12T11:42:34Z</time>
      </trkpt>
      <trkpt lat="46.58413" lon="6.10541">
        <ele>1106.4</ele>
        <time>2020-07-12T11:42:38Z</time>
      </trkpt>
      <trkpt lat="46.58412" lon="6.10549">
        <ele>1106.9</ele>
        <time>2020-07-12T11:42:44Z</time>
      </trkpt>
      <trkpt lat="46.58412" lon="6.10556">
        <ele>1107.2</ele>
        <time>2020-07-12T11:42:49Z</time>
      </trkpt>
      <trkpt lat="46.58411" lon="6.10563">
        <ele>1107.2</ele>
        <time>2020-07-12T11:42:54Z</time>
      </trkpt>
      <trkpt lat="46.58409" lon="6.1057">
        <ele>1106.9</ele>
        <time>2020-07-12T11:43:00Z</time>
      </trkpt>
      <trkpt lat="46.58406" lon="6.10577">
        <ele>1106.9</ele>
        <time>2020-07-12T11:43:04Z</time>
      </trkpt>
      <trkpt lat="46.58404" lon="6.10585">
        <ele>1106.8</ele>
        <time>2020-07-12T11:43:09Z</time>
      </trkpt>
      <trkpt lat="46.58403" lon="6.10592">
        <ele>1106.7</ele>
        <time>2020-07-12T11:43:13Z</time>
      </trkpt>
      <trkpt lat="46.58403" lon="6.106">
        <ele>1106.5</ele>
        <time>2020-07-12T11:43:18Z</time>
      </trkpt>
      <trkpt lat="46.58401" lon="6.10607">
        <ele>1106.1</ele>
        <time>2020-07-12T11:43:23Z</time>
      </trkpt>
      <trkpt lat="46.584" lon="6.10613">
        <ele>1105.7</ele>
        <time>2020-07-12T11:43:27Z</time>
      </trkpt>
      <trkpt lat="46.58398" lon="6.10621">
        <ele>1105.4</ele>
        <time>2020-07-12T11:43:32Z</time>
      </trkpt>
      <trkpt lat="46.58396" lon="6.10626">
        <ele>1105.3</ele>
        <time>2020-07-12T11:43:39Z</time>
      </trkpt>
      <trkpt lat="46.58394" lon="6.10632">
        <ele>1106.4</ele>
        <time>2020-07-12T11:43:54Z</time>
      </trkpt>
      <trkpt lat="46.58391" lon="6.10639">
        <ele>1107.1</ele>
        <time>2020-07-12T11:43:59Z</time>
      </trkpt>
      <trkpt lat="46.58388" lon="6.10644">
        <ele>1107.8</ele>
        <time>2020-07-12T11:44:03Z</time>
      </trkpt>
      <trkpt lat="46.58385" lon="6.10649">
        <ele>1108.6</ele>
        <time>2020-07-12T11:44:07Z</time>
      </trkpt>
      <trkpt lat="46.58382" lon="6.10655">
        <ele>1109.5</ele>
        <time>2020-07-12T11:44:14Z</time>
      </trkpt>
      <trkpt lat="46.58378" lon="6.10661">
        <ele>1110.2</ele>
        <time>2020-07-12T11:44:19Z</time>
      </trkpt>
      <trkpt lat="46.58375" lon="6.10666">
        <ele>1110.8</ele>
        <time>2020-07-12T11:44:23Z</time>
      </trkpt>
      <trkpt lat="46.58371" lon="6.10672">
        <ele>1111.2</ele>
        <time>2020-07-12T11:44:27Z</time>
      </trkpt>
      <trkpt lat="46.58366" lon="6.10675">
        <ele>1111.5</ele>
        <time>2020-07-12T11:44:30Z</time>
      </trkpt>
      <trkpt lat="46.58362" lon="6.10679">
        <ele>1111.6</ele>
        <time>2020-07-12T11:44:33Z</time>
      </trkpt>
      <trkpt lat="46.58358" lon="6.10683">
        <ele>1111.6</ele>
        <time>2020-07-12T11:44:36Z</time>
      </trkpt>
      <trkpt lat="46.58354" lon="6.10688">
        <ele>1111.6</ele>
        <time>2020-07-12T11:44:40Z</time>
      </trkpt>
      <trkpt lat="46.5835" lon="6.10692">
        <ele>1111.4</ele>
        <time>2020-07-12T11:44:44Z</time>
      </trkpt>
      <trkpt lat="46.58347" lon="6.10696">
        <ele>1111.3</ele>
        <time>2020-07-12T11:44:48Z</time>
      </trkpt>
      <trkpt lat="46.58344" lon="6.10701">
        <ele>1111.2</ele>
        <time>2020-07-12T11:44:54Z</time>
      </trkpt>
      <trkpt lat="46.58339" lon="6.10704">
        <ele>1110.6</ele>
        <time>2020-07-12T11:45:06Z</time>
      </trkpt>
      <trkpt lat="46.58335" lon="6.10708">
        <ele>1110.1</ele>
        <time>2020-07-12T11:45:11Z</time>
      </trkpt>
      <trkpt lat="46.58331" lon="6.10711">
        <ele>1109.7</ele>
        <time>2020-07-12T11:45:15Z</time>
      </trkpt>
      <trkpt lat="46.58325" lon="6.10714">
        <ele>1109.5</ele>
        <time>2020-07-12T11:45:19Z</time>
      </trkpt>
      <trkpt lat="46.58321" lon="6.10716">
        <ele>1109.6</ele>
        <time>2020-07-12T11:45:23Z</time>
      </trkpt>
      <trkpt lat="46.58316" lon="6.10719">
        <ele>1110</ele>
        <time>2020-07-12T11:45:28Z</time>
      </trkpt>
      <trkpt lat="46.58311" lon="6.10721">
        <ele>1110.4</ele>
        <time>2020-07-12T11:45:32Z</time>
      </trkpt>
      <trkpt lat="46.58306" lon="6.10723">
        <ele>1110.8</ele>
        <time>2020-07-12T11:45:36Z</time>
      </trkpt>
      <trkpt lat="46.58301" lon="6.10725">
        <ele>1111</ele>
        <time>2020-07-12T11:45:40Z</time>
      </trkpt>
      <trkpt lat="46.58296" lon="6.10728">
        <ele>1111.4</ele>
        <time>2020-07-12T11:45:44Z</time>
      </trkpt>
      <trkpt lat="46.58292" lon="6.10732">
        <ele>1111.8</ele>
        <time>2020-07-12T11:45:49Z</time>
      </trkpt>
      <trkpt lat="46.58288" lon="6.10735">
        <ele>1111.8</ele>
        <time>2020-07-12T11:45:55Z</time>
      </trkpt>
      <trkpt lat="46.58284" lon="6.10736">
        <ele>1111.7</ele>
        <time>2020-07-12T11:46:00Z</time>
      </trkpt>
      <trkpt lat="46.58278" lon="6.10736">
        <ele>1111.6</ele>
        <time>2020-07-12T11:46:05Z</time>
      </trkpt>
      <trkpt lat="46.58273" lon="6.10737">
        <ele>1111.6</ele>
        <time>2020-07-12T11:46:08Z</time>
      </trkpt>
      <trkpt lat="46.58269" lon="6.10738">
        <ele>1111.5</ele>
        <time>2020-07-12T11:46:11Z</time>
      </trkpt>
      <trkpt lat="46.58264" lon="6.1074">
        <ele>1111.4</ele>
        <time>2020-07-12T11:46:14Z</time>
      </trkpt>
      <trkpt lat="46.58259" lon="6.10742">
        <ele>1111.2</ele>
        <time>2020-07-12T11:46:18Z</time>
      </trkpt>
      <trkpt lat="46.58254" lon="6.10742">
        <ele>1111.1</ele>
        <time>2020-07-12T11:46:22Z</time>
      </trkpt>
      <trkpt lat="46.58248" lon="6.10743">
        <ele>1111</ele>
        <time>2020-07-12T11:46:26Z</time>
      </trkpt>
      <trkpt lat="46.58243" lon="6.10743">
        <ele>1111</ele>
        <time>2020-07-12T11:46:30Z</time>
      </trkpt>
      <trkpt lat="46.58238" lon="6.10743">
        <ele>1111.2</ele>
        <time>2020-07-12T11:46:34Z</time>
      </trkpt>
      <trkpt lat="46.58233" lon="6.10741">
        <ele>1111.5</ele>
        <time>2020-07-12T11:46:37Z</time>
      </trkpt>
      <trkpt lat="46.58228" lon="6.1074">
        <ele>1111.8</ele>
        <time>2020-07-12T11:46:40Z</time>
      </trkpt>
      <trkpt lat="46.58223" lon="6.10739">
        <ele>1112.4</ele>
        <time>2020-07-12T11:46:44Z</time>
      </trkpt>
      <trkpt lat="46.58218" lon="6.10737">
        <ele>1113</ele>
        <time>2020-07-12T11:46:48Z</time>
      </trkpt>
      <trkpt lat="46.58215" lon="6.10733">
        <ele>1113.5</ele>
        <time>2020-07-12T11:46:52Z</time>
      </trkpt>
      <trkpt lat="46.58209" lon="6.1073">
        <ele>1114.1</ele>
        <time>2020-07-12T11:46:56Z</time>
      </trkpt>
      <trkpt lat="46.58204" lon="6.10728">
        <ele>1114.8</ele>
        <time>2020-07-12T11:46:59Z</time>
      </trkpt>
      <trkpt lat="46.58198" lon="6.10725">
        <ele>1115.5</ele>
        <time>2020-07-12T11:47:02Z</time>
      </trkpt>
      <trkpt lat="46.58193" lon="6.10721">
        <ele>1116.4</ele>
        <time>2020-07-12T11:47:05Z</time>
      </trkpt>
      <trkpt lat="46.58188" lon="6.10717">
        <ele>1117.4</ele>
        <time>2020-07-12T11:47:08Z</time>
      </trkpt>
      <trkpt lat="46.58184" lon="6.10715">
        <ele>1118.5</ele>
        <time>2020-07-12T11:47:12Z</time>
      </trkpt>
      <trkpt lat="46.58179" lon="6.10713">
        <ele>1119.8</ele>
        <time>2020-07-12T11:47:19Z</time>
      </trkpt>
      <trkpt lat="46.58174" lon="6.10709">
        <ele>1120.4</ele>
        <time>2020-07-12T11:47:24Z</time>
      </trkpt>
      <trkpt lat="46.5817" lon="6.10705">
        <ele>1121.1</ele>
        <time>2020-07-12T11:47:29Z</time>
      </trkpt>
      <trkpt lat="46.58167" lon="6.10699">
        <ele>1121</ele>
        <time>2020-07-12T11:47:45Z</time>
      </trkpt>
      <trkpt lat="46.58164" lon="6.10693">
        <ele>1120.3</ele>
        <time>2020-07-12T11:47:50Z</time>
      </trkpt>
      <trkpt lat="46.5816" lon="6.10688">
        <ele>1120</ele>
        <time>2020-07-12T11:47:54Z</time>
      </trkpt>
      <trkpt lat="46.58155" lon="6.10684">
        <ele>1119.8</ele>
        <time>2020-07-12T11:47:58Z</time>
      </trkpt>
      <trkpt lat="46.58151" lon="6.1068">
        <ele>1119.6</ele>
        <time>2020-07-12T11:48:02Z</time>
      </trkpt>
      <trkpt lat="46.58147" lon="6.10675">
        <ele>1119.6</ele>
        <time>2020-07-12T11:48:07Z</time>
      </trkpt>
      <trkpt lat="46.58143" lon="6.1067">
        <ele>1119.5</ele>
        <time>2020-07-12T11:48:12Z</time>
      </trkpt>
      <trkpt lat="46.58139" lon="6.10665">
        <ele>1119.3</ele>
        <time>2020-07-12T11:48:17Z</time>
      </trkpt>
      <trkpt lat="46.58135" lon="6.10662">
        <ele>1119</ele>
        <time>2020-07-12T11:48:21Z</time>
      </trkpt>
      <trkpt lat="46.58131" lon="6.10658">
        <ele>1118.4</ele>
        <time>2020-07-12T11:48:25Z</time>
      </trkpt>
      <trkpt lat="46.58128" lon="6.10653">
        <ele>1117.8</ele>
        <time>2020-07-12T11:48:29Z</time>
      </trkpt>
      <trkpt lat="46.58125" lon="6.10647">
        <ele>1117.3</ele>
        <time>2020-07-12T11:48:33Z</time>
      </trkpt>
      <trkpt lat="46.58121" lon="6.10643">
        <ele>1116.9</ele>
        <time>2020-07-12T11:48:37Z</time>
      </trkpt>
      <trkpt lat="46.58117" lon="6.10639">
        <ele>1116.5</ele>
        <time>2020-07-12T11:48:41Z</time>
      </trkpt>
      <trkpt lat="46.58112" lon="6.10635">
        <ele>1116.2</ele>
        <time>2020-07-12T11:48:45Z</time>
      </trkpt>
      <trkpt lat="46.58107" lon="6.10633">
        <ele>1115.8</ele>
        <time>2020-07-12T11:48:51Z</time>
      </trkpt>
      <trkpt lat="46.58103" lon="6.10629">
        <ele>1115.3</ele>
        <time>2020-07-12T11:48:57Z</time>
      </trkpt>
      <trkpt lat="46.581" lon="6.10623">
        <ele>1115.1</ele>
        <time>2020-07-12T11:49:02Z</time>
      </trkpt>
      <trkpt lat="46.58097" lon="6.10618">
        <ele>1114.7</ele>
        <time>2020-07-12T11:49:07Z</time>
      </trkpt>
      <trkpt lat="46.58092" lon="6.10614">
        <ele>1114.5</ele>
        <time>2020-07-12T11:49:12Z</time>
      </trkpt>
      <trkpt lat="46.58087" lon="6.1061">
        <ele>1114.5</ele>
        <time>2020-07-12T11:49:16Z</time>
      </trkpt>
      <trkpt lat="46.58084" lon="6.10606">
        <ele>1114.6</ele>
        <time>2020-07-12T11:49:19Z</time>
      </trkpt>
      <trkpt lat="46.5808" lon="6.10602">
        <ele>1114.6</ele>
        <time>2020-07-12T11:49:22Z</time>
      </trkpt>
      <trkpt lat="46.58077" lon="6.10596">
        <ele>1114.7</ele>
        <time>2020-07-12T11:49:26Z</time>
      </trkpt>
      <trkpt lat="46.58073" lon="6.1059">
        <ele>1114.8</ele>
        <time>2020-07-12T11:49:30Z</time>
      </trkpt>
      <trkpt lat="46.58069" lon="6.10584">
        <ele>1114.8</ele>
        <time>2020-07-12T11:49:34Z</time>
      </trkpt>
      <trkpt lat="46.58066" lon="6.10578">
        <ele>1114.9</ele>
        <time>2020-07-12T11:49:38Z</time>
      </trkpt>
      <trkpt lat="46.58062" lon="6.10573">
        <ele>1114.9</ele>
        <time>2020-07-12T11:49:42Z</time>
      </trkpt>
      <trkpt lat="46.58058" lon="6.10567">
        <ele>1114.9</ele>
        <time>2020-07-12T11:49:47Z</time>
      </trkpt>
      <trkpt lat="46.58053" lon="6.10564">
        <ele>1114.9</ele>
        <time>2020-07-12T11:49:51Z</time>
      </trkpt>
      <trkpt lat="46.58048" lon="6.10562">
        <ele>1115.1</ele>
        <time>2020-07-12T11:49:56Z</time>
      </trkpt>
      <trkpt lat="46.58043" lon="6.10561">
        <ele>1115.1</ele>
        <time>2020-07-12T11:50:00Z</time>
      </trkpt>
      <trkpt lat="46.58038" lon="6.10559">
        <ele>1115.2</ele>
        <time>2020-07-12T11:50:04Z</time>
      </trkpt>
      <trkpt lat="46.58033" lon="6.10556">
        <ele>1115.4</ele>
        <time>2020-07-12T11:50:08Z</time>
      </trkpt>
      <trkpt lat="46.58028" lon="6.10554">
        <ele>1115.7</ele>
        <time>2020-07-12T11:50:13Z</time>
      </trkpt>
      <trkpt lat="46.58023" lon="6.10553">
        <ele>1115.9</ele>
        <time>2020-07-12T11:50:19Z</time>
      </trkpt>
      <trkpt lat="46.58018" lon="6.10556">
        <ele>1115.8</ele>
        <time>2020-07-12T11:50:29Z</time>
      </trkpt>
      <trkpt lat="46.58013" lon="6.10556">
        <ele>1115.6</ele>
        <time>2020-07-12T11:50:33Z</time>
      </trkpt>
      <trkpt lat="46.58008" lon="6.10554">
        <ele>1115.4</ele>
        <time>2020-07-12T11:50:37Z</time>
      </trkpt>
      <trkpt lat="46.58003" lon="6.10553">
        <ele>1115.3</ele>
        <time>2020-07-12T11:50:41Z</time>
      </trkpt>
      <trkpt lat="46.57997" lon="6.10552">
        <ele>1115.2</ele>
        <time>2020-07-12T11:50:44Z</time>
      </trkpt>
      <trkpt lat="46.57993" lon="6.10551">
        <ele>1115.1</ele>
        <time>2020-07-12T11:50:47Z</time>
      </trkpt>
      <trkpt lat="46.57988" lon="6.10551">
        <ele>1115.2</ele>
        <time>2020-07-12T11:50:51Z</time>
      </trkpt>
      <trkpt lat="46.57983" lon="6.1055">
        <ele>1115.2</ele>
        <time>2020-07-12T11:50:55Z</time>
      </trkpt>
      <trkpt lat="46.57978" lon="6.10549">
        <ele>1115.1</ele>
        <time>2020-07-12T11:51:00Z</time>
      </trkpt>
      <trkpt lat="46.57974" lon="6.10548">
        <ele>1115.1</ele>
        <time>2020-07-12T11:51:05Z</time>
      </trkpt>
      <trkpt lat="46.57969" lon="6.10547">
        <ele>1115</ele>
        <time>2020-07-12T11:51:09Z</time>
      </trkpt>
      <trkpt lat="46.57965" lon="6.10546">
        <ele>1114.9</ele>
        <time>2020-07-12T11:51:13Z</time>
      </trkpt>
      <trkpt lat="46.5796" lon="6.10544">
        <ele>1114.8</ele>
        <time>2020-07-12T11:51:18Z</time>
      </trkpt>
      <trkpt lat="46.57954" lon="6.10546">
        <ele>1114.6</ele>
        <time>2020-07-12T11:51:24Z</time>
      </trkpt>
      <trkpt lat="46.57949" lon="6.10546">
        <ele>1114.4</ele>
        <time>2020-07-12T11:51:30Z</time>
      </trkpt>
      <trkpt lat="46.57945" lon="6.10546">
        <ele>1114.7</ele>
        <time>2020-07-12T11:51:36Z</time>
      </trkpt>
      <trkpt lat="46.57939" lon="6.10545">
        <ele>1114.8</ele>
        <time>2020-07-12T11:51:41Z</time>
      </trkpt>
      <trkpt lat="46.57934" lon="6.10544">
        <ele>1114.6</ele>
        <time>2020-07-12T11:51:45Z</time>
      </trkpt>
      <trkpt lat="46.57929" lon="6.10542">
        <ele>1114.3</ele>
        <time>2020-07-12T11:51:49Z</time>
      </trkpt>
      <trkpt lat="46.57925" lon="6.10541">
        <ele>1114.1</ele>
        <time>2020-07-12T11:51:54Z</time>
      </trkpt>
      <trkpt lat="46.5792" lon="6.10541">
        <ele>1114.2</ele>
        <time>2020-07-12T11:51:59Z</time>
      </trkpt>
      <trkpt lat="46.57915" lon="6.10542">
        <ele>1114.4</ele>
        <time>2020-07-12T11:52:04Z</time>
      </trkpt>
      <trkpt lat="46.5791" lon="6.10544">
        <ele>1114.7</ele>
        <time>2020-07-12T11:52:09Z</time>
      </trkpt>
      <trkpt lat="46.57905" lon="6.10545">
        <ele>1114.9</ele>
        <time>2020-07-12T11:52:13Z</time>
      </trkpt>
      <trkpt lat="46.579" lon="6.10548">
        <ele>1115.4</ele>
        <time>2020-07-12T11:52:19Z</time>
      </trkpt>
      <trkpt lat="46.57895" lon="6.10549">
        <ele>1115.8</ele>
        <time>2020-07-12T11:52:24Z</time>
      </trkpt>
      <trkpt lat="46.5789" lon="6.10552">
        <ele>1116</ele>
        <time>2020-07-12T11:52:29Z</time>
      </trkpt>
      <trkpt lat="46.57886" lon="6.10556">
        <ele>1116</ele>
        <time>2020-07-12T11:52:32Z</time>
      </trkpt>
      <trkpt lat="46.57881" lon="6.1056">
        <ele>1115.6</ele>
        <time>2020-07-12T11:52:36Z</time>
      </trkpt>
      <trkpt lat="46.57876" lon="6.10564">
        <ele>1115</ele>
        <time>2020-07-12T11:52:40Z</time>
      </trkpt>
      <trkpt lat="46.57871" lon="6.10566">
        <ele>1114.3</ele>
        <time>2020-07-12T11:52:45Z</time>
      </trkpt>
      <trkpt lat="46.57867" lon="6.10568">
        <ele>1113.7</ele>
        <time>2020-07-12T11:52:49Z</time>
      </trkpt>
      <trkpt lat="46.57862" lon="6.1057">
        <ele>1113.3</ele>
        <time>2020-07-12T11:52:53Z</time>
      </trkpt>
      <trkpt lat="46.57857" lon="6.10571">
        <ele>1112.6</ele>
        <time>2020-07-12T11:53:07Z</time>
      </trkpt>
      <trkpt lat="46.57852" lon="6.10572">
        <ele>1112</ele>
        <time>2020-07-12T11:53:18Z</time>
      </trkpt>
      <trkpt lat="46.57846" lon="6.10573">
        <ele>1111.9</ele>
        <time>2020-07-12T11:53:22Z</time>
      </trkpt>
      <trkpt lat="46.57841" lon="6.10573">
        <ele>1112</ele>
        <time>2020-07-12T11:53:27Z</time>
      </trkpt>
      <trkpt lat="46.57838" lon="6.10577">
        <ele>1113.5</ele>
        <time>2020-07-12T11:53:46Z</time>
      </trkpt>
      <trkpt lat="46.57833" lon="6.1058">
        <ele>1114.1</ele>
        <time>2020-07-12T11:53:52Z</time>
      </trkpt>
      <trkpt lat="46.57827" lon="6.1058">
        <ele>1114.4</ele>
        <time>2020-07-12T11:53:57Z</time>
      </trkpt>
      <trkpt lat="46.57823" lon="6.10581">
        <ele>1114.6</ele>
        <time>2020-07-12T11:54:01Z</time>
      </trkpt>
      <trkpt lat="46.57818" lon="6.10581">
        <ele>1114.8</ele>
        <time>2020-07-12T11:54:05Z</time>
      </trkpt>
      <trkpt lat="46.57813" lon="6.10579">
        <ele>1114.8</ele>
        <time>2020-07-12T11:54:09Z</time>
      </trkpt>
      <trkpt lat="46.57808" lon="6.10578">
        <ele>1115</ele>
        <time>2020-07-12T11:54:14Z</time>
      </trkpt>
      <trkpt lat="46.57803" lon="6.10576">
        <ele>1115.3</ele>
        <time>2020-07-12T11:54:19Z</time>
      </trkpt>
      <trkpt lat="46.57799" lon="6.10575">
        <ele>1115.5</ele>
        <time>2020-07-12T11:54:23Z</time>
      </trkpt>
      <trkpt lat="46.57794" lon="6.10572">
        <ele>1115.6</ele>
        <time>2020-07-12T11:54:27Z</time>
      </trkpt>
      <trkpt lat="46.57789" lon="6.10569">
        <ele>1115.9</ele>
        <time>2020-07-12T11:54:31Z</time>
      </trkpt>
      <trkpt lat="46.57785" lon="6.10566">
        <ele>1116.2</ele>
        <time>2020-07-12T11:54:36Z</time>
      </trkpt>
      <trkpt lat="46.57781" lon="6.10562">
        <ele>1116.6</ele>
        <time>2020-07-12T11:54:41Z</time>
      </trkpt>
      <trkpt lat="46.57776" lon="6.10559">
        <ele>1116.8</ele>
        <time>2020-07-12T11:54:45Z</time>
      </trkpt>
      <trkpt lat="46.57772" lon="6.10555">
        <ele>1117.3</ele>
        <time>2020-07-12T11:54:49Z</time>
      </trkpt>
      <trkpt lat="46.57769" lon="6.10551">
        <ele>1117.7</ele>
        <time>2020-07-12T11:54:52Z</time>
      </trkpt>
      <trkpt lat="46.57766" lon="6.10546">
        <ele>1118</ele>
        <time>2020-07-12T11:54:54Z</time>
      </trkpt>
      <trkpt lat="46.57763" lon="6.1054">
        <ele>1118.4</ele>
        <time>2020-07-12T11:54:57Z</time>
      </trkpt>
      <trkpt lat="46.57759" lon="6.10534">
        <ele>1118.9</ele>
        <time>2020-07-12T11:55:00Z</time>
      </trkpt>
      <trkpt lat="46.57754" lon="6.10529">
        <ele>1119.5</ele>
        <time>2020-07-12T11:55:04Z</time>
      </trkpt>
      <trkpt lat="46.5775" lon="6.10524">
        <ele>1120.4</ele>
        <time>2020-07-12T11:55:08Z</time>
      </trkpt>
      <trkpt lat="46.57747" lon="6.10517">
        <ele>1121.5</ele>
        <time>2020-07-12T11:55:12Z</time>
      </trkpt>
      <trkpt lat="46.57744" lon="6.10512">
        <ele>1123</ele>
        <time>2020-07-12T11:55:17Z</time>
      </trkpt>
      <trkpt lat="46.5774" lon="6.10508">
        <ele>1124.7</ele>
        <time>2020-07-12T11:55:24Z</time>
      </trkpt>
      <trkpt lat="46.57736" lon="6.10504">
        <ele>1125.7</ele>
        <time>2020-07-12T11:55:29Z</time>
      </trkpt>
      <trkpt lat="46.57732" lon="6.10498">
        <ele>1126.4</ele>
        <time>2020-07-12T11:55:34Z</time>
      </trkpt>
      <trkpt lat="46.57729" lon="6.10493">
        <ele>1127.1</ele>
        <time>2020-07-12T11:55:38Z</time>
      </trkpt>
      <trkpt lat="46.57728" lon="6.10486">
        <ele>1128.5</ele>
        <time>2020-07-12T11:55:44Z</time>
      </trkpt>
      <trkpt lat="46.57724" lon="6.10482">
        <ele>1129.7</ele>
        <time>2020-07-12T11:55:50Z</time>
      </trkpt>
      <trkpt lat="46.57721" lon="6.10476">
        <ele>1130.2</ele>
        <time>2020-07-12T11:55:54Z</time>
      </trkpt>
      <trkpt lat="46.57717" lon="6.10471">
        <ele>1131</ele>
        <time>2020-07-12T11:55:59Z</time>
      </trkpt>
      <trkpt lat="46.57715" lon="6.10465">
        <ele>1131.7</ele>
        <time>2020-07-12T11:56:03Z</time>
      </trkpt>
      <trkpt lat="46.57712" lon="6.1046">
        <ele>1132.6</ele>
        <time>2020-07-12T11:56:08Z</time>
      </trkpt>
      <trkpt lat="46.57709" lon="6.10454">
        <ele>1133.6</ele>
        <time>2020-07-12T11:56:13Z</time>
      </trkpt>
      <trkpt lat="46.57707" lon="6.10447">
        <ele>1134.5</ele>
        <time>2020-07-12T11:56:18Z</time>
      </trkpt>
      <trkpt lat="46.57704" lon="6.10442">
        <ele>1135.1</ele>
        <time>2020-07-12T11:56:23Z</time>
      </trkpt>
      <trkpt lat="46.57701" lon="6.10437">
        <ele>1135.6</ele>
        <time>2020-07-12T11:56:28Z</time>
      </trkpt>
      <trkpt lat="46.57697" lon="6.10432">
        <ele>1135.7</ele>
        <time>2020-07-12T11:56:32Z</time>
      </trkpt>
      <trkpt lat="46.57692" lon="6.10428">
        <ele>1135.7</ele>
        <time>2020-07-12T11:56:37Z</time>
      </trkpt>
      <trkpt lat="46.57688" lon="6.10423">
        <ele>1135.9</ele>
        <time>2020-07-12T11:56:45Z</time>
      </trkpt>
      <trkpt lat="46.57684" lon="6.10419">
        <ele>1136.1</ele>
        <time>2020-07-12T11:56:50Z</time>
      </trkpt>
      <trkpt lat="46.5768" lon="6.10415">
        <ele>1136.3</ele>
        <time>2020-07-12T11:56:55Z</time>
      </trkpt>
      <trkpt lat="46.57677" lon="6.10408">
        <ele>1136.8</ele>
        <time>2020-07-12T11:57:01Z</time>
      </trkpt>
      <trkpt lat="46.57674" lon="6.10401">
        <ele>1137.2</ele>
        <time>2020-07-12T11:57:04Z</time>
      </trkpt>
      <trkpt lat="46.57671" lon="6.10395">
        <ele>1137.6</ele>
        <time>2020-07-12T11:57:07Z</time>
      </trkpt>
      <trkpt lat="46.57667" lon="6.10391">
        <ele>1138.4</ele>
        <time>2020-07-12T11:57:12Z</time>
      </trkpt>
      <trkpt lat="46.57663" lon="6.10386">
        <ele>1139.2</ele>
        <time>2020-07-12T11:57:18Z</time>
      </trkpt>
      <trkpt lat="46.57659" lon="6.1038">
        <ele>1139.9</ele>
        <time>2020-07-12T11:57:23Z</time>
      </trkpt>
      <trkpt lat="46.57655" lon="6.10375">
        <ele>1140.7</ele>
        <time>2020-07-12T11:57:29Z</time>
      </trkpt>
      <trkpt lat="46.57652" lon="6.10371">
        <ele>1140.8</ele>
        <time>2020-07-12T11:57:33Z</time>
      </trkpt>
      <trkpt lat="46.57647" lon="6.10366">
        <ele>1141</ele>
        <time>2020-07-12T11:57:37Z</time>
      </trkpt>
      <trkpt lat="46.57645" lon="6.1036">
        <ele>1141.4</ele>
        <time>2020-07-12T11:57:45Z</time>
      </trkpt>
      <trkpt lat="46.57642" lon="6.10354">
        <ele>1141.9</ele>
        <time>2020-07-12T11:57:51Z</time>
      </trkpt>
      <trkpt lat="46.57638" lon="6.10348">
        <ele>1142.3</ele>
        <time>2020-07-12T11:57:55Z</time>
      </trkpt>
      <trkpt lat="46.57635" lon="6.10343">
        <ele>1142.7</ele>
        <time>2020-07-12T11:57:59Z</time>
      </trkpt>
      <trkpt lat="46.57631" lon="6.10338">
        <ele>1143.2</ele>
        <time>2020-07-12T11:58:09Z</time>
      </trkpt>
      <trkpt lat="46.57627" lon="6.10334">
        <ele>1143.2</ele>
        <time>2020-07-12T11:58:13Z</time>
      </trkpt>
      <trkpt lat="46.57623" lon="6.1033">
        <ele>1143.1</ele>
        <time>2020-07-12T11:58:16Z</time>
      </trkpt>
      <trkpt lat="46.5762" lon="6.10326">
        <ele>1142.7</ele>
        <time>2020-07-12T11:58:20Z</time>
      </trkpt>
      <trkpt lat="46.57615" lon="6.10323">
        <ele>1142.1</ele>
        <time>2020-07-12T11:58:24Z</time>
      </trkpt>
      <trkpt lat="46.5761" lon="6.1032">
        <ele>1141.4</ele>
        <time>2020-07-12T11:58:28Z</time>
      </trkpt>
      <trkpt lat="46.57606" lon="6.10315">
        <ele>1140.4</ele>
        <time>2020-07-12T11:58:33Z</time>
      </trkpt>
      <trkpt lat="46.57601" lon="6.10312">
        <ele>1139.9</ele>
        <time>2020-07-12T11:58:38Z</time>
      </trkpt>
      <trkpt lat="46.57596" lon="6.10308">
        <ele>1139.1</ele>
        <time>2020-07-12T11:58:43Z</time>
      </trkpt>
      <trkpt lat="46.57591" lon="6.10306">
        <ele>1138.7</ele>
        <time>2020-07-12T11:58:46Z</time>
      </trkpt>
      <trkpt lat="46.57587" lon="6.10305">
        <ele>1138.3</ele>
        <time>2020-07-12T11:58:49Z</time>
      </trkpt>
      <trkpt lat="46.57582" lon="6.10304">
        <ele>1137.7</ele>
        <time>2020-07-12T11:58:53Z</time>
      </trkpt>
      <trkpt lat="46.57577" lon="6.10301">
        <ele>1136.6</ele>
        <time>2020-07-12T11:58:58Z</time>
      </trkpt>
      <trkpt lat="46.57574" lon="6.10297">
        <ele>1134.5</ele>
        <time>2020-07-12T11:59:05Z</time>
      </trkpt>
      <trkpt lat="46.57569" lon="6.10294">
        <ele>1132.8</ele>
        <time>2020-07-12T11:59:11Z</time>
      </trkpt>
      <trkpt lat="46.57564" lon="6.10292">
        <ele>1131.9</ele>
        <time>2020-07-12T11:59:14Z</time>
      </trkpt>
      <trkpt lat="46.57561" lon="6.10287">
        <ele>1129.8</ele>
        <time>2020-07-12T11:59:22Z</time>
      </trkpt>
      <trkpt lat="46.57556" lon="6.10284">
        <ele>1128.3</ele>
        <time>2020-07-12T11:59:29Z</time>
      </trkpt>
      <trkpt lat="46.57552" lon="6.10279">
        <ele>1127.7</ele>
        <time>2020-07-12T11:59:34Z</time>
      </trkpt>
      <trkpt lat="46.57548" lon="6.10275">
        <ele>1127.8</ele>
        <time>2020-07-12T11:59:38Z</time>
      </trkpt>
      <trkpt lat="46.57543" lon="6.10271">
        <ele>1128.4</ele>
        <time>2020-07-12T11:59:42Z</time>
      </trkpt>
      <trkpt lat="46.57539" lon="6.10265">
        <ele>1129.2</ele>
        <time>2020-07-12T11:59:46Z</time>
      </trkpt>
      <trkpt lat="46.57536" lon="6.10259">
        <ele>1129.9</ele>
        <time>2020-07-12T11:59:49Z</time>
      </trkpt>
      <trkpt lat="46.57533" lon="6.10254">
        <ele>1130.5</ele>
        <time>2020-07-12T11:59:52Z</time>
      </trkpt>
      <trkpt lat="46.5753" lon="6.10247">
        <ele>1131.4</ele>
        <time>2020-07-12T11:59:56Z</time>
      </trkpt>
      <trkpt lat="46.57527" lon="6.10241">
        <ele>1132.3</ele>
        <time>2020-07-12T12:00:00Z</time>
      </trkpt>
      <trkpt lat="46.57525" lon="6.10235">
        <ele>1133.4</ele>
        <time>2020-07-12T12:00:05Z</time>
      </trkpt>
      <trkpt lat="46.57523" lon="6.10228">
        <ele>1135</ele>
        <time>2020-07-12T12:00:12Z</time>
      </trkpt>
      <trkpt lat="46.57521" lon="6.10221">
        <ele>1136</ele>
        <time>2020-07-12T12:00:18Z</time>
      </trkpt>
      <trkpt lat="46.5752" lon="6.10214">
        <ele>1136.3</ele>
        <time>2020-07-12T12:00:23Z</time>
      </trkpt>
      <trkpt lat="46.5752" lon="6.10206">
        <ele>1136.2</ele>
        <time>2020-07-12T12:00:28Z</time>
      </trkpt>
      <trkpt lat="46.57519" lon="6.10199">
        <ele>1135.8</ele>
        <time>2020-07-12T12:00:34Z</time>
      </trkpt>
      <trkpt lat="46.57519" lon="6.10192">
        <ele>1135.3</ele>
        <time>2020-07-12T12:00:41Z</time>
      </trkpt>
      <trkpt lat="46.57519" lon="6.10185">
        <ele>1134.8</ele>
        <time>2020-07-12T12:00:48Z</time>
      </trkpt>
      <trkpt lat="46.57518" lon="6.10178">
        <ele>1134.2</ele>
        <time>2020-07-12T12:00:54Z</time>
      </trkpt>
      <trkpt lat="46.57516" lon="6.10171">
        <ele>1133.9</ele>
        <time>2020-07-12T12:00:58Z</time>
      </trkpt>
      <trkpt lat="46.57514" lon="6.10165">
        <ele>1133.7</ele>
        <time>2020-07-12T12:01:02Z</time>
      </trkpt>
      <trkpt lat="46.57512" lon="6.10158">
        <ele>1133.6</ele>
        <time>2020-07-12T12:01:07Z</time>
      </trkpt>
      <trkpt lat="46.57508" lon="6.10152">
        <ele>1133.7</ele>
        <time>2020-07-12T12:01:13Z</time>
      </trkpt>
      <trkpt lat="46.57506" lon="6.10147">
        <ele>1133.7</ele>
        <time>2020-07-12T12:01:17Z</time>
      </trkpt>
      <trkpt lat="46.57504" lon="6.1014">
        <ele>1133.8</ele>
        <time>2020-07-12T12:01:20Z</time>
      </trkpt>
      <trkpt lat="46.57503" lon="6.10133">
        <ele>1133.8</ele>
        <time>2020-07-12T12:01:23Z</time>
      </trkpt>
      <trkpt lat="46.57502" lon="6.10126">
        <ele>1133.8</ele>
        <time>2020-07-12T12:01:28Z</time>
      </trkpt>
      <trkpt lat="46.575" lon="6.1012">
        <ele>1134.1</ele>
        <time>2020-07-12T12:01:34Z</time>
      </trkpt>
      <trkpt lat="46.57497" lon="6.10114">
        <ele>1134.4</ele>
        <time>2020-07-12T12:01:44Z</time>
      </trkpt>
      <trkpt lat="46.57502" lon="6.10115">
        <ele>1134.3</ele>
        <time>2020-07-12T12:01:58Z</time>
      </trkpt>
      <trkpt lat="46.57506" lon="6.1011">
        <ele>1132.6</ele>
        <time>2020-07-12T12:02:28Z</time>
      </trkpt>
      <trkpt lat="46.57507" lon="6.10104">
        <ele>1132.2</ele>
        <time>2020-07-12T12:02:31Z</time>
      </trkpt>
      <trkpt lat="46.57507" lon="6.10097">
        <ele>1131.6</ele>
        <time>2020-07-12T12:02:34Z</time>
      </trkpt>
      <trkpt lat="46.57508" lon="6.10089">
        <ele>1130.8</ele>
        <time>2020-07-12T12:02:40Z</time>
      </trkpt>
      <trkpt lat="46.57509" lon="6.10083">
        <ele>1130.5</ele>
        <time>2020-07-12T12:02:44Z</time>
      </trkpt>
      <trkpt lat="46.57511" lon="6.10076">
        <ele>1130</ele>
        <time>2020-07-12T12:02:50Z</time>
      </trkpt>
      <trkpt lat="46.57513" lon="6.1007">
        <ele>1129.6</ele>
        <time>2020-07-12T12:02:56Z</time>
      </trkpt>
      <trkpt lat="46.57513" lon="6.10062">
        <ele>1129.3</ele>
        <time>2020-07-12T12:03:03Z</time>
      </trkpt>
      <trkpt lat="46.57512" lon="6.10055">
        <ele>1129.2</ele>
        <time>2020-07-12T12:03:09Z</time>
      </trkpt>
      <trkpt lat="46.5751" lon="6.10049">
        <ele>1129.1</ele>
        <time>2020-07-12T12:03:16Z</time>
      </trkpt>
      <trkpt lat="46.57509" lon="6.10042">
        <ele>1128.8</ele>
        <time>2020-07-12T12:03:25Z</time>
      </trkpt>
      <trkpt lat="46.5751" lon="6.10049">
        <ele>1127.5</ele>
        <time>2020-07-12T12:03:53Z</time>
      </trkpt>
      <trkpt lat="46.57516" lon="6.10061">
        <ele>1126.4</ele>
        <time>2020-07-12T12:04:03Z</time>
      </trkpt>
      <trkpt lat="46.57514" lon="6.10052">
        <ele>1125</ele>
        <time>2020-07-12T12:04:23Z</time>
      </trkpt>
      <trkpt lat="46.57512" lon="6.10046">
        <ele>1124.6</ele>
        <time>2020-07-12T12:04:53Z</time>
      </trkpt>
      <trkpt lat="46.57511" lon="6.10039">
        <ele>1124.8</ele>
        <time>2020-07-12T12:04:59Z</time>
      </trkpt>
      <trkpt lat="46.57508" lon="6.10032">
        <ele>1124.9</ele>
        <time>2020-07-12T12:05:05Z</time>
      </trkpt>
      <trkpt lat="46.57506" lon="6.10025">
        <ele>1125.1</ele>
        <time>2020-07-12T12:05:09Z</time>
      </trkpt>
      <trkpt lat="46.57504" lon="6.10019">
        <ele>1125.5</ele>
        <time>2020-07-12T12:05:15Z</time>
      </trkpt>
      <trkpt lat="46.57503" lon="6.10011">
        <ele>1125.9</ele>
        <time>2020-07-12T12:05:28Z</time>
      </trkpt>
      <trkpt lat="46.575" lon="6.10004">
        <ele>1126.2</ele>
        <time>2020-07-12T12:05:33Z</time>
      </trkpt>
      <trkpt lat="46.57499" lon="6.09997">
        <ele>1126.4</ele>
        <time>2020-07-12T12:05:39Z</time>
      </trkpt>
      <trkpt lat="46.57497" lon="6.0999">
        <ele>1126.4</ele>
        <time>2020-07-12T12:05:44Z</time>
      </trkpt>
      <trkpt lat="46.57495" lon="6.09984">
        <ele>1126.4</ele>
        <time>2020-07-12T12:05:47Z</time>
      </trkpt>
      <trkpt lat="46.57493" lon="6.09976">
        <ele>1126.3</ele>
        <time>2020-07-12T12:05:51Z</time>
      </trkpt>
      <trkpt lat="46.57491" lon="6.0997">
        <ele>1126.2</ele>
        <time>2020-07-12T12:05:57Z</time>
      </trkpt>
      <trkpt lat="46.57488" lon="6.09965">
        <ele>1126.1</ele>
        <time>2020-07-12T12:06:02Z</time>
      </trkpt>
      <trkpt lat="46.57487" lon="6.09958">
        <ele>1126</ele>
        <time>2020-07-12T12:06:06Z</time>
      </trkpt>
      <trkpt lat="46.57485" lon="6.09951">
        <ele>1126</ele>
        <time>2020-07-12T12:06:11Z</time>
      </trkpt>
      <trkpt lat="46.57484" lon="6.09944">
        <ele>1125.9</ele>
        <time>2020-07-12T12:06:16Z</time>
      </trkpt>
      <trkpt lat="46.57481" lon="6.09936">
        <ele>1125.6</ele>
        <time>2020-07-12T12:06:21Z</time>
      </trkpt>
      <trkpt lat="46.57479" lon="6.0993">
        <ele>1125.2</ele>
        <time>2020-07-12T12:06:26Z</time>
      </trkpt>
      <trkpt lat="46.57477" lon="6.09924">
        <ele>1124.8</ele>
        <time>2020-07-12T12:06:31Z</time>
      </trkpt>
      <trkpt lat="46.57474" lon="6.09917">
        <ele>1124.4</ele>
        <time>2020-07-12T12:06:35Z</time>
      </trkpt>
      <trkpt lat="46.57473" lon="6.09911">
        <ele>1123.9</ele>
        <time>2020-07-12T12:06:40Z</time>
      </trkpt>
      <trkpt lat="46.57471" lon="6.09903">
        <ele>1123</ele>
        <time>2020-07-12T12:06:45Z</time>
      </trkpt>
      <trkpt lat="46.57471" lon="6.09897">
        <ele>1122.3</ele>
        <time>2020-07-12T12:06:49Z</time>
      </trkpt>
      <trkpt lat="46.57471" lon="6.0989">
        <ele>1121.8</ele>
        <time>2020-07-12T12:06:53Z</time>
      </trkpt>
      <trkpt lat="46.57471" lon="6.09883">
        <ele>1121</ele>
        <time>2020-07-12T12:06:58Z</time>
      </trkpt>
      <trkpt lat="46.57471" lon="6.09875">
        <ele>1120.5</ele>
        <time>2020-07-12T12:07:02Z</time>
      </trkpt>
      <trkpt lat="46.57472" lon="6.09868">
        <ele>1120</ele>
        <time>2020-07-12T12:07:05Z</time>
      </trkpt>
      <trkpt lat="46.57473" lon="6.09861">
        <ele>1119.3</ele>
        <time>2020-07-12T12:07:10Z</time>
      </trkpt>
      <trkpt lat="46.57474" lon="6.09853">
        <ele>1119</ele>
        <time>2020-07-12T12:07:15Z</time>
      </trkpt>
      <trkpt lat="46.57474" lon="6.09846">
        <ele>1118.7</ele>
        <time>2020-07-12T12:07:19Z</time>
      </trkpt>
      <trkpt lat="46.57474" lon="6.09839">
        <ele>1118.4</ele>
        <time>2020-07-12T12:07:23Z</time>
      </trkpt>
      <trkpt lat="46.57475" lon="6.09831">
        <ele>1118.2</ele>
        <time>2020-07-12T12:07:27Z</time>
      </trkpt>
      <trkpt lat="46.57472" lon="6.09825">
        <ele>1118.2</ele>
        <time>2020-07-12T12:07:33Z</time>
      </trkpt>
      <trkpt lat="46.57473" lon="6.09818">
        <ele>1118.7</ele>
        <time>2020-07-12T12:07:50Z</time>
      </trkpt>
      <trkpt lat="46.57475" lon="6.09812">
        <ele>1122.2</ele>
        <time>2020-07-12T12:08:36Z</time>
      </trkpt>
      <trkpt lat="46.57471" lon="6.09808">
        <ele>1122.1</ele>
        <time>2020-07-12T12:08:45Z</time>
      </trkpt>
      <trkpt lat="46.57474" lon="6.09813">
        <ele>1122.4</ele>
        <time>2020-07-12T12:09:03Z</time>
      </trkpt>
      <trkpt lat="46.57477" lon="6.09818">
        <ele>1119</ele>
        <time>2020-07-12T12:09:49Z</time>
      </trkpt>
      <trkpt lat="46.57481" lon="6.09819">
        <ele>1119.8</ele>
        <time>2020-07-12T12:10:19Z</time>
      </trkpt>
      <trkpt lat="46.57483" lon="6.09813">
        <ele>1119.7</ele>
        <time>2020-07-12T12:10:57Z</time>
      </trkpt>
      <trkpt lat="46.57482" lon="6.09806">
        <ele>1118.6</ele>
        <time>2020-07-12T12:11:06Z</time>
      </trkpt>
      <trkpt lat="46.57481" lon="6.098">
        <ele>1118</ele>
        <time>2020-07-12T12:11:13Z</time>
      </trkpt>
      <trkpt lat="46.5748" lon="6.09793">
        <ele>1116.9</ele>
        <time>2020-07-12T12:11:27Z</time>
      </trkpt>
      <trkpt lat="46.57479" lon="6.09786">
        <ele>1112.3</ele>
        <time>2020-07-12T12:11:44Z</time>
      </trkpt>
      <trkpt lat="46.5748" lon="6.09779">
        <ele>1111</ele>
        <time>2020-07-12T12:11:53Z</time>
      </trkpt>
      <trkpt lat="46.5748" lon="6.09772">
        <ele>1110.7</ele>
        <time>2020-07-12T12:12:01Z</time>
      </trkpt>
      <trkpt lat="46.57481" lon="6.09765">
        <ele>1110.9</ele>
        <time>2020-07-12T12:12:06Z</time>
      </trkpt>
      <trkpt lat="46.57482" lon="6.09758">
        <ele>1111.3</ele>
        <time>2020-07-12T12:12:10Z</time>
      </trkpt>
      <trkpt lat="46.57483" lon="6.09751">
        <ele>1111.7</ele>
        <time>2020-07-12T12:12:14Z</time>
      </trkpt>
      <trkpt lat="46.57484" lon="6.09744">
        <ele>1112.3</ele>
        <time>2020-07-12T12:12:19Z</time>
      </trkpt>
      <trkpt lat="46.57486" lon="6.09737">
        <ele>1112.7</ele>
        <time>2020-07-12T12:12:23Z</time>
      </trkpt>
      <trkpt lat="46.57487" lon="6.0973">
        <ele>1113.1</ele>
        <time>2020-07-12T12:12:28Z</time>
      </trkpt>
      <trkpt lat="46.57487" lon="6.09724">
        <ele>1113.5</ele>
        <time>2020-07-12T12:12:35Z</time>
      </trkpt>
      <trkpt lat="46.57488" lon="6.09716">
        <ele>1113.7</ele>
        <time>2020-07-12T12:12:40Z</time>
      </trkpt>
      <trkpt lat="46.57489" lon="6.09708">
        <ele>1114.1</ele>
        <time>2020-07-12T12:12:44Z</time>
      </trkpt>
      <trkpt lat="46.5749" lon="6.097">
        <ele>1114.6</ele>
        <time>2020-07-12T12:12:48Z</time>
      </trkpt>
      <trkpt lat="46.57491" lon="6.09692">
        <ele>1115.3</ele>
        <time>2020-07-12T12:12:54Z</time>
      </trkpt>
      <trkpt lat="46.57492" lon="6.09685">
        <ele>1115.8</ele>
        <time>2020-07-12T12:13:00Z</time>
      </trkpt>
      <trkpt lat="46.57493" lon="6.09678">
        <ele>1116.2</ele>
        <time>2020-07-12T12:13:04Z</time>
      </trkpt>
      <trkpt lat="46.57494" lon="6.0967">
        <ele>1116.7</ele>
        <time>2020-07-12T12:13:09Z</time>
      </trkpt>
      <trkpt lat="46.57498" lon="6.09664">
        <ele>1117.1</ele>
        <time>2020-07-12T12:13:14Z</time>
      </trkpt>
      <trkpt lat="46.57502" lon="6.0966">
        <ele>1117.1</ele>
        <time>2020-07-12T12:13:19Z</time>
      </trkpt>
      <trkpt lat="46.57506" lon="6.09659">
        <ele>1116.5</ele>
        <time>2020-07-12T12:13:25Z</time>
      </trkpt>
      <trkpt lat="46.57511" lon="6.09656">
        <ele>1115.5</ele>
        <time>2020-07-12T12:13:30Z</time>
      </trkpt>
      <trkpt lat="46.57515" lon="6.09651">
        <ele>1114.6</ele>
        <time>2020-07-12T12:13:35Z</time>
      </trkpt>
      <trkpt lat="46.57518" lon="6.09647">
        <ele>1113.3</ele>
        <time>2020-07-12T12:13:41Z</time>
      </trkpt>
      <trkpt lat="46.57522" lon="6.09644">
        <ele>1111.3</ele>
        <time>2020-07-12T12:13:51Z</time>
      </trkpt>
      <trkpt lat="46.57526" lon="6.0964">
        <ele>1109.9</ele>
        <time>2020-07-12T12:14:02Z</time>
      </trkpt>
      <trkpt lat="46.57531" lon="6.09639">
        <ele>1106.1</ele>
        <time>2020-07-12T12:14:31Z</time>
      </trkpt>
      <trkpt lat="46.57534" lon="6.09633">
        <ele>1104.1</ele>
        <time>2020-07-12T12:14:39Z</time>
      </trkpt>
      <trkpt lat="46.57536" lon="6.09628">
        <ele>1102.2</ele>
        <time>2020-07-12T12:14:46Z</time>
      </trkpt>
      <trkpt lat="46.57539" lon="6.09621">
        <ele>1101</ele>
        <time>2020-07-12T12:14:51Z</time>
      </trkpt>
      <trkpt lat="46.5754" lon="6.09615">
        <ele>1100.2</ele>
        <time>2020-07-12T12:14:55Z</time>
      </trkpt>
      <trkpt lat="46.57541" lon="6.09608">
        <ele>1099.5</ele>
        <time>2020-07-12T12:14:59Z</time>
      </trkpt>
      <trkpt lat="46.5754" lon="6.096">
        <ele>1098.8</ele>
        <time>2020-07-12T12:15:03Z</time>
      </trkpt>
      <trkpt lat="46.57539" lon="6.09593">
        <ele>1098.1</ele>
        <time>2020-07-12T12:15:07Z</time>
      </trkpt>
      <trkpt lat="46.57538" lon="6.09587">
        <ele>1097.5</ele>
        <time>2020-07-12T12:15:11Z</time>
      </trkpt>
      <trkpt lat="46.57537" lon="6.09579">
        <ele>1096.9</ele>
        <time>2020-07-12T12:15:15Z</time>
      </trkpt>
      <trkpt lat="46.57536" lon="6.09571">
        <ele>1096.2</ele>
        <time>2020-07-12T12:15:20Z</time>
      </trkpt>
      <trkpt lat="46.57537" lon="6.09563">
        <ele>1095.3</ele>
        <time>2020-07-12T12:15:25Z</time>
      </trkpt>
      <trkpt lat="46.57536" lon="6.09556">
        <ele>1094.3</ele>
        <time>2020-07-12T12:15:31Z</time>
      </trkpt>
      <trkpt lat="46.57535" lon="6.09548">
        <ele>1093.1</ele>
        <time>2020-07-12T12:15:37Z</time>
      </trkpt>
      <trkpt lat="46.57535" lon="6.09542">
        <ele>1092.5</ele>
        <time>2020-07-12T12:15:42Z</time>
      </trkpt>
      <trkpt lat="46.57535" lon="6.09534">
        <ele>1092.1</ele>
        <time>2020-07-12T12:15:47Z</time>
      </trkpt>
      <trkpt lat="46.57536" lon="6.09527">
        <ele>1091.9</ele>
        <time>2020-07-12T12:15:51Z</time>
      </trkpt>
      <trkpt lat="46.57537" lon="6.0952">
        <ele>1091.6</ele>
        <time>2020-07-12T12:15:56Z</time>
      </trkpt>
      <trkpt lat="46.57538" lon="6.09512">
        <ele>1091.2</ele>
        <time>2020-07-12T12:16:01Z</time>
      </trkpt>
      <trkpt lat="46.57539" lon="6.09505">
        <ele>1090.8</ele>
        <time>2020-07-12T12:16:05Z</time>
      </trkpt>
      <trkpt lat="46.5754" lon="6.09499">
        <ele>1090.5</ele>
        <time>2020-07-12T12:16:09Z</time>
      </trkpt>
      <trkpt lat="46.57542" lon="6.09492">
        <ele>1090.3</ele>
        <time>2020-07-12T12:16:13Z</time>
      </trkpt>
      <trkpt lat="46.57545" lon="6.09486">
        <ele>1090.2</ele>
        <time>2020-07-12T12:16:17Z</time>
      </trkpt>
      <trkpt lat="46.57547" lon="6.0948">
        <ele>1090.2</ele>
        <time>2020-07-12T12:16:22Z</time>
      </trkpt>
      <trkpt lat="46.5755" lon="6.09474">
        <ele>1090.3</ele>
        <time>2020-07-12T12:16:26Z</time>
      </trkpt>
      <trkpt lat="46.57552" lon="6.09468">
        <ele>1090.4</ele>
        <time>2020-07-12T12:16:29Z</time>
      </trkpt>
      <trkpt lat="46.57554" lon="6.09462">
        <ele>1090.4</ele>
        <time>2020-07-12T12:16:33Z</time>
      </trkpt>
      <trkpt lat="46.57555" lon="6.09455">
        <ele>1090.5</ele>
        <time>2020-07-12T12:16:38Z</time>
      </trkpt>
      <trkpt lat="46.57557" lon="6.09449">
        <ele>1090.6</ele>
        <time>2020-07-12T12:16:43Z</time>
      </trkpt>
      <trkpt lat="46.57558" lon="6.09442">
        <ele>1090.7</ele>
        <time>2020-07-12T12:16:49Z</time>
      </trkpt>
      <trkpt lat="46.57559" lon="6.09436">
        <ele>1090.6</ele>
        <time>2020-07-12T12:16:54Z</time>
      </trkpt>
      <trkpt lat="46.57561" lon="6.09429">
        <ele>1090.4</ele>
        <time>2020-07-12T12:16:58Z</time>
      </trkpt>
      <trkpt lat="46.57562" lon="6.09421">
        <ele>1090.2</ele>
        <time>2020-07-12T12:17:02Z</time>
      </trkpt>
      <trkpt lat="46.57562" lon="6.09414">
        <ele>1090.2</ele>
        <time>2020-07-12T12:17:07Z</time>
      </trkpt>
      <trkpt lat="46.57564" lon="6.09407">
        <ele>1090.3</ele>
        <time>2020-07-12T12:17:12Z</time>
      </trkpt>
      <trkpt lat="46.57566" lon="6.09401">
        <ele>1090.4</ele>
        <time>2020-07-12T12:17:17Z</time>
      </trkpt>
      <trkpt lat="46.57566" lon="6.09394">
        <ele>1090</ele>
        <time>2020-07-12T12:17:23Z</time>
      </trkpt>
      <trkpt lat="46.57568" lon="6.09387">
        <ele>1089.4</ele>
        <time>2020-07-12T12:17:27Z</time>
      </trkpt>
      <trkpt lat="46.57571" lon="6.09381">
        <ele>1088.4</ele>
        <time>2020-07-12T12:17:33Z</time>
      </trkpt>
      <trkpt lat="46.57574" lon="6.09376">
        <ele>1087.7</ele>
        <time>2020-07-12T12:17:39Z</time>
      </trkpt>
      <trkpt lat="46.57577" lon="6.0937">
        <ele>1087.4</ele>
        <time>2020-07-12T12:17:47Z</time>
      </trkpt>
      <trkpt lat="46.57582" lon="6.09367">
        <ele>1087.5</ele>
        <time>2020-07-12T12:17:52Z</time>
      </trkpt>
      <trkpt lat="46.57586" lon="6.09364">
        <ele>1087.7</ele>
        <time>2020-07-12T12:17:57Z</time>
      </trkpt>
      <trkpt lat="46.57591" lon="6.09362">
        <ele>1088.1</ele>
        <time>2020-07-12T12:18:03Z</time>
      </trkpt>
      <trkpt lat="46.57596" lon="6.09364">
        <ele>1088.4</ele>
        <time>2020-07-12T12:18:16Z</time>
      </trkpt>
      <trkpt lat="46.57601" lon="6.09368">
        <ele>1088.5</ele>
        <time>2020-07-12T12:18:20Z</time>
      </trkpt>
      <trkpt lat="46.57607" lon="6.0937">
        <ele>1088.5</ele>
        <time>2020-07-12T12:18:23Z</time>
      </trkpt>
      <trkpt lat="46.57612" lon="6.09373">
        <ele>1088.4</ele>
        <time>2020-07-12T12:18:26Z</time>
      </trkpt>
      <trkpt lat="46.57617" lon="6.09375">
        <ele>1088.3</ele>
        <time>2020-07-12T12:18:29Z</time>
      </trkpt>
      <trkpt lat="46.57622" lon="6.09377">
        <ele>1088.1</ele>
        <time>2020-07-12T12:18:34Z</time>
      </trkpt>
      <trkpt lat="46.57627" lon="6.09379">
        <ele>1088</ele>
        <time>2020-07-12T12:18:51Z</time>
      </trkpt>
      <trkpt lat="46.57632" lon="6.09384">
        <ele>1087.8</ele>
        <time>2020-07-12T12:18:57Z</time>
      </trkpt>
      <trkpt lat="46.57637" lon="6.09388">
        <ele>1087.6</ele>
        <time>2020-07-12T12:19:00Z</time>
      </trkpt>
      <trkpt lat="46.57641" lon="6.09392">
        <ele>1087.5</ele>
        <time>2020-07-12T12:19:04Z</time>
      </trkpt>
      <trkpt lat="46.57645" lon="6.09395">
        <ele>1087.5</ele>
        <time>2020-07-12T12:19:10Z</time>
      </trkpt>
      <trkpt lat="46.57649" lon="6.09399">
        <ele>1087.5</ele>
        <time>2020-07-12T12:19:15Z</time>
      </trkpt>
      <trkpt lat="46.57653" lon="6.09403">
        <ele>1087.4</ele>
        <time>2020-07-12T12:19:18Z</time>
      </trkpt>
      <trkpt lat="46.57657" lon="6.09408">
        <ele>1087.3</ele>
        <time>2020-07-12T12:19:21Z</time>
      </trkpt>
      <trkpt lat="46.5766" lon="6.09414">
        <ele>1087.2</ele>
        <time>2020-07-12T12:19:26Z</time>
      </trkpt>
      <trkpt lat="46.57662" lon="6.09422">
        <ele>1087.2</ele>
        <time>2020-07-12T12:19:30Z</time>
      </trkpt>
      <trkpt lat="46.57665" lon="6.09428">
        <ele>1087.5</ele>
        <time>2020-07-12T12:19:34Z</time>
      </trkpt>
      <trkpt lat="46.57667" lon="6.09434">
        <ele>1087.7</ele>
        <time>2020-07-12T12:19:38Z</time>
      </trkpt>
      <trkpt lat="46.5767" lon="6.0944">
        <ele>1087.9</ele>
        <time>2020-07-12T12:19:42Z</time>
      </trkpt>
      <trkpt lat="46.57674" lon="6.09444">
        <ele>1087.8</ele>
        <time>2020-07-12T12:19:46Z</time>
      </trkpt>
      <trkpt lat="46.57678" lon="6.09446">
        <ele>1087.8</ele>
        <time>2020-07-12T12:19:52Z</time>
      </trkpt>
      <trkpt lat="46.57682" lon="6.09448">
        <ele>1087.8</ele>
        <time>2020-07-12T12:19:57Z</time>
      </trkpt>
      <trkpt lat="46.57687" lon="6.09451">
        <ele>1087.9</ele>
        <time>2020-07-12T12:20:02Z</time>
      </trkpt>
      <trkpt lat="46.57691" lon="6.09455">
        <ele>1087.9</ele>
        <time>2020-07-12T12:20:07Z</time>
      </trkpt>
      <trkpt lat="46.57696" lon="6.09461">
        <ele>1087.8</ele>
        <time>2020-07-12T12:20:12Z</time>
      </trkpt>
      <trkpt lat="46.57699" lon="6.09465">
        <ele>1087.7</ele>
        <time>2020-07-12T12:20:15Z</time>
      </trkpt>
      <trkpt lat="46.57703" lon="6.0947">
        <ele>1087.5</ele>
        <time>2020-07-12T12:20:19Z</time>
      </trkpt>
      <trkpt lat="46.57708" lon="6.09473">
        <ele>1087.4</ele>
        <time>2020-07-12T12:20:24Z</time>
      </trkpt>
      <trkpt lat="46.57713" lon="6.09476">
        <ele>1087.4</ele>
        <time>2020-07-12T12:20:28Z</time>
      </trkpt>
      <trkpt lat="46.57718" lon="6.0948">
        <ele>1087.5</ele>
        <time>2020-07-12T12:20:33Z</time>
      </trkpt>
      <trkpt lat="46.57722" lon="6.09485">
        <ele>1087.9</ele>
        <time>2020-07-12T12:20:38Z</time>
      </trkpt>
      <trkpt lat="46.57723" lon="6.09492">
        <ele>1088.1</ele>
        <time>2020-07-12T12:20:44Z</time>
      </trkpt>
      <trkpt lat="46.57726" lon="6.09499">
        <ele>1088.1</ele>
        <time>2020-07-12T12:20:49Z</time>
      </trkpt>
      <trkpt lat="46.5773" lon="6.09504">
        <ele>1088</ele>
        <time>2020-07-12T12:20:53Z</time>
      </trkpt>
      <trkpt lat="46.57734" lon="6.09509">
        <ele>1088.1</ele>
        <time>2020-07-12T12:20:58Z</time>
      </trkpt>
      <trkpt lat="46.57738" lon="6.09514">
        <ele>1088.3</ele>
        <time>2020-07-12T12:21:02Z</time>
      </trkpt>
      <trkpt lat="46.5774" lon="6.09521">
        <ele>1088.5</ele>
        <time>2020-07-12T12:21:06Z</time>
      </trkpt>
      <trkpt lat="46.57742" lon="6.09527">
        <ele>1088.4</ele>
        <time>2020-07-12T12:21:12Z</time>
      </trkpt>
      <trkpt lat="46.57746" lon="6.09532">
        <ele>1088.2</ele>
        <time>2020-07-12T12:21:18Z</time>
      </trkpt>
      <trkpt lat="46.57748" lon="6.09538">
        <ele>1088.2</ele>
        <time>2020-07-12T12:21:24Z</time>
      </trkpt>
      <trkpt lat="46.57749" lon="6.09546">
        <ele>1088.5</ele>
        <time>2020-07-12T12:21:30Z</time>
      </trkpt>
      <trkpt lat="46.57751" lon="6.09553">
        <ele>1088.6</ele>
        <time>2020-07-12T12:21:34Z</time>
      </trkpt>
      <trkpt lat="46.57753" lon="6.09559">
        <ele>1088.6</ele>
        <time>2020-07-12T12:21:37Z</time>
      </trkpt>
      <trkpt lat="46.57755" lon="6.09565">
        <ele>1088.7</ele>
        <time>2020-07-12T12:21:41Z</time>
      </trkpt>
      <trkpt lat="46.57758" lon="6.09571">
        <ele>1088.7</ele>
        <time>2020-07-12T12:21:44Z</time>
      </trkpt>
      <trkpt lat="46.57761" lon="6.09577">
        <ele>1088.8</ele>
        <time>2020-07-12T12:21:47Z</time>
      </trkpt>
      <trkpt lat="46.57764" lon="6.09583">
        <ele>1089</ele>
        <time>2020-07-12T12:21:52Z</time>
      </trkpt>
      <trkpt lat="46.57766" lon="6.09589">
        <ele>1089.2</ele>
        <time>2020-07-12T12:21:56Z</time>
      </trkpt>
      <trkpt lat="46.5777" lon="6.09594">
        <ele>1089.3</ele>
        <time>2020-07-12T12:22:00Z</time>
      </trkpt>
      <trkpt lat="46.57772" lon="6.09599">
        <ele>1089.5</ele>
        <time>2020-07-12T12:22:05Z</time>
      </trkpt>
      <trkpt lat="46.57774" lon="6.0962">
        <ele>1089.2</ele>
        <time>2020-07-12T12:22:21Z</time>
      </trkpt>
      <trkpt lat="46.57775" lon="6.09627">
        <ele>1088.9</ele>
        <time>2020-07-12T12:22:25Z</time>
      </trkpt>
      <trkpt lat="46.57777" lon="6.09635">
        <ele>1088.5</ele>
        <time>2020-07-12T12:22:30Z</time>
      </trkpt>
      <trkpt lat="46.5778" lon="6.09641">
        <ele>1088.3</ele>
        <time>2020-07-12T12:22:34Z</time>
      </trkpt>
      <trkpt lat="46.57783" lon="6.09647">
        <ele>1088.2</ele>
        <time>2020-07-12T12:22:38Z</time>
      </trkpt>
      <trkpt lat="46.57785" lon="6.09654">
        <ele>1088.2</ele>
        <time>2020-07-12T12:22:44Z</time>
      </trkpt>
      <trkpt lat="46.57788" lon="6.09659">
        <ele>1088.2</ele>
        <time>2020-07-12T12:22:49Z</time>
      </trkpt>
      <trkpt lat="46.57792" lon="6.09664">
        <ele>1088</ele>
        <time>2020-07-12T12:22:53Z</time>
      </trkpt>
      <trkpt lat="46.57797" lon="6.09667">
        <ele>1087.9</ele>
        <time>2020-07-12T12:22:59Z</time>
      </trkpt>
      <trkpt lat="46.57802" lon="6.09669">
        <ele>1087.8</ele>
        <time>2020-07-12T12:23:03Z</time>
      </trkpt>
      <trkpt lat="46.57807" lon="6.09672">
        <ele>1087.7</ele>
        <time>2020-07-12T12:23:07Z</time>
      </trkpt>
      <trkpt lat="46.57811" lon="6.09677">
        <ele>1087.6</ele>
        <time>2020-07-12T12:23:11Z</time>
      </trkpt>
      <trkpt lat="46.57815" lon="6.09681">
        <ele>1087.3</ele>
        <time>2020-07-12T12:23:17Z</time>
      </trkpt>
      <trkpt lat="46.57818" lon="6.09686">
        <ele>1087.3</ele>
        <time>2020-07-12T12:23:23Z</time>
      </trkpt>
      <trkpt lat="46.57821" lon="6.09692">
        <ele>1086.8</ele>
        <time>2020-07-12T12:23:31Z</time>
      </trkpt>
      <trkpt lat="46.57824" lon="6.09697">
        <ele>1086.3</ele>
        <time>2020-07-12T12:23:36Z</time>
      </trkpt>
      <trkpt lat="46.57826" lon="6.09703">
        <ele>1085.4</ele>
        <time>2020-07-12T12:23:43Z</time>
      </trkpt>
      <trkpt lat="46.5783" lon="6.09707">
        <ele>1084.6</ele>
        <time>2020-07-12T12:23:49Z</time>
      </trkpt>
      <trkpt lat="46.57835" lon="6.09709">
        <ele>1083.7</ele>
        <time>2020-07-12T12:23:55Z</time>
      </trkpt>
      <trkpt lat="46.57842" lon="6.09712">
        <ele>1081.4</ele>
        <time>2020-07-12T12:24:36Z</time>
      </trkpt>
      <trkpt lat="46.57847" lon="6.09712">
        <ele>1082.4</ele>
        <time>2020-07-12T12:24:49Z</time>
      </trkpt>
      <trkpt lat="46.57851" lon="6.09709">
        <ele>1083</ele>
        <time>2020-07-12T12:25:07Z</time>
      </trkpt>
      <trkpt lat="46.57852" lon="6.09708">
        <ele>1083.2</ele>
        <time>2020-07-12T12:26:53Z</time>
      </trkpt>
      <trkpt lat="46.57853" lon="6.09716">
        <ele>1083.4</ele>
        <time>2020-07-12T12:26:57Z</time>
      </trkpt>
      <trkpt lat="46.57852" lon="6.09724">
        <ele>1083.6</ele>
        <time>2020-07-12T12:27:01Z</time>
      </trkpt>
      <trkpt lat="46.57853" lon="6.09731">
        <ele>1083.7</ele>
        <time>2020-07-12T12:27:05Z</time>
      </trkpt>
      <trkpt lat="46.57855" lon="6.09737">
        <ele>1083.9</ele>
        <time>2020-07-12T12:27:09Z</time>
      </trkpt>
      <trkpt lat="46.57858" lon="6.09743">
        <ele>1083.9</ele>
        <time>2020-07-12T12:27:13Z</time>
      </trkpt>
      <trkpt lat="46.57861" lon="6.09748">
        <ele>1083.5</ele>
        <time>2020-07-12T12:27:19Z</time>
      </trkpt>
      <trkpt lat="46.57865" lon="6.09753">
        <ele>1083.1</ele>
        <time>2020-07-12T12:27:24Z</time>
      </trkpt>
      <trkpt lat="46.57868" lon="6.09758">
        <ele>1082.8</ele>
        <time>2020-07-12T12:27:29Z</time>
      </trkpt>
      <trkpt lat="46.57872" lon="6.09764">
        <ele>1082.5</ele>
        <time>2020-07-12T12:27:34Z</time>
      </trkpt>
      <trkpt lat="46.57875" lon="6.0977">
        <ele>1080.2</ele>
        <time>2020-07-12T12:27:50Z</time>
      </trkpt>
      <trkpt lat="46.57878" lon="6.09774">
        <ele>1079.4</ele>
        <time>2020-07-12T12:27:54Z</time>
      </trkpt>
      <trkpt lat="46.57882" lon="6.09781">
        <ele>1078.6</ele>
        <time>2020-07-12T12:27:59Z</time>
      </trkpt>
      <trkpt lat="46.57886" lon="6.09787">
        <ele>1078.1</ele>
        <time>2020-07-12T12:28:03Z</time>
      </trkpt>
      <trkpt lat="46.5789" lon="6.09793">
        <ele>1077.6</ele>
        <time>2020-07-12T12:28:07Z</time>
      </trkpt>
      <trkpt lat="46.57894" lon="6.09798">
        <ele>1077.4</ele>
        <time>2020-07-12T12:28:11Z</time>
      </trkpt>
      <trkpt lat="46.57898" lon="6.09802">
        <ele>1077.2</ele>
        <time>2020-07-12T12:28:15Z</time>
      </trkpt>
      <trkpt lat="46.57902" lon="6.09807">
        <ele>1077.1</ele>
        <time>2020-07-12T12:28:18Z</time>
      </trkpt>
      <trkpt lat="46.57906" lon="6.09811">
        <ele>1077.2</ele>
        <time>2020-07-12T12:28:22Z</time>
      </trkpt>
      <trkpt lat="46.5791" lon="6.09815">
        <ele>1077.3</ele>
        <time>2020-07-12T12:28:26Z</time>
      </trkpt>
      <trkpt lat="46.57914" lon="6.09819">
        <ele>1077.5</ele>
        <time>2020-07-12T12:28:30Z</time>
      </trkpt>
      <trkpt lat="46.57917" lon="6.09824">
        <ele>1077.6</ele>
        <time>2020-07-12T12:28:33Z</time>
      </trkpt>
      <trkpt lat="46.57921" lon="6.09828">
        <ele>1078</ele>
        <time>2020-07-12T12:28:37Z</time>
      </trkpt>
      <trkpt lat="46.57924" lon="6.09832">
        <ele>1078.3</ele>
        <time>2020-07-12T12:28:41Z</time>
      </trkpt>
      <trkpt lat="46.57928" lon="6.09838">
        <ele>1078.6</ele>
        <time>2020-07-12T12:28:46Z</time>
      </trkpt>
      <trkpt lat="46.57932" lon="6.09842">
        <ele>1078.9</ele>
        <time>2020-07-12T12:28:51Z</time>
      </trkpt>
      <trkpt lat="46.57937" lon="6.09845">
        <ele>1079.1</ele>
        <time>2020-07-12T12:28:56Z</time>
      </trkpt>
      <trkpt lat="46.57942" lon="6.09849">
        <ele>1079.3</ele>
        <time>2020-07-12T12:29:00Z</time>
      </trkpt>
      <trkpt lat="46.57945" lon="6.09854">
        <ele>1079.6</ele>
        <time>2020-07-12T12:29:05Z</time>
      </trkpt>
      <trkpt lat="46.5795" lon="6.09859">
        <ele>1080</ele>
        <time>2020-07-12T12:29:10Z</time>
      </trkpt>
      <trkpt lat="46.57954" lon="6.09863">
        <ele>1080.3</ele>
        <time>2020-07-12T12:29:13Z</time>
      </trkpt>
      <trkpt lat="46.57959" lon="6.09868">
        <ele>1080.7</ele>
        <time>2020-07-12T12:29:17Z</time>
      </trkpt>
      <trkpt lat="46.57962" lon="6.09872">
        <ele>1081.3</ele>
        <time>2020-07-12T12:29:21Z</time>
      </trkpt>
      <trkpt lat="46.57967" lon="6.09877">
        <ele>1082</ele>
        <time>2020-07-12T12:29:26Z</time>
      </trkpt>
      <trkpt lat="46.57971" lon="6.09882">
        <ele>1082.8</ele>
        <time>2020-07-12T12:29:31Z</time>
      </trkpt>
      <trkpt lat="46.57974" lon="6.09889">
        <ele>1083.5</ele>
        <time>2020-07-12T12:29:35Z</time>
      </trkpt>
      <trkpt lat="46.57978" lon="6.09894">
        <ele>1083.9</ele>
        <time>2020-07-12T12:29:39Z</time>
      </trkpt>
      <trkpt lat="46.57981" lon="6.099">
        <ele>1084.3</ele>
        <time>2020-07-12T12:29:45Z</time>
      </trkpt>
      <trkpt lat="46.57982" lon="6.09907">
        <ele>1084.7</ele>
        <time>2020-07-12T12:29:50Z</time>
      </trkpt>
      <trkpt lat="46.57984" lon="6.09914">
        <ele>1085.1</ele>
        <time>2020-07-12T12:29:54Z</time>
      </trkpt>
      <trkpt lat="46.57987" lon="6.0992">
        <ele>1085.4</ele>
        <time>2020-07-12T12:29:59Z</time>
      </trkpt>
      <trkpt lat="46.57992" lon="6.09925">
        <ele>1085.5</ele>
        <time>2020-07-12T12:30:04Z</time>
      </trkpt>
      <trkpt lat="46.57996" lon="6.09929">
        <ele>1085.6</ele>
        <time>2020-07-12T12:30:09Z</time>
      </trkpt>
      <trkpt lat="46.58" lon="6.09933">
        <ele>1085.5</ele>
        <time>2020-07-12T12:30:14Z</time>
      </trkpt>
      <trkpt lat="46.58004" lon="6.09935">
        <ele>1085.2</ele>
        <time>2020-07-12T12:30:19Z</time>
      </trkpt>
      <trkpt lat="46.5801" lon="6.09935">
        <ele>1084.8</ele>
        <time>2020-07-12T12:30:24Z</time>
      </trkpt>
      <trkpt lat="46.58015" lon="6.09934">
        <ele>1084.2</ele>
        <time>2020-07-12T12:30:30Z</time>
      </trkpt>
      <trkpt lat="46.58019" lon="6.09934">
        <ele>1083.9</ele>
        <time>2020-07-12T12:30:33Z</time>
      </trkpt>
      <trkpt lat="46.58025" lon="6.09932">
        <ele>1083.6</ele>
        <time>2020-07-12T12:30:38Z</time>
      </trkpt>
      <trkpt lat="46.5803" lon="6.0993">
        <ele>1083.5</ele>
        <time>2020-07-12T12:30:42Z</time>
      </trkpt>
      <trkpt lat="46.58035" lon="6.09928">
        <ele>1083.4</ele>
        <time>2020-07-12T12:30:47Z</time>
      </trkpt>
      <trkpt lat="46.5804" lon="6.09926">
        <ele>1083.3</ele>
        <time>2020-07-12T12:30:52Z</time>
      </trkpt>
      <trkpt lat="46.58045" lon="6.09923">
        <ele>1083.2</ele>
        <time>2020-07-12T12:30:56Z</time>
      </trkpt>
      <trkpt lat="46.5805" lon="6.0992">
        <ele>1083.1</ele>
        <time>2020-07-12T12:31:01Z</time>
      </trkpt>
      <trkpt lat="46.58055" lon="6.09918">
        <ele>1082.9</ele>
        <time>2020-07-12T12:31:06Z</time>
      </trkpt>
      <trkpt lat="46.5806" lon="6.09916">
        <ele>1082.6</ele>
        <time>2020-07-12T12:31:11Z</time>
      </trkpt>
      <trkpt lat="46.58064" lon="6.09913">
        <ele>1082.5</ele>
        <time>2020-07-12T12:31:16Z</time>
      </trkpt>
      <trkpt lat="46.5807" lon="6.0991">
        <ele>1082.3</ele>
        <time>2020-07-12T12:31:22Z</time>
      </trkpt>
      <trkpt lat="46.58074" lon="6.09909">
        <ele>1082.2</ele>
        <time>2020-07-12T12:31:26Z</time>
      </trkpt>
      <trkpt lat="46.58079" lon="6.09908">
        <ele>1082.3</ele>
        <time>2020-07-12T12:31:29Z</time>
      </trkpt>
      <trkpt lat="46.58084" lon="6.09907">
        <ele>1082.4</ele>
        <time>2020-07-12T12:31:32Z</time>
      </trkpt>
      <trkpt lat="46.58089" lon="6.09904">
        <ele>1082.6</ele>
        <time>2020-07-12T12:31:35Z</time>
      </trkpt>
      <trkpt lat="46.58095" lon="6.09902">
        <ele>1082.9</ele>
        <time>2020-07-12T12:31:38Z</time>
      </trkpt>
      <trkpt lat="46.581" lon="6.09901">
        <ele>1083.1</ele>
        <time>2020-07-12T12:31:41Z</time>
      </trkpt>
      <trkpt lat="46.58105" lon="6.09901">
        <ele>1083.3</ele>
        <time>2020-07-12T12:31:44Z</time>
      </trkpt>
      <trkpt lat="46.5811" lon="6.099">
        <ele>1083.6</ele>
        <time>2020-07-12T12:31:49Z</time>
      </trkpt>
      <trkpt lat="46.58117" lon="6.09895">
        <ele>1084.3</ele>
        <time>2020-07-12T12:32:34Z</time>
      </trkpt>
      <trkpt lat="46.58122" lon="6.09892">
        <ele>1084.2</ele>
        <time>2020-07-12T12:32:38Z</time>
      </trkpt>
      <trkpt lat="46.58127" lon="6.0989">
        <ele>1084.2</ele>
        <time>2020-07-12T12:32:42Z</time>
      </trkpt>
      <trkpt lat="46.58131" lon="6.09887">
        <ele>1084.3</ele>
        <time>2020-07-12T12:32:46Z</time>
      </trkpt>
      <trkpt lat="46.58136" lon="6.09884">
        <ele>1084.5</ele>
        <time>2020-07-12T12:32:50Z</time>
      </trkpt>
      <trkpt lat="46.5814" lon="6.0988">
        <ele>1084.7</ele>
        <time>2020-07-12T12:32:54Z</time>
      </trkpt>
      <trkpt lat="46.58143" lon="6.09873">
        <ele>1084.9</ele>
        <time>2020-07-12T12:32:59Z</time>
      </trkpt>
      <trkpt lat="46.58146" lon="6.09867">
        <ele>1084.7</ele>
        <time>2020-07-12T12:33:04Z</time>
      </trkpt>
      <trkpt lat="46.58149" lon="6.09862">
        <ele>1084.6</ele>
        <time>2020-07-12T12:33:10Z</time>
      </trkpt>
      <trkpt lat="46.58152" lon="6.09856">
        <ele>1084.6</ele>
        <time>2020-07-12T12:33:15Z</time>
      </trkpt>
      <trkpt lat="46.58155" lon="6.0985">
        <ele>1084.6</ele>
        <time>2020-07-12T12:33:20Z</time>
      </trkpt>
      <trkpt lat="46.58158" lon="6.09845">
        <ele>1084.9</ele>
        <time>2020-07-12T12:33:25Z</time>
      </trkpt>
      <trkpt lat="46.5816" lon="6.09838">
        <ele>1085.2</ele>
        <time>2020-07-12T12:33:30Z</time>
      </trkpt>
      <trkpt lat="46.58164" lon="6.09833">
        <ele>1085.3</ele>
        <time>2020-07-12T12:33:34Z</time>
      </trkpt>
      <trkpt lat="46.58167" lon="6.09828">
        <ele>1085.5</ele>
        <time>2020-07-12T12:33:39Z</time>
      </trkpt>
      <trkpt lat="46.5817" lon="6.09822">
        <ele>1085.5</ele>
        <time>2020-07-12T12:33:44Z</time>
      </trkpt>
      <trkpt lat="46.58173" lon="6.09817">
        <ele>1085.7</ele>
        <time>2020-07-12T12:33:48Z</time>
      </trkpt>
      <trkpt lat="46.58176" lon="6.0981">
        <ele>1085.8</ele>
        <time>2020-07-12T12:33:52Z</time>
      </trkpt>
      <trkpt lat="46.58178" lon="6.09803">
        <ele>1085.8</ele>
        <time>2020-07-12T12:33:56Z</time>
      </trkpt>
      <trkpt lat="46.58182" lon="6.09797">
        <ele>1085.9</ele>
        <time>2020-07-12T12:34:00Z</time>
      </trkpt>
      <trkpt lat="46.58184" lon="6.0979">
        <ele>1086.1</ele>
        <time>2020-07-12T12:34:05Z</time>
      </trkpt>
      <trkpt lat="46.58186" lon="6.09784">
        <ele>1086.1</ele>
        <time>2020-07-12T12:34:09Z</time>
      </trkpt>
      <trkpt lat="46.58189" lon="6.09778">
        <ele>1086.1</ele>
        <time>2020-07-12T12:34:13Z</time>
      </trkpt>
      <trkpt lat="46.58192" lon="6.09774">
        <ele>1086.3</ele>
        <time>2020-07-12T12:34:17Z</time>
      </trkpt>
      <trkpt lat="46.58197" lon="6.0977">
        <ele>1086.5</ele>
        <time>2020-07-12T12:34:21Z</time>
      </trkpt>
      <trkpt lat="46.58201" lon="6.09766">
        <ele>1086.7</ele>
        <time>2020-07-12T12:34:26Z</time>
      </trkpt>
      <trkpt lat="46.58205" lon="6.09761">
        <ele>1086.9</ele>
        <time>2020-07-12T12:34:31Z</time>
      </trkpt>
      <trkpt lat="46.58208" lon="6.09756">
        <ele>1086.9</ele>
        <time>2020-07-12T12:34:36Z</time>
      </trkpt>
      <trkpt lat="46.58212" lon="6.09752">
        <ele>1086.9</ele>
        <time>2020-07-12T12:34:40Z</time>
      </trkpt>
      <trkpt lat="46.58216" lon="6.09748">
        <ele>1086.8</ele>
        <time>2020-07-12T12:34:44Z</time>
      </trkpt>
      <trkpt lat="46.58221" lon="6.09744">
        <ele>1086.8</ele>
        <time>2020-07-12T12:34:48Z</time>
      </trkpt>
      <trkpt lat="46.58224" lon="6.09739">
        <ele>1086.7</ele>
        <time>2020-07-12T12:34:52Z</time>
      </trkpt>
      <trkpt lat="46.58228" lon="6.09734">
        <ele>1086.9</ele>
        <time>2020-07-12T12:34:57Z</time>
      </trkpt>
      <trkpt lat="46.58232" lon="6.09729">
        <ele>1087.2</ele>
        <time>2020-07-12T12:35:02Z</time>
      </trkpt>
      <trkpt lat="46.58236" lon="6.09724">
        <ele>1087.5</ele>
        <time>2020-07-12T12:35:07Z</time>
      </trkpt>
      <trkpt lat="46.5824" lon="6.0972">
        <ele>1087.9</ele>
        <time>2020-07-12T12:35:11Z</time>
      </trkpt>
      <trkpt lat="46.58245" lon="6.09715">
        <ele>1088.5</ele>
        <time>2020-07-12T12:35:16Z</time>
      </trkpt>
      <trkpt lat="46.58249" lon="6.09711">
        <ele>1089</ele>
        <time>2020-07-12T12:35:20Z</time>
      </trkpt>
      <trkpt lat="46.58253" lon="6.09706">
        <ele>1089.4</ele>
        <time>2020-07-12T12:35:24Z</time>
      </trkpt>
      <trkpt lat="46.58257" lon="6.09702">
        <ele>1089.5</ele>
        <time>2020-07-12T12:35:29Z</time>
      </trkpt>
      <trkpt lat="46.58261" lon="6.09698">
        <ele>1089.6</ele>
        <time>2020-07-12T12:35:34Z</time>
      </trkpt>
      <trkpt lat="46.58265" lon="6.09694">
        <ele>1089.6</ele>
        <time>2020-07-12T12:35:38Z</time>
      </trkpt>
      <trkpt lat="46.58269" lon="6.09691">
        <ele>1089.5</ele>
        <time>2020-07-12T12:35:43Z</time>
      </trkpt>
      <trkpt lat="46.58273" lon="6.09688">
        <ele>1089.5</ele>
        <time>2020-07-12T12:35:47Z</time>
      </trkpt>
      <trkpt lat="46.58276" lon="6.09683">
        <ele>1089.7</ele>
        <time>2020-07-12T12:35:52Z</time>
      </trkpt>
      <trkpt lat="46.5828" lon="6.09678">
        <ele>1089.8</ele>
        <time>2020-07-12T12:35:56Z</time>
      </trkpt>
      <trkpt lat="46.58285" lon="6.09674">
        <ele>1090.3</ele>
        <time>2020-07-12T12:36:01Z</time>
      </trkpt>
      <trkpt lat="46.58289" lon="6.09671">
        <ele>1090.6</ele>
        <time>2020-07-12T12:36:05Z</time>
      </trkpt>
      <trkpt lat="46.58293" lon="6.09666">
        <ele>1090.8</ele>
        <time>2020-07-12T12:36:10Z</time>
      </trkpt>
      <trkpt lat="46.58292" lon="6.0966">
        <ele>1090.9</ele>
        <time>2020-07-12T12:36:26Z</time>
      </trkpt>
      <trkpt lat="46.58297" lon="6.09657">
        <ele>1091</ele>
        <time>2020-07-12T12:36:32Z</time>
      </trkpt>
      <trkpt lat="46.58302" lon="6.09655">
        <ele>1090.9</ele>
        <time>2020-07-12T12:36:36Z</time>
      </trkpt>
      <trkpt lat="46.58307" lon="6.09654">
        <ele>1090.7</ele>
        <time>2020-07-12T12:36:40Z</time>
      </trkpt>
      <trkpt lat="46.58312" lon="6.09653">
        <ele>1090.5</ele>
        <time>2020-07-12T12:36:44Z</time>
      </trkpt>
      <trkpt lat="46.58317" lon="6.09648">
        <ele>1090.2</ele>
        <time>2020-07-12T12:36:49Z</time>
      </trkpt>
      <trkpt lat="46.58319" lon="6.09641">
        <ele>1089.9</ele>
        <time>2020-07-12T12:36:54Z</time>
      </trkpt>
      <trkpt lat="46.58322" lon="6.09635">
        <ele>1089.8</ele>
        <time>2020-07-12T12:36:57Z</time>
      </trkpt>
      <trkpt lat="46.58327" lon="6.0963">
        <ele>1089.7</ele>
        <time>2020-07-12T12:37:00Z</time>
      </trkpt>
      <trkpt lat="46.58331" lon="6.09626">
        <ele>1089.5</ele>
        <time>2020-07-12T12:37:04Z</time>
      </trkpt>
      <trkpt lat="46.58334" lon="6.09622">
        <ele>1089.3</ele>
        <time>2020-07-12T12:37:08Z</time>
      </trkpt>
      <trkpt lat="46.58338" lon="6.09615">
        <ele>1089.2</ele>
        <time>2020-07-12T12:37:12Z</time>
      </trkpt>
      <trkpt lat="46.58342" lon="6.0961">
        <ele>1089.3</ele>
        <time>2020-07-12T12:37:16Z</time>
      </trkpt>
      <trkpt lat="46.58346" lon="6.09606">
        <ele>1089.3</ele>
        <time>2020-07-12T12:37:19Z</time>
      </trkpt>
      <trkpt lat="46.5835" lon="6.09601">
        <ele>1089.6</ele>
        <time>2020-07-12T12:37:24Z</time>
      </trkpt>
      <trkpt lat="46.58355" lon="6.09598">
        <ele>1090.1</ele>
        <time>2020-07-12T12:37:30Z</time>
      </trkpt>
      <trkpt lat="46.58359" lon="6.09595">
        <ele>1090.4</ele>
        <time>2020-07-12T12:37:35Z</time>
      </trkpt>
      <trkpt lat="46.58364" lon="6.09593">
        <ele>1090.7</ele>
        <time>2020-07-12T12:37:41Z</time>
      </trkpt>
      <trkpt lat="46.58368" lon="6.09588">
        <ele>1091.1</ele>
        <time>2020-07-12T12:37:48Z</time>
      </trkpt>
      <trkpt lat="46.58371" lon="6.09584">
        <ele>1090.1</ele>
        <time>2020-07-12T12:38:10Z</time>
      </trkpt>
      <trkpt lat="46.58375" lon="6.09577">
        <ele>1090.2</ele>
        <time>2020-07-12T12:38:18Z</time>
      </trkpt>
      <trkpt lat="46.58377" lon="6.09571">
        <ele>1090.4</ele>
        <time>2020-07-12T12:38:23Z</time>
      </trkpt>
      <trkpt lat="46.58379" lon="6.09565">
        <ele>1090.8</ele>
        <time>2020-07-12T12:38:33Z</time>
      </trkpt>
      <trkpt lat="46.58384" lon="6.09562">
        <ele>1091</ele>
        <time>2020-07-12T12:38:38Z</time>
      </trkpt>
      <trkpt lat="46.58387" lon="6.09558">
        <ele>1091.4</ele>
        <time>2020-07-12T12:38:42Z</time>
      </trkpt>
      <trkpt lat="46.5839" lon="6.09551">
        <ele>1091.6</ele>
        <time>2020-07-12T12:38:48Z</time>
      </trkpt>
      <trkpt lat="46.58392" lon="6.09545">
        <ele>1092</ele>
        <time>2020-07-12T12:38:51Z</time>
      </trkpt>
      <trkpt lat="46.58393" lon="6.09536">
        <ele>1092.3</ele>
        <time>2020-07-12T12:38:55Z</time>
      </trkpt>
      <trkpt lat="46.58393" lon="6.09529">
        <ele>1092.6</ele>
        <time>2020-07-12T12:38:59Z</time>
      </trkpt>
      <trkpt lat="46.58392" lon="6.09522">
        <ele>1093.2</ele>
        <time>2020-07-12T12:39:04Z</time>
      </trkpt>
      <trkpt lat="46.5839" lon="6.09514">
        <ele>1093.7</ele>
        <time>2020-07-12T12:39:09Z</time>
      </trkpt>
      <trkpt lat="46.58387" lon="6.09509">
        <ele>1094.1</ele>
        <time>2020-07-12T12:39:13Z</time>
      </trkpt>
      <trkpt lat="46.58384" lon="6.09504">
        <ele>1094.3</ele>
        <time>2020-07-12T12:39:18Z</time>
      </trkpt>
      <trkpt lat="46.5838" lon="6.09498">
        <ele>1094.4</ele>
        <time>2020-07-12T12:39:23Z</time>
      </trkpt>
      <trkpt lat="46.58378" lon="6.09493">
        <ele>1094.4</ele>
        <time>2020-07-12T12:39:27Z</time>
      </trkpt>
      <trkpt lat="46.58375" lon="6.09486">
        <ele>1094.5</ele>
        <time>2020-07-12T12:39:32Z</time>
      </trkpt>
      <trkpt lat="46.58373" lon="6.09479">
        <ele>1094.8</ele>
        <time>2020-07-12T12:39:36Z</time>
      </trkpt>
      <trkpt lat="46.58372" lon="6.09472">
        <ele>1095.1</ele>
        <time>2020-07-12T12:39:40Z</time>
      </trkpt>
      <trkpt lat="46.58371" lon="6.09466">
        <ele>1095.5</ele>
        <time>2020-07-12T12:39:44Z</time>
      </trkpt>
      <trkpt lat="46.58371" lon="6.09458">
        <ele>1096</ele>
        <time>2020-07-12T12:39:49Z</time>
      </trkpt>
      <trkpt lat="46.58371" lon="6.09451">
        <ele>1096.7</ele>
        <time>2020-07-12T12:39:55Z</time>
      </trkpt>
      <trkpt lat="46.5837" lon="6.09443">
        <ele>1097.4</ele>
        <time>2020-07-12T12:39:59Z</time>
      </trkpt>
      <trkpt lat="46.5837" lon="6.09434">
        <ele>1097.9</ele>
        <time>2020-07-12T12:40:04Z</time>
      </trkpt>
      <trkpt lat="46.5837" lon="6.09427">
        <ele>1098.3</ele>
        <time>2020-07-12T12:40:07Z</time>
      </trkpt>
      <trkpt lat="46.58371" lon="6.0942">
        <ele>1098.7</ele>
        <time>2020-07-12T12:40:10Z</time>
      </trkpt>
      <trkpt lat="46.58373" lon="6.09412">
        <ele>1099.1</ele>
        <time>2020-07-12T12:40:14Z</time>
      </trkpt>
      <trkpt lat="46.58374" lon="6.09405">
        <ele>1099.5</ele>
        <time>2020-07-12T12:40:19Z</time>
      </trkpt>
      <trkpt lat="46.58374" lon="6.09398">
        <ele>1099.6</ele>
        <time>2020-07-12T12:40:23Z</time>
      </trkpt>
      <trkpt lat="46.58375" lon="6.09391">
        <ele>1099.8</ele>
        <time>2020-07-12T12:40:27Z</time>
      </trkpt>
      <trkpt lat="46.58374" lon="6.09384">
        <ele>1099.8</ele>
        <time>2020-07-12T12:40:31Z</time>
      </trkpt>
      <trkpt lat="46.58374" lon="6.09378">
        <ele>1099.9</ele>
        <time>2020-07-12T12:40:35Z</time>
      </trkpt>
      <trkpt lat="46.58373" lon="6.0937">
        <ele>1099.9</ele>
        <time>2020-07-12T12:40:39Z</time>
      </trkpt>
      <trkpt lat="46.58373" lon="6.09362">
        <ele>1100.2</ele>
        <time>2020-07-12T12:40:43Z</time>
      </trkpt>
      <trkpt lat="46.58374" lon="6.09355">
        <ele>1100.7</ele>
        <time>2020-07-12T12:40:48Z</time>
      </trkpt>
      <trkpt lat="46.58375" lon="6.09348">
        <ele>1101</ele>
        <time>2020-07-12T12:40:52Z</time>
      </trkpt>
      <trkpt lat="46.58374" lon="6.0934">
        <ele>1101.3</ele>
        <time>2020-07-12T12:40:57Z</time>
      </trkpt>
      <trkpt lat="46.58375" lon="6.09333">
        <ele>1101.4</ele>
        <time>2020-07-12T12:41:01Z</time>
      </trkpt>
      <trkpt lat="46.58376" lon="6.09327">
        <ele>1101.6</ele>
        <time>2020-07-12T12:41:05Z</time>
      </trkpt>
      <trkpt lat="46.58376" lon="6.0932">
        <ele>1101.8</ele>
        <time>2020-07-12T12:41:09Z</time>
      </trkpt>
      <trkpt lat="46.58378" lon="6.09304">
        <ele>1102.1</ele>
        <time>2020-07-12T12:41:17Z</time>
      </trkpt>
      <trkpt lat="46.58378" lon="6.09297">
        <ele>1102.1</ele>
        <time>2020-07-12T12:41:20Z</time>
      </trkpt>
      <trkpt lat="46.58378" lon="6.0929">
        <ele>1102.2</ele>
        <time>2020-07-12T12:41:24Z</time>
      </trkpt>
      <trkpt lat="46.58379" lon="6.09283">
        <ele>1102.2</ele>
        <time>2020-07-12T12:41:27Z</time>
      </trkpt>
      <trkpt lat="46.5838" lon="6.09276">
        <ele>1102.4</ele>
        <time>2020-07-12T12:41:31Z</time>
      </trkpt>
      <trkpt lat="46.5838" lon="6.09256">
        <ele>1102.9</ele>
        <time>2020-07-12T12:41:44Z</time>
      </trkpt>
      <trkpt lat="46.5838" lon="6.09248">
        <ele>1103</ele>
        <time>2020-07-12T12:41:48Z</time>
      </trkpt>
      <trkpt lat="46.58381" lon="6.09241">
        <ele>1103.3</ele>
        <time>2020-07-12T12:41:52Z</time>
      </trkpt>
      <trkpt lat="46.58381" lon="6.09234">
        <ele>1103.5</ele>
        <time>2020-07-12T12:41:58Z</time>
      </trkpt>
      <trkpt lat="46.58382" lon="6.09226">
        <ele>1103.8</ele>
        <time>2020-07-12T12:42:03Z</time>
      </trkpt>
      <trkpt lat="46.58382" lon="6.09218">
        <ele>1103.9</ele>
        <time>2020-07-12T12:42:06Z</time>
      </trkpt>
      <trkpt lat="46.58383" lon="6.09211">
        <ele>1104</ele>
        <time>2020-07-12T12:42:09Z</time>
      </trkpt>
      <trkpt lat="46.58384" lon="6.09203">
        <ele>1104.1</ele>
        <time>2020-07-12T12:42:14Z</time>
      </trkpt>
      <trkpt lat="46.58385" lon="6.09197">
        <ele>1104.2</ele>
        <time>2020-07-12T12:42:19Z</time>
      </trkpt>
      <trkpt lat="46.58385" lon="6.0919">
        <ele>1104.1</ele>
        <time>2020-07-12T12:42:24Z</time>
      </trkpt>
      <trkpt lat="46.58386" lon="6.09182">
        <ele>1103.9</ele>
        <time>2020-07-12T12:42:28Z</time>
      </trkpt>
      <trkpt lat="46.58387" lon="6.09175">
        <ele>1103.7</ele>
        <time>2020-07-12T12:42:32Z</time>
      </trkpt>
      <trkpt lat="46.58388" lon="6.09168">
        <ele>1103.2</ele>
        <time>2020-07-12T12:42:37Z</time>
      </trkpt>
      <trkpt lat="46.5839" lon="6.0916">
        <ele>1102.5</ele>
        <time>2020-07-12T12:42:42Z</time>
      </trkpt>
      <trkpt lat="46.58391" lon="6.09153">
        <ele>1101.9</ele>
        <time>2020-07-12T12:42:46Z</time>
      </trkpt>
      <trkpt lat="46.58392" lon="6.09146">
        <ele>1101.4</ele>
        <time>2020-07-12T12:42:50Z</time>
      </trkpt>
      <trkpt lat="46.58393" lon="6.09139">
        <ele>1101</ele>
        <time>2020-07-12T12:42:56Z</time>
      </trkpt>
      <trkpt lat="46.58393" lon="6.09131">
        <ele>1100.8</ele>
        <time>2020-07-12T12:43:00Z</time>
      </trkpt>
      <trkpt lat="46.58394" lon="6.09125">
        <ele>1100.7</ele>
        <time>2020-07-12T12:43:03Z</time>
      </trkpt>
      <trkpt lat="46.58394" lon="6.09116">
        <ele>1100.5</ele>
        <time>2020-07-12T12:43:07Z</time>
      </trkpt>
      <trkpt lat="46.58395" lon="6.09108">
        <ele>1100.5</ele>
        <time>2020-07-12T12:43:11Z</time>
      </trkpt>
      <trkpt lat="46.58395" lon="6.09101">
        <ele>1100.6</ele>
        <time>2020-07-12T12:43:15Z</time>
      </trkpt>
      <trkpt lat="46.58396" lon="6.09094">
        <ele>1100.5</ele>
        <time>2020-07-12T12:43:19Z</time>
      </trkpt>
      <trkpt lat="46.58397" lon="6.09087">
        <ele>1100.5</ele>
        <time>2020-07-12T12:43:24Z</time>
      </trkpt>
      <trkpt lat="46.58398" lon="6.09081">
        <ele>1100.4</ele>
        <time>2020-07-12T12:43:28Z</time>
      </trkpt>
      <trkpt lat="46.58399" lon="6.09074">
        <ele>1100.2</ele>
        <time>2020-07-12T12:43:33Z</time>
      </trkpt>
      <trkpt lat="46.584" lon="6.09066">
        <ele>1099.7</ele>
        <time>2020-07-12T12:43:38Z</time>
      </trkpt>
      <trkpt lat="46.58402" lon="6.09059">
        <ele>1099.2</ele>
        <time>2020-07-12T12:43:42Z</time>
      </trkpt>
      <trkpt lat="46.58403" lon="6.09052">
        <ele>1098.8</ele>
        <time>2020-07-12T12:43:46Z</time>
      </trkpt>
      <trkpt lat="46.58403" lon="6.09043">
        <ele>1098.4</ele>
        <time>2020-07-12T12:43:50Z</time>
      </trkpt>
      <trkpt lat="46.58403" lon="6.09037">
        <ele>1098.1</ele>
        <time>2020-07-12T12:43:53Z</time>
      </trkpt>
      <trkpt lat="46.58403" lon="6.09028">
        <ele>1097.8</ele>
        <time>2020-07-12T12:43:57Z</time>
      </trkpt>
      <trkpt lat="46.58402" lon="6.09022">
        <ele>1097.6</ele>
        <time>2020-07-12T12:44:01Z</time>
      </trkpt>
      <trkpt lat="46.58401" lon="6.09014">
        <ele>1097.6</ele>
        <time>2020-07-12T12:44:05Z</time>
      </trkpt>
      <trkpt lat="46.584" lon="6.09005">
        <ele>1097.6</ele>
        <time>2020-07-12T12:44:09Z</time>
      </trkpt>
      <trkpt lat="46.58401" lon="6.08997">
        <ele>1097.7</ele>
        <time>2020-07-12T12:44:13Z</time>
      </trkpt>
      <trkpt lat="46.58401" lon="6.0899">
        <ele>1097.7</ele>
        <time>2020-07-12T12:44:16Z</time>
      </trkpt>
      <trkpt lat="46.58402" lon="6.08981">
        <ele>1098.1</ele>
        <time>2020-07-12T12:44:20Z</time>
      </trkpt>
      <trkpt lat="46.58401" lon="6.08974">
        <ele>1098.6</ele>
        <time>2020-07-12T12:44:24Z</time>
      </trkpt>
      <trkpt lat="46.58401" lon="6.08967">
        <ele>1099.2</ele>
        <time>2020-07-12T12:44:30Z</time>
      </trkpt>
      <trkpt lat="46.58404" lon="6.0896">
        <ele>1099.2</ele>
        <time>2020-07-12T12:44:34Z</time>
      </trkpt>
      <trkpt lat="46.58406" lon="6.08955">
        <ele>1099.2</ele>
        <time>2020-07-12T12:44:38Z</time>
      </trkpt>
      <trkpt lat="46.58408" lon="6.08948">
        <ele>1099.1</ele>
        <time>2020-07-12T12:44:42Z</time>
      </trkpt>
      <trkpt lat="46.5841" lon="6.08941">
        <ele>1098.9</ele>
        <time>2020-07-12T12:44:46Z</time>
      </trkpt>
      <trkpt lat="46.58413" lon="6.08933">
        <ele>1098.9</ele>
        <time>2020-07-12T12:44:51Z</time>
      </trkpt>
      <trkpt lat="46.58415" lon="6.08926">
        <ele>1099</ele>
        <time>2020-07-12T12:44:55Z</time>
      </trkpt>
      <trkpt lat="46.58416" lon="6.0892">
        <ele>1099.1</ele>
        <time>2020-07-12T12:44:59Z</time>
      </trkpt>
      <trkpt lat="46.58418" lon="6.08914">
        <ele>1099</ele>
        <time>2020-07-12T12:45:04Z</time>
      </trkpt>
      <trkpt lat="46.58421" lon="6.08907">
        <ele>1098.9</ele>
        <time>2020-07-12T12:45:08Z</time>
      </trkpt>
      <trkpt lat="46.58422" lon="6.08899">
        <ele>1098.8</ele>
        <time>2020-07-12T12:45:12Z</time>
      </trkpt>
      <trkpt lat="46.58424" lon="6.08893">
        <ele>1098.6</ele>
        <time>2020-07-12T12:45:17Z</time>
      </trkpt>
      <trkpt lat="46.58426" lon="6.08886">
        <ele>1098.2</ele>
        <time>2020-07-12T12:45:20Z</time>
      </trkpt>
      <trkpt lat="46.58428" lon="6.08879">
        <ele>1097.9</ele>
        <time>2020-07-12T12:45:23Z</time>
      </trkpt>
      <trkpt lat="46.58431" lon="6.08872">
        <ele>1097.5</ele>
        <time>2020-07-12T12:45:28Z</time>
      </trkpt>
      <trkpt lat="46.58433" lon="6.08866">
        <ele>1097.3</ele>
        <time>2020-07-12T12:45:33Z</time>
      </trkpt>
      <trkpt lat="46.58435" lon="6.08859">
        <ele>1097.2</ele>
        <time>2020-07-12T12:45:38Z</time>
      </trkpt>
      <trkpt lat="46.58437" lon="6.08852">
        <ele>1096.9</ele>
        <time>2020-07-12T12:45:43Z</time>
      </trkpt>
      <trkpt lat="46.5844" lon="6.08846">
        <ele>1096.6</ele>
        <time>2020-07-12T12:45:47Z</time>
      </trkpt>
      <trkpt lat="46.58442" lon="6.08839">
        <ele>1096.2</ele>
        <time>2020-07-12T12:45:51Z</time>
      </trkpt>
      <trkpt lat="46.58444" lon="6.08833">
        <ele>1095.8</ele>
        <time>2020-07-12T12:45:55Z</time>
      </trkpt>
      <trkpt lat="46.58446" lon="6.08827">
        <ele>1095.4</ele>
        <time>2020-07-12T12:45:59Z</time>
      </trkpt>
      <trkpt lat="46.58449" lon="6.08819">
        <ele>1095</ele>
        <time>2020-07-12T12:46:04Z</time>
      </trkpt>
      <trkpt lat="46.58451" lon="6.08813">
        <ele>1094.9</ele>
        <time>2020-07-12T12:46:08Z</time>
      </trkpt>
      <trkpt lat="46.58454" lon="6.08807">
        <ele>1094.7</ele>
        <time>2020-07-12T12:46:12Z</time>
      </trkpt>
      <trkpt lat="46.58456" lon="6.088">
        <ele>1094.5</ele>
        <time>2020-07-12T12:46:16Z</time>
      </trkpt>
      <trkpt lat="46.58459" lon="6.08793">
        <ele>1094.1</ele>
        <time>2020-07-12T12:46:21Z</time>
      </trkpt>
      <trkpt lat="46.58461" lon="6.08787">
        <ele>1093.7</ele>
        <time>2020-07-12T12:46:26Z</time>
      </trkpt>
      <trkpt lat="46.58464" lon="6.08781">
        <ele>1093.3</ele>
        <time>2020-07-12T12:46:31Z</time>
      </trkpt>
      <trkpt lat="46.58468" lon="6.08774">
        <ele>1092.9</ele>
        <time>2020-07-12T12:46:35Z</time>
      </trkpt>
      <trkpt lat="46.58471" lon="6.08767">
        <ele>1092.7</ele>
        <time>2020-07-12T12:46:38Z</time>
      </trkpt>
      <trkpt lat="46.58473" lon="6.08757">
        <ele>1092.7</ele>
        <time>2020-07-12T12:46:41Z</time>
      </trkpt>
      <trkpt lat="46.58473" lon="6.08751">
        <ele>1092.7</ele>
        <time>2020-07-12T12:46:43Z</time>
      </trkpt>
      <trkpt lat="46.58473" lon="6.08743">
        <ele>1093.1</ele>
        <time>2020-07-12T12:46:47Z</time>
      </trkpt>
      <trkpt lat="46.58474" lon="6.08735">
        <ele>1093.9</ele>
        <time>2020-07-12T12:46:51Z</time>
      </trkpt>
      <trkpt lat="46.58475" lon="6.08727">
        <ele>1094.6</ele>
        <time>2020-07-12T12:46:55Z</time>
      </trkpt>
      <trkpt lat="46.58476" lon="6.0872">
        <ele>1095.3</ele>
        <time>2020-07-12T12:46:58Z</time>
      </trkpt>
      <trkpt lat="46.58476" lon="6.08711">
        <ele>1096</ele>
        <time>2020-07-12T12:47:02Z</time>
      </trkpt>
      <trkpt lat="46.58476" lon="6.08705">
        <ele>1096.6</ele>
        <time>2020-07-12T12:47:05Z</time>
      </trkpt>
      <trkpt lat="46.58475" lon="6.08697">
        <ele>1097.3</ele>
        <time>2020-07-12T12:47:09Z</time>
      </trkpt>
      <trkpt lat="46.58476" lon="6.0869">
        <ele>1098</ele>
        <time>2020-07-12T12:47:13Z</time>
      </trkpt>
      <trkpt lat="46.58479" lon="6.08684">
        <ele>1098.5</ele>
        <time>2020-07-12T12:47:18Z</time>
      </trkpt>
      <trkpt lat="46.58483" lon="6.08681">
        <ele>1098.9</ele>
        <time>2020-07-12T12:47:22Z</time>
      </trkpt>
      <trkpt lat="46.58487" lon="6.08676">
        <ele>1099.2</ele>
        <time>2020-07-12T12:47:26Z</time>
      </trkpt>
      <trkpt lat="46.58491" lon="6.08672">
        <ele>1099.4</ele>
        <time>2020-07-12T12:47:32Z</time>
      </trkpt>
      <trkpt lat="46.58495" lon="6.08669">
        <ele>1099.3</ele>
        <time>2020-07-12T12:47:38Z</time>
      </trkpt>
      <trkpt lat="46.58499" lon="6.08666">
        <ele>1099.1</ele>
        <time>2020-07-12T12:47:42Z</time>
      </trkpt>
      <trkpt lat="46.58504" lon="6.08663">
        <ele>1098.7</ele>
        <time>2020-07-12T12:47:46Z</time>
      </trkpt>
      <trkpt lat="46.58508" lon="6.0866">
        <ele>1098.3</ele>
        <time>2020-07-12T12:47:51Z</time>
      </trkpt>
      <trkpt lat="46.58513" lon="6.08656">
        <ele>1098</ele>
        <time>2020-07-12T12:47:57Z</time>
      </trkpt>
      <trkpt lat="46.58518" lon="6.08652">
        <ele>1098.2</ele>
        <time>2020-07-12T12:48:01Z</time>
      </trkpt>
      <trkpt lat="46.58523" lon="6.08649">
        <ele>1098.3</ele>
        <time>2020-07-12T12:48:06Z</time>
      </trkpt>
      <trkpt lat="46.58525" lon="6.08643">
        <ele>1098.3</ele>
        <time>2020-07-12T12:48:18Z</time>
      </trkpt>
      <trkpt lat="46.58525" lon="6.08632">
        <ele>1100.7</ele>
        <time>2020-07-12T12:50:55Z</time>
      </trkpt>
      <trkpt lat="46.58527" lon="6.08625">
        <ele>1101.3</ele>
        <time>2020-07-12T12:50:58Z</time>
      </trkpt>
      <trkpt lat="46.58528" lon="6.08619">
        <ele>1102.1</ele>
        <time>2020-07-12T12:51:02Z</time>
      </trkpt>
      <trkpt lat="46.58529" lon="6.08612">
        <ele>1103.6</ele>
        <time>2020-07-12T12:51:10Z</time>
      </trkpt>
      <trkpt lat="46.58531" lon="6.08604">
        <ele>1104.8</ele>
        <time>2020-07-12T12:51:18Z</time>
      </trkpt>
      <trkpt lat="46.58531" lon="6.08597">
        <ele>1105.7</ele>
        <time>2020-07-12T12:51:23Z</time>
      </trkpt>
      <trkpt lat="46.5853" lon="6.08591">
        <ele>1106.4</ele>
        <time>2020-07-12T12:51:27Z</time>
      </trkpt>
      <trkpt lat="46.58531" lon="6.08583">
        <ele>1107</ele>
        <time>2020-07-12T12:51:32Z</time>
      </trkpt>
      <trkpt lat="46.58532" lon="6.08575">
        <ele>1107.6</ele>
        <time>2020-07-12T12:51:37Z</time>
      </trkpt>
      <trkpt lat="46.58534" lon="6.08569">
        <ele>1108.2</ele>
        <time>2020-07-12T12:51:42Z</time>
      </trkpt>
      <trkpt lat="46.58545" lon="6.08547">
        <ele>1107.2</ele>
        <time>2020-07-12T12:52:00Z</time>
      </trkpt>
      <trkpt lat="46.58548" lon="6.0854">
        <ele>1106.9</ele>
        <time>2020-07-12T12:52:03Z</time>
      </trkpt>
      <trkpt lat="46.58551" lon="6.08534">
        <ele>1106.7</ele>
        <time>2020-07-12T12:52:07Z</time>
      </trkpt>
      <trkpt lat="46.58553" lon="6.08529">
        <ele>1106.6</ele>
        <time>2020-07-12T12:52:11Z</time>
      </trkpt>
      <trkpt lat="46.58553" lon="6.08521">
        <ele>1106.6</ele>
        <time>2020-07-12T12:52:14Z</time>
      </trkpt>
      <trkpt lat="46.58557" lon="6.08515">
        <ele>1106.6</ele>
        <time>2020-07-12T12:52:18Z</time>
      </trkpt>
      <trkpt lat="46.58562" lon="6.0851">
        <ele>1106.6</ele>
        <time>2020-07-12T12:52:20Z</time>
      </trkpt>
      <trkpt lat="46.58566" lon="6.08502">
        <ele>1106.6</ele>
        <time>2020-07-12T12:52:22Z</time>
      </trkpt>
      <trkpt lat="46.58567" lon="6.08493">
        <ele>1106.5</ele>
        <time>2020-07-12T12:52:24Z</time>
      </trkpt>
      <trkpt lat="46.58566" lon="6.08486">
        <ele>1106.5</ele>
        <time>2020-07-12T12:52:28Z</time>
      </trkpt>
      <trkpt lat="46.5857" lon="6.08473">
        <ele>1107.8</ele>
        <time>2020-07-12T12:52:39Z</time>
      </trkpt>
      <trkpt lat="46.5857" lon="6.08466">
        <ele>1108.1</ele>
        <time>2020-07-12T12:52:41Z</time>
      </trkpt>
      <trkpt lat="46.5857" lon="6.08459">
        <ele>1108.5</ele>
        <time>2020-07-12T12:52:44Z</time>
      </trkpt>
      <trkpt lat="46.58572" lon="6.08453">
        <ele>1109.4</ele>
        <time>2020-07-12T12:52:49Z</time>
      </trkpt>
      <trkpt lat="46.58575" lon="6.08447">
        <ele>1110.6</ele>
        <time>2020-07-12T12:52:57Z</time>
      </trkpt>
      <trkpt lat="46.58577" lon="6.0844">
        <ele>1110.5</ele>
        <time>2020-07-12T12:53:02Z</time>
      </trkpt>
      <trkpt lat="46.5858" lon="6.08435">
        <ele>1110</ele>
        <time>2020-07-12T12:53:06Z</time>
      </trkpt>
      <trkpt lat="46.58585" lon="6.0843">
        <ele>1108.9</ele>
        <time>2020-07-12T12:53:11Z</time>
      </trkpt>
      <trkpt lat="46.58588" lon="6.08426">
        <ele>1108.1</ele>
        <time>2020-07-12T12:53:14Z</time>
      </trkpt>
      <trkpt lat="46.58592" lon="6.08422">
        <ele>1107.1</ele>
        <time>2020-07-12T12:53:17Z</time>
      </trkpt>
      <trkpt lat="46.58598" lon="6.08416">
        <ele>1105.1</ele>
        <time>2020-07-12T12:53:22Z</time>
      </trkpt>
      <trkpt lat="46.58602" lon="6.08411">
        <ele>1104</ele>
        <time>2020-07-12T12:53:25Z</time>
      </trkpt>
      <trkpt lat="46.58604" lon="6.08404">
        <ele>1102.1</ele>
        <time>2020-07-12T12:53:30Z</time>
      </trkpt>
      <trkpt lat="46.58606" lon="6.08398">
        <ele>1100.6</ele>
        <time>2020-07-12T12:53:36Z</time>
      </trkpt>
      <trkpt lat="46.58614" lon="6.08387">
        <ele>1097.4</ele>
        <time>2020-07-12T12:53:50Z</time>
      </trkpt>
      <trkpt lat="46.58618" lon="6.08382">
        <ele>1097.3</ele>
        <time>2020-07-12T12:53:52Z</time>
      </trkpt>
      <trkpt lat="46.58621" lon="6.08374">
        <ele>1097.4</ele>
        <time>2020-07-12T12:53:55Z</time>
      </trkpt>
      <trkpt lat="46.58624" lon="6.08368">
        <ele>1097.4</ele>
        <time>2020-07-12T12:53:58Z</time>
      </trkpt>
      <trkpt lat="46.58626" lon="6.0836">
        <ele>1097.3</ele>
        <time>2020-07-12T12:54:01Z</time>
      </trkpt>
      <trkpt lat="46.58627" lon="6.08353">
        <ele>1097</ele>
        <time>2020-07-12T12:54:04Z</time>
      </trkpt>
      <trkpt lat="46.58627" lon="6.08344">
        <ele>1096.7</ele>
        <time>2020-07-12T12:54:07Z</time>
      </trkpt>
      <trkpt lat="46.58629" lon="6.08336">
        <ele>1096.5</ele>
        <time>2020-07-12T12:54:11Z</time>
      </trkpt>
      <trkpt lat="46.58631" lon="6.0833">
        <ele>1096.2</ele>
        <time>2020-07-12T12:54:16Z</time>
      </trkpt>
      <trkpt lat="46.58634" lon="6.08317">
        <ele>1095.9</ele>
        <time>2020-07-12T12:54:25Z</time>
      </trkpt>
      <trkpt lat="46.58636" lon="6.08311">
        <ele>1095.1</ele>
        <time>2020-07-12T12:54:30Z</time>
      </trkpt>
      <trkpt lat="46.58639" lon="6.08304">
        <ele>1094.5</ele>
        <time>2020-07-12T12:54:35Z</time>
      </trkpt>
      <trkpt lat="46.5864" lon="6.08297">
        <ele>1094.2</ele>
        <time>2020-07-12T12:54:38Z</time>
      </trkpt>
      <trkpt lat="46.58642" lon="6.08289">
        <ele>1094</ele>
        <time>2020-07-12T12:54:41Z</time>
      </trkpt>
      <trkpt lat="46.58643" lon="6.08282">
        <ele>1093.8</ele>
        <time>2020-07-12T12:54:44Z</time>
      </trkpt>
      <trkpt lat="46.58643" lon="6.08275">
        <ele>1093.8</ele>
        <time>2020-07-12T12:54:46Z</time>
      </trkpt>
      <trkpt lat="46.58649" lon="6.08255">
        <ele>1094.4</ele>
        <time>2020-07-12T12:55:18Z</time>
      </trkpt>
      <trkpt lat="46.5865" lon="6.08248">
        <ele>1094.6</ele>
        <time>2020-07-12T12:55:21Z</time>
      </trkpt>
      <trkpt lat="46.58653" lon="6.08242">
        <ele>1094.6</ele>
        <time>2020-07-12T12:55:24Z</time>
      </trkpt>
      <trkpt lat="46.58655" lon="6.08234">
        <ele>1094.5</ele>
        <time>2020-07-12T12:55:28Z</time>
      </trkpt>
      <trkpt lat="46.58656" lon="6.08227">
        <ele>1093.9</ele>
        <time>2020-07-12T12:55:33Z</time>
      </trkpt>
      <trkpt lat="46.5866" lon="6.08221">
        <ele>1092.2</ele>
        <time>2020-07-12T12:55:40Z</time>
      </trkpt>
      <trkpt lat="46.58662" lon="6.08212">
        <ele>1091.4</ele>
        <time>2020-07-12T12:55:44Z</time>
      </trkpt>
      <trkpt lat="46.58662" lon="6.08204">
        <ele>1091.1</ele>
        <time>2020-07-12T12:55:47Z</time>
      </trkpt>
      <trkpt lat="46.58664" lon="6.08197">
        <ele>1090.8</ele>
        <time>2020-07-12T12:55:52Z</time>
      </trkpt>
      <trkpt lat="46.58663" lon="6.08189">
        <ele>1090.8</ele>
        <time>2020-07-12T12:55:56Z</time>
      </trkpt>
      <trkpt lat="46.58666" lon="6.08183">
        <ele>1090.7</ele>
        <time>2020-07-12T12:56:00Z</time>
      </trkpt>
      <trkpt lat="46.58671" lon="6.08178">
        <ele>1090.7</ele>
        <time>2020-07-12T12:56:03Z</time>
      </trkpt>
      <trkpt lat="46.58674" lon="6.08172">
        <ele>1090.4</ele>
        <time>2020-07-12T12:56:07Z</time>
      </trkpt>
      <trkpt lat="46.58678" lon="6.08167">
        <ele>1090.2</ele>
        <time>2020-07-12T12:56:12Z</time>
      </trkpt>
      <trkpt lat="46.58682" lon="6.08164">
        <ele>1090.1</ele>
        <time>2020-07-12T12:56:15Z</time>
      </trkpt>
      <trkpt lat="46.58686" lon="6.08161">
        <ele>1090.1</ele>
        <time>2020-07-12T12:56:18Z</time>
      </trkpt>
      <trkpt lat="46.58694" lon="6.08148">
        <ele>1088.2</ele>
        <time>2020-07-12T12:56:30Z</time>
      </trkpt>
      <trkpt lat="46.58697" lon="6.08143">
        <ele>1087.9</ele>
        <time>2020-07-12T12:56:34Z</time>
      </trkpt>
      <trkpt lat="46.587" lon="6.08136">
        <ele>1087.7</ele>
        <time>2020-07-12T12:56:40Z</time>
      </trkpt>
      <trkpt lat="46.58704" lon="6.08131">
        <ele>1087.6</ele>
        <time>2020-07-12T12:56:44Z</time>
      </trkpt>
      <trkpt lat="46.58708" lon="6.08126">
        <ele>1086.9</ele>
        <time>2020-07-12T12:56:52Z</time>
      </trkpt>
      <trkpt lat="46.58712" lon="6.08122">
        <ele>1086.3</ele>
        <time>2020-07-12T12:56:56Z</time>
      </trkpt>
      <trkpt lat="46.58716" lon="6.08117">
        <ele>1085.7</ele>
        <time>2020-07-12T12:57:00Z</time>
      </trkpt>
      <trkpt lat="46.58719" lon="6.0811">
        <ele>1085.2</ele>
        <time>2020-07-12T12:57:04Z</time>
      </trkpt>
      <trkpt lat="46.58722" lon="6.08103">
        <ele>1084.7</ele>
        <time>2020-07-12T12:57:08Z</time>
      </trkpt>
      <trkpt lat="46.5873" lon="6.08093">
        <ele>1083.4</ele>
        <time>2020-07-12T12:57:17Z</time>
      </trkpt>
      <trkpt lat="46.58734" lon="6.08087">
        <ele>1083.3</ele>
        <time>2020-07-12T12:57:22Z</time>
      </trkpt>
      <trkpt lat="46.58737" lon="6.08081">
        <ele>1083.2</ele>
        <time>2020-07-12T12:57:25Z</time>
      </trkpt>
      <trkpt lat="46.58741" lon="6.08075">
        <ele>1083.1</ele>
        <time>2020-07-12T12:57:29Z</time>
      </trkpt>
      <trkpt lat="46.58744" lon="6.08068">
        <ele>1083</ele>
        <time>2020-07-12T12:57:33Z</time>
      </trkpt>
      <trkpt lat="46.58745" lon="6.08061">
        <ele>1082.6</ele>
        <time>2020-07-12T12:57:36Z</time>
      </trkpt>
      <trkpt lat="46.58745" lon="6.08054">
        <ele>1082.3</ele>
        <time>2020-07-12T12:57:39Z</time>
      </trkpt>
      <trkpt lat="46.58748" lon="6.08049">
        <ele>1081.9</ele>
        <time>2020-07-12T12:57:42Z</time>
      </trkpt>
      <trkpt lat="46.5875" lon="6.08042">
        <ele>1081.7</ele>
        <time>2020-07-12T12:57:46Z</time>
      </trkpt>
      <trkpt lat="46.58753" lon="6.08028">
        <ele>1080.9</ele>
        <time>2020-07-12T12:57:57Z</time>
      </trkpt>
      <trkpt lat="46.58756" lon="6.08023">
        <ele>1080.4</ele>
        <time>2020-07-12T12:58:02Z</time>
      </trkpt>
      <trkpt lat="46.58761" lon="6.08018">
        <ele>1079.6</ele>
        <time>2020-07-12T12:58:08Z</time>
      </trkpt>
      <trkpt lat="46.58764" lon="6.08013">
        <ele>1079.1</ele>
        <time>2020-07-12T12:58:12Z</time>
      </trkpt>
      <trkpt lat="46.58764" lon="6.08005">
        <ele>1078.6</ele>
        <time>2020-07-12T12:58:16Z</time>
      </trkpt>
      <trkpt lat="46.58765" lon="6.07998">
        <ele>1078.1</ele>
        <time>2020-07-12T12:58:20Z</time>
      </trkpt>
      <trkpt lat="46.58772" lon="6.07989">
        <ele>1077.2</ele>
        <time>2020-07-12T12:58:31Z</time>
      </trkpt>
      <trkpt lat="46.58777" lon="6.07985">
        <ele>1077.2</ele>
        <time>2020-07-12T12:58:34Z</time>
      </trkpt>
      <trkpt lat="46.58781" lon="6.07981">
        <ele>1077.3</ele>
        <time>2020-07-12T12:58:36Z</time>
      </trkpt>
      <trkpt lat="46.58785" lon="6.07974">
        <ele>1077.5</ele>
        <time>2020-07-12T12:58:39Z</time>
      </trkpt>
      <trkpt lat="46.58787" lon="6.07968">
        <ele>1077.6</ele>
        <time>2020-07-12T12:58:42Z</time>
      </trkpt>
      <trkpt lat="46.58789" lon="6.07962">
        <ele>1077.7</ele>
        <time>2020-07-12T12:58:46Z</time>
      </trkpt>
      <trkpt lat="46.5879" lon="6.07955">
        <ele>1077.8</ele>
        <time>2020-07-12T12:58:51Z</time>
      </trkpt>
      <trkpt lat="46.58789" lon="6.07947">
        <ele>1077.6</ele>
        <time>2020-07-12T12:58:57Z</time>
      </trkpt>
      <trkpt lat="46.5879" lon="6.0794">
        <ele>1077.4</ele>
        <time>2020-07-12T12:59:01Z</time>
      </trkpt>
      <trkpt lat="46.58791" lon="6.07932">
        <ele>1077.3</ele>
        <time>2020-07-12T12:59:05Z</time>
      </trkpt>
      <trkpt lat="46.58792" lon="6.07925">
        <ele>1077.3</ele>
        <time>2020-07-12T12:59:09Z</time>
      </trkpt>
      <trkpt lat="46.58793" lon="6.07917">
        <ele>1077.4</ele>
        <time>2020-07-12T12:59:13Z</time>
      </trkpt>
      <trkpt lat="46.58794" lon="6.0791">
        <ele>1077.6</ele>
        <time>2020-07-12T12:59:18Z</time>
      </trkpt>
      <trkpt lat="46.58795" lon="6.07903">
        <ele>1078</ele>
        <time>2020-07-12T12:59:25Z</time>
      </trkpt>
      <trkpt lat="46.58797" lon="6.07897">
        <ele>1078.5</ele>
        <time>2020-07-12T12:59:31Z</time>
      </trkpt>
      <trkpt lat="46.588" lon="6.07891">
        <ele>1079</ele>
        <time>2020-07-12T12:59:35Z</time>
      </trkpt>
      <trkpt lat="46.58802" lon="6.07885">
        <ele>1079.5</ele>
        <time>2020-07-12T12:59:40Z</time>
      </trkpt>
      <trkpt lat="46.58804" lon="6.07878">
        <ele>1080</ele>
        <time>2020-07-12T12:59:45Z</time>
      </trkpt>
      <trkpt lat="46.58806" lon="6.07872">
        <ele>1080.2</ele>
        <time>2020-07-12T12:59:49Z</time>
      </trkpt>
      <trkpt lat="46.58809" lon="6.07866">
        <ele>1080.5</ele>
        <time>2020-07-12T12:59:53Z</time>
      </trkpt>
      <trkpt lat="46.58812" lon="6.0786">
        <ele>1081</ele>
        <time>2020-07-12T12:59:58Z</time>
      </trkpt>
      <trkpt lat="46.58814" lon="6.07854">
        <ele>1081.5</ele>
        <time>2020-07-12T13:00:03Z</time>
      </trkpt>
      <trkpt lat="46.58816" lon="6.07847">
        <ele>1081.9</ele>
        <time>2020-07-12T13:00:07Z</time>
      </trkpt>
      <trkpt lat="46.58818" lon="6.07841">
        <ele>1082.3</ele>
        <time>2020-07-12T13:00:10Z</time>
      </trkpt>
      <trkpt lat="46.5882" lon="6.07835">
        <ele>1082.9</ele>
        <time>2020-07-12T13:00:13Z</time>
      </trkpt>
      <trkpt lat="46.58823" lon="6.07829">
        <ele>1083.6</ele>
        <time>2020-07-12T13:00:16Z</time>
      </trkpt>
      <trkpt lat="46.58825" lon="6.07823">
        <ele>1084.5</ele>
        <time>2020-07-12T13:00:21Z</time>
      </trkpt>
      <trkpt lat="46.58828" lon="6.07819">
        <ele>1085.5</ele>
        <time>2020-07-12T13:00:27Z</time>
      </trkpt>
      <trkpt lat="46.58831" lon="6.07813">
        <ele>1085.8</ele>
        <time>2020-07-12T13:00:32Z</time>
      </trkpt>
      <trkpt lat="46.58834" lon="6.07806">
        <ele>1085.8</ele>
        <time>2020-07-12T13:00:36Z</time>
      </trkpt>
      <trkpt lat="46.58837" lon="6.078">
        <ele>1085.3</ele>
        <time>2020-07-12T13:00:41Z</time>
      </trkpt>
      <trkpt lat="46.58839" lon="6.07793">
        <ele>1084.4</ele>
        <time>2020-07-12T13:00:49Z</time>
      </trkpt>
      <trkpt lat="46.58848" lon="6.07773">
        <ele>1094.3</ele>
        <time>2020-07-12T13:06:48Z</time>
      </trkpt>
      <trkpt lat="46.58851" lon="6.07768">
        <ele>1095.1</ele>
        <time>2020-07-12T13:06:53Z</time>
      </trkpt>
      <trkpt lat="46.58854" lon="6.07762">
        <ele>1095.3</ele>
        <time>2020-07-12T13:06:58Z</time>
      </trkpt>
      <trkpt lat="46.58858" lon="6.07757">
        <ele>1095.2</ele>
        <time>2020-07-12T13:07:03Z</time>
      </trkpt>
      <trkpt lat="46.5886" lon="6.07751">
        <ele>1095</ele>
        <time>2020-07-12T13:07:07Z</time>
      </trkpt>
      <trkpt lat="46.58865" lon="6.07744">
        <ele>1094.6</ele>
        <time>2020-07-12T13:07:11Z</time>
      </trkpt>
      <trkpt lat="46.58869" lon="6.07739">
        <ele>1094.3</ele>
        <time>2020-07-12T13:07:15Z</time>
      </trkpt>
      <trkpt lat="46.58872" lon="6.07733">
        <ele>1094</ele>
        <time>2020-07-12T13:07:18Z</time>
      </trkpt>
      <trkpt lat="46.58876" lon="6.07728">
        <ele>1093.8</ele>
        <time>2020-07-12T13:07:21Z</time>
      </trkpt>
      <trkpt lat="46.58879" lon="6.07722">
        <ele>1093.8</ele>
        <time>2020-07-12T13:07:25Z</time>
      </trkpt>
      <trkpt lat="46.58881" lon="6.07716">
        <ele>1093.9</ele>
        <time>2020-07-12T13:07:30Z</time>
      </trkpt>
      <trkpt lat="46.58883" lon="6.0771">
        <ele>1094</ele>
        <time>2020-07-12T13:07:35Z</time>
      </trkpt>
      <trkpt lat="46.58885" lon="6.07703">
        <ele>1094.1</ele>
        <time>2020-07-12T13:07:40Z</time>
      </trkpt>
      <trkpt lat="46.58887" lon="6.07696">
        <ele>1094.4</ele>
        <time>2020-07-12T13:07:47Z</time>
      </trkpt>
      <trkpt lat="46.58891" lon="6.07691">
        <ele>1094.9</ele>
        <time>2020-07-12T13:07:54Z</time>
      </trkpt>
      <trkpt lat="46.58893" lon="6.07666">
        <ele>1096.3</ele>
        <time>2020-07-12T13:08:22Z</time>
      </trkpt>
      <trkpt lat="46.58892" lon="6.07658">
        <ele>1096.3</ele>
        <time>2020-07-12T13:08:24Z</time>
      </trkpt>
      <trkpt lat="46.58891" lon="6.07651">
        <ele>1096.5</ele>
        <time>2020-07-12T13:08:27Z</time>
      </trkpt>
      <trkpt lat="46.58891" lon="6.07644">
        <ele>1097.5</ele>
        <time>2020-07-12T13:08:33Z</time>
      </trkpt>
      <trkpt lat="46.58891" lon="6.07637">
        <ele>1099</ele>
        <time>2020-07-12T13:08:41Z</time>
      </trkpt>
      <trkpt lat="46.58893" lon="6.07631">
        <ele>1099.8</ele>
        <time>2020-07-12T13:08:46Z</time>
      </trkpt>
      <trkpt lat="46.58897" lon="6.07624">
        <ele>1100.4</ele>
        <time>2020-07-12T13:08:51Z</time>
      </trkpt>
      <trkpt lat="46.589" lon="6.07619">
        <ele>1100.7</ele>
        <time>2020-07-12T13:08:55Z</time>
      </trkpt>
      <trkpt lat="46.58904" lon="6.07613">
        <ele>1100.9</ele>
        <time>2020-07-12T13:08:59Z</time>
      </trkpt>
      <trkpt lat="46.58908" lon="6.07607">
        <ele>1100.8</ele>
        <time>2020-07-12T13:09:05Z</time>
      </trkpt>
      <trkpt lat="46.58911" lon="6.07602">
        <ele>1100.5</ele>
        <time>2020-07-12T13:09:08Z</time>
      </trkpt>
      <trkpt lat="46.58912" lon="6.07596">
        <ele>1099.9</ele>
        <time>2020-07-12T13:09:12Z</time>
      </trkpt>
      <trkpt lat="46.58912" lon="6.07588">
        <ele>1099.2</ele>
        <time>2020-07-12T13:09:16Z</time>
      </trkpt>
      <trkpt lat="46.58913" lon="6.0758">
        <ele>1098.4</ele>
        <time>2020-07-12T13:09:21Z</time>
      </trkpt>
      <trkpt lat="46.58914" lon="6.07574">
        <ele>1097.9</ele>
        <time>2020-07-12T13:09:27Z</time>
      </trkpt>
      <trkpt lat="46.58917" lon="6.07568">
        <ele>1097.8</ele>
        <time>2020-07-12T13:09:32Z</time>
      </trkpt>
      <trkpt lat="46.5892" lon="6.07562">
        <ele>1097.7</ele>
        <time>2020-07-12T13:09:36Z</time>
      </trkpt>
      <trkpt lat="46.58925" lon="6.07542">
        <ele>1097.9</ele>
        <time>2020-07-12T13:09:46Z</time>
      </trkpt>
      <trkpt lat="46.58926" lon="6.07535">
        <ele>1098.6</ele>
        <time>2020-07-12T13:09:54Z</time>
      </trkpt>
      <trkpt lat="46.58927" lon="6.07522">
        <ele>1099.3</ele>
        <time>2020-07-12T13:10:08Z</time>
      </trkpt>
      <trkpt lat="46.58926" lon="6.07513">
        <ele>1099.3</ele>
        <time>2020-07-12T13:10:10Z</time>
      </trkpt>
      <trkpt lat="46.58925" lon="6.07506">
        <ele>1099.4</ele>
        <time>2020-07-12T13:10:12Z</time>
      </trkpt>
      <trkpt lat="46.58926" lon="6.07499">
        <ele>1099.7</ele>
        <time>2020-07-12T13:10:16Z</time>
      </trkpt>
      <trkpt lat="46.58927" lon="6.07492">
        <ele>1100.2</ele>
        <time>2020-07-12T13:10:23Z</time>
      </trkpt>
      <trkpt lat="46.58933" lon="6.07481">
        <ele>1100.1</ele>
        <time>2020-07-12T13:10:37Z</time>
      </trkpt>
      <trkpt lat="46.58937" lon="6.07474">
        <ele>1099.7</ele>
        <time>2020-07-12T13:10:41Z</time>
      </trkpt>
      <trkpt lat="46.58941" lon="6.07467">
        <ele>1099.4</ele>
        <time>2020-07-12T13:10:44Z</time>
      </trkpt>
      <trkpt lat="46.58945" lon="6.0746">
        <ele>1099.1</ele>
        <time>2020-07-12T13:10:47Z</time>
      </trkpt>
      <trkpt lat="46.58948" lon="6.07454">
        <ele>1098.8</ele>
        <time>2020-07-12T13:10:50Z</time>
      </trkpt>
      <trkpt lat="46.5895" lon="6.07447">
        <ele>1098.5</ele>
        <time>2020-07-12T13:10:57Z</time>
      </trkpt>
      <trkpt lat="46.58951" lon="6.07441">
        <ele>1098.5</ele>
        <time>2020-07-12T13:11:00Z</time>
      </trkpt>
      <trkpt lat="46.58953" lon="6.07434">
        <ele>1098.6</ele>
        <time>2020-07-12T13:11:04Z</time>
      </trkpt>
      <trkpt lat="46.58952" lon="6.07427">
        <ele>1098.7</ele>
        <time>2020-07-12T13:11:08Z</time>
      </trkpt>
      <trkpt lat="46.58952" lon="6.07421">
        <ele>1098.9</ele>
        <time>2020-07-12T13:11:12Z</time>
      </trkpt>
      <trkpt lat="46.58953" lon="6.07414">
        <ele>1099.4</ele>
        <time>2020-07-12T13:11:18Z</time>
      </trkpt>
      <trkpt lat="46.58956" lon="6.07409">
        <ele>1100.4</ele>
        <time>2020-07-12T13:11:25Z</time>
      </trkpt>
      <trkpt lat="46.58958" lon="6.07403">
        <ele>1100.6</ele>
        <time>2020-07-12T13:11:27Z</time>
      </trkpt>
      <trkpt lat="46.58959" lon="6.07395">
        <ele>1100.9</ele>
        <time>2020-07-12T13:11:30Z</time>
      </trkpt>
      <trkpt lat="46.5896" lon="6.07388">
        <ele>1101</ele>
        <time>2020-07-12T13:11:35Z</time>
      </trkpt>
      <trkpt lat="46.5896" lon="6.07381">
        <ele>1100.6</ele>
        <time>2020-07-12T13:11:55Z</time>
      </trkpt>
      <trkpt lat="46.58962" lon="6.07374">
        <ele>1100.3</ele>
        <time>2020-07-12T13:11:58Z</time>
      </trkpt>
      <trkpt lat="46.58965" lon="6.07367">
        <ele>1099.9</ele>
        <time>2020-07-12T13:12:02Z</time>
      </trkpt>
      <trkpt lat="46.58966" lon="6.07359">
        <ele>1099.5</ele>
        <time>2020-07-12T13:12:05Z</time>
      </trkpt>
      <trkpt lat="46.58966" lon="6.07352">
        <ele>1099.3</ele>
        <time>2020-07-12T13:12:07Z</time>
      </trkpt>
      <trkpt lat="46.58967" lon="6.07343">
        <ele>1098.9</ele>
        <time>2020-07-12T13:12:12Z</time>
      </trkpt>
      <trkpt lat="46.58968" lon="6.07337">
        <ele>1098.5</ele>
        <time>2020-07-12T13:12:17Z</time>
      </trkpt>
      <trkpt lat="46.5897" lon="6.0733">
        <ele>1098.3</ele>
        <time>2020-07-12T13:12:23Z</time>
      </trkpt>
      <trkpt lat="46.58973" lon="6.07324">
        <ele>1098.3</ele>
        <time>2020-07-12T13:12:29Z</time>
      </trkpt>
      <trkpt lat="46.58974" lon="6.07299">
        <ele>1098.2</ele>
        <time>2020-07-12T13:12:37Z</time>
      </trkpt>
      <trkpt lat="46.58975" lon="6.07291">
        <ele>1098.4</ele>
        <time>2020-07-12T13:12:42Z</time>
      </trkpt>
      <trkpt lat="46.58976" lon="6.07284">
        <ele>1098.5</ele>
        <time>2020-07-12T13:12:46Z</time>
      </trkpt>
      <trkpt lat="46.58976" lon="6.07277">
        <ele>1098.6</ele>
        <time>2020-07-12T13:12:52Z</time>
      </trkpt>
      <trkpt lat="46.58977" lon="6.0727">
        <ele>1099</ele>
        <time>2020-07-12T13:12:59Z</time>
      </trkpt>
      <trkpt lat="46.58978" lon="6.07262">
        <ele>1099.7</ele>
        <time>2020-07-12T13:13:03Z</time>
      </trkpt>
      <trkpt lat="46.58977" lon="6.07255">
        <ele>1100.3</ele>
        <time>2020-07-12T13:13:06Z</time>
      </trkpt>
      <trkpt lat="46.58978" lon="6.07249">
        <ele>1101.6</ele>
        <time>2020-07-12T13:13:12Z</time>
      </trkpt>
      <trkpt lat="46.58979" lon="6.07241">
        <ele>1102.4</ele>
        <time>2020-07-12T13:13:20Z</time>
      </trkpt>
      <trkpt lat="46.58979" lon="6.0722">
        <ele>1102</ele>
        <time>2020-07-12T13:13:32Z</time>
      </trkpt>
      <trkpt lat="46.58979" lon="6.07211">
        <ele>1102.1</ele>
        <time>2020-07-12T13:13:37Z</time>
      </trkpt>
      <trkpt lat="46.58979" lon="6.07205">
        <ele>1102.4</ele>
        <time>2020-07-12T13:13:42Z</time>
      </trkpt>
      <trkpt lat="46.58977" lon="6.07196">
        <ele>1102.5</ele>
        <time>2020-07-12T13:13:44Z</time>
      </trkpt>
      <trkpt lat="46.58983" lon="6.07177">
        <ele>1102.5</ele>
        <time>2020-07-12T13:13:53Z</time>
      </trkpt>
      <trkpt lat="46.58984" lon="6.0717">
        <ele>1102.2</ele>
        <time>2020-07-12T13:13:57Z</time>
      </trkpt>
      <trkpt lat="46.58986" lon="6.07164">
        <ele>1101.7</ele>
        <time>2020-07-12T13:14:01Z</time>
      </trkpt>
      <trkpt lat="46.58988" lon="6.07157">
        <ele>1100.9</ele>
        <time>2020-07-12T13:14:06Z</time>
      </trkpt>
      <trkpt lat="46.58987" lon="6.07144">
        <ele>1098.8</ele>
        <time>2020-07-12T13:14:14Z</time>
      </trkpt>
      <trkpt lat="46.58986" lon="6.07136">
        <ele>1098.2</ele>
        <time>2020-07-12T13:14:19Z</time>
      </trkpt>
      <trkpt lat="46.58985" lon="6.07129">
        <ele>1097.8</ele>
        <time>2020-07-12T13:14:22Z</time>
      </trkpt>
      <trkpt lat="46.58983" lon="6.07122">
        <ele>1097.6</ele>
        <time>2020-07-12T13:14:27Z</time>
      </trkpt>
      <trkpt lat="46.58985" lon="6.07116">
        <ele>1098.1</ele>
        <time>2020-07-12T13:14:33Z</time>
      </trkpt>
      <trkpt lat="46.58986" lon="6.0711">
        <ele>1100.3</ele>
        <time>2020-07-12T13:14:44Z</time>
      </trkpt>
      <trkpt lat="46.58987" lon="6.07103">
        <ele>1101.6</ele>
        <time>2020-07-12T13:14:52Z</time>
      </trkpt>
      <trkpt lat="46.58988" lon="6.07095">
        <ele>1102</ele>
        <time>2020-07-12T13:14:54Z</time>
      </trkpt>
      <trkpt lat="46.58986" lon="6.07085">
        <ele>1102.3</ele>
        <time>2020-07-12T13:14:56Z</time>
      </trkpt>
      <trkpt lat="46.58987" lon="6.07077">
        <ele>1102.7</ele>
        <time>2020-07-12T13:14:59Z</time>
      </trkpt>
      <trkpt lat="46.5899" lon="6.07071">
        <ele>1103.1</ele>
        <time>2020-07-12T13:15:03Z</time>
      </trkpt>
      <trkpt lat="46.58993" lon="6.07066">
        <ele>1103.1</ele>
        <time>2020-07-12T13:15:12Z</time>
      </trkpt>
      <trkpt lat="46.58997" lon="6.07061">
        <ele>1103.2</ele>
        <time>2020-07-12T13:15:16Z</time>
      </trkpt>
      <trkpt lat="46.59001" lon="6.07054">
        <ele>1103.3</ele>
        <time>2020-07-12T13:15:18Z</time>
      </trkpt>
      <trkpt lat="46.59004" lon="6.07048">
        <ele>1103.3</ele>
        <time>2020-07-12T13:15:20Z</time>
      </trkpt>
      <trkpt lat="46.59008" lon="6.07041">
        <ele>1103.1</ele>
        <time>2020-07-12T13:15:23Z</time>
      </trkpt>
      <trkpt lat="46.5901" lon="6.07034">
        <ele>1102.9</ele>
        <time>2020-07-12T13:15:26Z</time>
      </trkpt>
      <trkpt lat="46.59011" lon="6.07028">
        <ele>1102.4</ele>
        <time>2020-07-12T13:15:31Z</time>
      </trkpt>
      <trkpt lat="46.59014" lon="6.07022">
        <ele>1101.8</ele>
        <time>2020-07-12T13:15:37Z</time>
      </trkpt>
      <trkpt lat="46.59016" lon="6.07016">
        <ele>1101.7</ele>
        <time>2020-07-12T13:15:40Z</time>
      </trkpt>
      <trkpt lat="46.5902" lon="6.07008">
        <ele>1101.6</ele>
        <time>2020-07-12T13:15:46Z</time>
      </trkpt>
      <trkpt lat="46.59022" lon="6.07001">
        <ele>1101.6</ele>
        <time>2020-07-12T13:15:50Z</time>
      </trkpt>
      <trkpt lat="46.59024" lon="6.06994">
        <ele>1101.8</ele>
        <time>2020-07-12T13:15:55Z</time>
      </trkpt>
      <trkpt lat="46.59025" lon="6.06987">
        <ele>1102.6</ele>
        <time>2020-07-12T13:16:01Z</time>
      </trkpt>
      <trkpt lat="46.59027" lon="6.06981">
        <ele>1104.1</ele>
        <time>2020-07-12T13:16:11Z</time>
      </trkpt>
      <trkpt lat="46.5903" lon="6.06975">
        <ele>1104.8</ele>
        <time>2020-07-12T13:16:16Z</time>
      </trkpt>
      <trkpt lat="46.59032" lon="6.0697">
        <ele>1105.8</ele>
        <time>2020-07-12T13:16:38Z</time>
      </trkpt>
      <trkpt lat="46.59037" lon="6.06939">
        <ele>1112.9</ele>
        <time>2020-07-12T13:18:49Z</time>
      </trkpt>
      <trkpt lat="46.59038" lon="6.06933">
        <ele>1112.1</ele>
        <time>2020-07-12T13:18:53Z</time>
      </trkpt>
      <trkpt lat="46.59041" lon="6.06927">
        <ele>1110.9</ele>
        <time>2020-07-12T13:18:58Z</time>
      </trkpt>
      <trkpt lat="46.59044" lon="6.06919">
        <ele>1109.3</ele>
        <time>2020-07-12T13:19:04Z</time>
      </trkpt>
      <trkpt lat="46.59047" lon="6.06914">
        <ele>1108.6</ele>
        <time>2020-07-12T13:19:07Z</time>
      </trkpt>
      <trkpt lat="46.59047" lon="6.06906">
        <ele>1108.1</ele>
        <time>2020-07-12T13:19:09Z</time>
      </trkpt>
      <trkpt lat="46.59047" lon="6.069">
        <ele>1107.5</ele>
        <time>2020-07-12T13:19:12Z</time>
      </trkpt>
      <trkpt lat="46.59049" lon="6.06892">
        <ele>1106.1</ele>
        <time>2020-07-12T13:19:18Z</time>
      </trkpt>
      <trkpt lat="46.59051" lon="6.06886">
        <ele>1104.8</ele>
        <time>2020-07-12T13:19:24Z</time>
      </trkpt>
      <trkpt lat="46.59053" lon="6.0688">
        <ele>1103.7</ele>
        <time>2020-07-12T13:19:30Z</time>
      </trkpt>
      <trkpt lat="46.59057" lon="6.06875">
        <ele>1103.1</ele>
        <time>2020-07-12T13:19:34Z</time>
      </trkpt>
      <trkpt lat="46.5906" lon="6.06866">
        <ele>1102.8</ele>
        <time>2020-07-12T13:19:37Z</time>
      </trkpt>
      <trkpt lat="46.5906" lon="6.06859">
        <ele>1102.6</ele>
        <time>2020-07-12T13:19:39Z</time>
      </trkpt>
      <trkpt lat="46.59062" lon="6.06852">
        <ele>1102.3</ele>
        <time>2020-07-12T13:19:44Z</time>
      </trkpt>
      <trkpt lat="46.5906" lon="6.06845">
        <ele>1102.2</ele>
        <time>2020-07-12T13:19:48Z</time>
      </trkpt>
      <trkpt lat="46.5906" lon="6.06837">
        <ele>1102.1</ele>
        <time>2020-07-12T13:19:51Z</time>
      </trkpt>
      <trkpt lat="46.5906" lon="6.0683">
        <ele>1101.9</ele>
        <time>2020-07-12T13:19:54Z</time>
      </trkpt>
      <trkpt lat="46.59059" lon="6.06822">
        <ele>1101.5</ele>
        <time>2020-07-12T13:20:00Z</time>
      </trkpt>
      <trkpt lat="46.59059" lon="6.06815">
        <ele>1101.3</ele>
        <time>2020-07-12T13:20:07Z</time>
      </trkpt>
      <trkpt lat="46.59059" lon="6.06807">
        <ele>1101.3</ele>
        <time>2020-07-12T13:20:13Z</time>
      </trkpt>
      <trkpt lat="46.59061" lon="6.068">
        <ele>1101</ele>
        <time>2020-07-12T13:20:16Z</time>
      </trkpt>
      <trkpt lat="46.59062" lon="6.06792">
        <ele>1100</ele>
        <time>2020-07-12T13:20:22Z</time>
      </trkpt>
      <trkpt lat="46.59064" lon="6.06786">
        <ele>1099.3</ele>
        <time>2020-07-12T13:20:26Z</time>
      </trkpt>
      <trkpt lat="46.59067" lon="6.06779">
        <ele>1098.2</ele>
        <time>2020-07-12T13:20:31Z</time>
      </trkpt>
      <trkpt lat="46.5907" lon="6.06774">
        <ele>1097.2</ele>
        <time>2020-07-12T13:20:35Z</time>
      </trkpt>
      <trkpt lat="46.59072" lon="6.06767">
        <ele>1095.4</ele>
        <time>2020-07-12T13:20:41Z</time>
      </trkpt>
      <trkpt lat="46.59071" lon="6.0676">
        <ele>1094.8</ele>
        <time>2020-07-12T13:20:43Z</time>
      </trkpt>
      <trkpt lat="46.5907" lon="6.06753">
        <ele>1093.9</ele>
        <time>2020-07-12T13:20:46Z</time>
      </trkpt>
      <trkpt lat="46.59069" lon="6.06746">
        <ele>1092.9</ele>
        <time>2020-07-12T13:20:50Z</time>
      </trkpt>
      <trkpt lat="46.5907" lon="6.06739">
        <ele>1091.8</ele>
        <time>2020-07-12T13:20:55Z</time>
      </trkpt>
      <trkpt lat="46.59071" lon="6.06732">
        <ele>1090.9</ele>
        <time>2020-07-12T13:21:00Z</time>
      </trkpt>
      <trkpt lat="46.59071" lon="6.06724">
        <ele>1090.7</ele>
        <time>2020-07-12T13:21:05Z</time>
      </trkpt>
      <trkpt lat="46.59073" lon="6.06716">
        <ele>1090.7</ele>
        <time>2020-07-12T13:21:07Z</time>
      </trkpt>
      <trkpt lat="46.59075" lon="6.06709">
        <ele>1090.7</ele>
        <time>2020-07-12T13:21:11Z</time>
      </trkpt>
      <trkpt lat="46.59076" lon="6.06702">
        <ele>1091.2</ele>
        <time>2020-07-12T13:21:16Z</time>
      </trkpt>
      <trkpt lat="46.59079" lon="6.06696">
        <ele>1092.2</ele>
        <time>2020-07-12T13:21:23Z</time>
      </trkpt>
      <trkpt lat="46.59081" lon="6.0669">
        <ele>1092.9</ele>
        <time>2020-07-12T13:21:27Z</time>
      </trkpt>
      <trkpt lat="46.59084" lon="6.06685">
        <ele>1093.7</ele>
        <time>2020-07-12T13:21:33Z</time>
      </trkpt>
      <trkpt lat="46.59086" lon="6.06676">
        <ele>1094</ele>
        <time>2020-07-12T13:21:38Z</time>
      </trkpt>
      <trkpt lat="46.59088" lon="6.06669">
        <ele>1093.8</ele>
        <time>2020-07-12T13:21:42Z</time>
      </trkpt>
      <trkpt lat="46.59089" lon="6.06663">
        <ele>1093.4</ele>
        <time>2020-07-12T13:21:47Z</time>
      </trkpt>
      <trkpt lat="46.59093" lon="6.06657">
        <ele>1092.9</ele>
        <time>2020-07-12T13:21:53Z</time>
      </trkpt>
      <trkpt lat="46.59097" lon="6.06651">
        <ele>1092.5</ele>
        <time>2020-07-12T13:21:58Z</time>
      </trkpt>
      <trkpt lat="46.591" lon="6.06646">
        <ele>1092.2</ele>
        <time>2020-07-12T13:22:02Z</time>
      </trkpt>
      <trkpt lat="46.59102" lon="6.0664">
        <ele>1091.6</ele>
        <time>2020-07-12T13:22:09Z</time>
      </trkpt>
      <trkpt lat="46.59104" lon="6.06634">
        <ele>1091.1</ele>
        <time>2020-07-12T13:22:15Z</time>
      </trkpt>
      <trkpt lat="46.59106" lon="6.06628">
        <ele>1090.3</ele>
        <time>2020-07-12T13:22:22Z</time>
      </trkpt>
      <trkpt lat="46.5911" lon="6.06624">
        <ele>1090</ele>
        <time>2020-07-12T13:22:26Z</time>
      </trkpt>
      <trkpt lat="46.59114" lon="6.06618">
        <ele>1089.6</ele>
        <time>2020-07-12T13:22:29Z</time>
      </trkpt>
      <trkpt lat="46.59118" lon="6.06611">
        <ele>1089.2</ele>
        <time>2020-07-12T13:22:31Z</time>
      </trkpt>
      <trkpt lat="46.5912" lon="6.06605">
        <ele>1088.9</ele>
        <time>2020-07-12T13:22:33Z</time>
      </trkpt>
      <trkpt lat="46.59122" lon="6.06599">
        <ele>1088.4</ele>
        <time>2020-07-12T13:22:36Z</time>
      </trkpt>
      <trkpt lat="46.59126" lon="6.06595">
        <ele>1087.7</ele>
        <time>2020-07-12T13:22:40Z</time>
      </trkpt>
      <trkpt lat="46.59134" lon="6.06585">
        <ele>1086.4</ele>
        <time>2020-07-12T13:22:50Z</time>
      </trkpt>
      <trkpt lat="46.59137" lon="6.06579">
        <ele>1086.3</ele>
        <time>2020-07-12T13:22:55Z</time>
      </trkpt>
      <trkpt lat="46.59142" lon="6.06575">
        <ele>1086.2</ele>
        <time>2020-07-12T13:22:59Z</time>
      </trkpt>
      <trkpt lat="46.59147" lon="6.06562">
        <ele>1086.5</ele>
        <time>2020-07-12T13:23:50Z</time>
      </trkpt>
      <trkpt lat="46.59146" lon="6.06555">
        <ele>1087.2</ele>
        <time>2020-07-12T13:23:54Z</time>
      </trkpt>
      <trkpt lat="46.59145" lon="6.06546">
        <ele>1088.2</ele>
        <time>2020-07-12T13:23:58Z</time>
      </trkpt>
      <trkpt lat="46.59145" lon="6.06539">
        <ele>1088.8</ele>
        <time>2020-07-12T13:24:01Z</time>
      </trkpt>
      <trkpt lat="46.59145" lon="6.06531">
        <ele>1089.8</ele>
        <time>2020-07-12T13:24:05Z</time>
      </trkpt>
      <trkpt lat="46.59143" lon="6.06524">
        <ele>1091</ele>
        <time>2020-07-12T13:24:10Z</time>
      </trkpt>
      <trkpt lat="46.59142" lon="6.06517">
        <ele>1092.4</ele>
        <time>2020-07-12T13:24:17Z</time>
      </trkpt>
      <trkpt lat="46.59141" lon="6.06511">
        <ele>1093.1</ele>
        <time>2020-07-12T13:24:21Z</time>
      </trkpt>
      <trkpt lat="46.5914" lon="6.06505">
        <ele>1093.7</ele>
        <time>2020-07-12T13:24:25Z</time>
      </trkpt>
      <trkpt lat="46.59138" lon="6.06497">
        <ele>1094.4</ele>
        <time>2020-07-12T13:24:30Z</time>
      </trkpt>
      <trkpt lat="46.59137" lon="6.0649">
        <ele>1095.4</ele>
        <time>2020-07-12T13:24:35Z</time>
      </trkpt>
      <trkpt lat="46.59135" lon="6.06484">
        <ele>1097.8</ele>
        <time>2020-07-12T13:24:43Z</time>
      </trkpt>
      <trkpt lat="46.5913" lon="6.06479">
        <ele>1098.9</ele>
        <time>2020-07-12T13:24:48Z</time>
      </trkpt>
      <trkpt lat="46.59126" lon="6.06477">
        <ele>1099.5</ele>
        <time>2020-07-12T13:24:51Z</time>
      </trkpt>
      <trkpt lat="46.59122" lon="6.06473">
        <ele>1100.6</ele>
        <time>2020-07-12T13:24:57Z</time>
      </trkpt>
      <trkpt lat="46.59116" lon="6.0647">
        <ele>1101.4</ele>
        <time>2020-07-12T13:25:01Z</time>
      </trkpt>
      <trkpt lat="46.59112" lon="6.06466">
        <ele>1102.2</ele>
        <time>2020-07-12T13:25:05Z</time>
      </trkpt>
      <trkpt lat="46.59107" lon="6.06462">
        <ele>1103.1</ele>
        <time>2020-07-12T13:25:10Z</time>
      </trkpt>
      <trkpt lat="46.59103" lon="6.06457">
        <ele>1103.8</ele>
        <time>2020-07-12T13:25:14Z</time>
      </trkpt>
      <trkpt lat="46.59099" lon="6.06453">
        <ele>1104.6</ele>
        <time>2020-07-12T13:25:18Z</time>
      </trkpt>
      <trkpt lat="46.59094" lon="6.06448">
        <ele>1105.1</ele>
        <time>2020-07-12T13:25:22Z</time>
      </trkpt>
      <trkpt lat="46.5909" lon="6.06444">
        <ele>1105.5</ele>
        <time>2020-07-12T13:25:26Z</time>
      </trkpt>
      <trkpt lat="46.59086" lon="6.0644">
        <ele>1105.8</ele>
        <time>2020-07-12T13:25:30Z</time>
      </trkpt>
      <trkpt lat="46.59083" lon="6.06436">
        <ele>1105.7</ele>
        <time>2020-07-12T13:25:34Z</time>
      </trkpt>
      <trkpt lat="46.59079" lon="6.0643">
        <ele>1105.7</ele>
        <time>2020-07-12T13:25:38Z</time>
      </trkpt>
      <trkpt lat="46.59075" lon="6.06426">
        <ele>1105.6</ele>
        <time>2020-07-12T13:25:42Z</time>
      </trkpt>
      <trkpt lat="46.59072" lon="6.0642">
        <ele>1105.6</ele>
        <time>2020-07-12T13:25:46Z</time>
      </trkpt>
      <trkpt lat="46.59067" lon="6.06415">
        <ele>1105.7</ele>
        <time>2020-07-12T13:25:50Z</time>
      </trkpt>
      <trkpt lat="46.59064" lon="6.06409">
        <ele>1106.2</ele>
        <time>2020-07-12T13:25:54Z</time>
      </trkpt>
      <trkpt lat="46.59061" lon="6.06404">
        <ele>1106.8</ele>
        <time>2020-07-12T13:25:58Z</time>
      </trkpt>
      <trkpt lat="46.59058" lon="6.06398">
        <ele>1107.1</ele>
        <time>2020-07-12T13:26:02Z</time>
      </trkpt>
      <trkpt lat="46.59055" lon="6.06391">
        <ele>1107.2</ele>
        <time>2020-07-12T13:26:06Z</time>
      </trkpt>
      <trkpt lat="46.59054" lon="6.06383">
        <ele>1107.3</ele>
        <time>2020-07-12T13:26:10Z</time>
      </trkpt>
      <trkpt lat="46.59054" lon="6.06375">
        <ele>1107.3</ele>
        <time>2020-07-12T13:26:14Z</time>
      </trkpt>
      <trkpt lat="46.59052" lon="6.06369">
        <ele>1107.2</ele>
        <time>2020-07-12T13:26:20Z</time>
      </trkpt>
      <trkpt lat="46.5905" lon="6.06363">
        <ele>1106.9</ele>
        <time>2020-07-12T13:26:26Z</time>
      </trkpt>
      <trkpt lat="46.59047" lon="6.06356">
        <ele>1106.4</ele>
        <time>2020-07-12T13:26:31Z</time>
      </trkpt>
      <trkpt lat="46.59045" lon="6.06349">
        <ele>1105.5</ele>
        <time>2020-07-12T13:26:37Z</time>
      </trkpt>
      <trkpt lat="46.59042" lon="6.06344">
        <ele>1104.2</ele>
        <time>2020-07-12T13:26:43Z</time>
      </trkpt>
      <trkpt lat="46.59038" lon="6.0634">
        <ele>1103.1</ele>
        <time>2020-07-12T13:26:48Z</time>
      </trkpt>
      <trkpt lat="46.59034" lon="6.06337">
        <ele>1102</ele>
        <time>2020-07-12T13:26:53Z</time>
      </trkpt>
      <trkpt lat="46.5903" lon="6.06333">
        <ele>1101</ele>
        <time>2020-07-12T13:26:58Z</time>
      </trkpt>
      <trkpt lat="46.59025" lon="6.06331">
        <ele>1099.6</ele>
        <time>2020-07-12T13:27:03Z</time>
      </trkpt>
      <trkpt lat="46.5902" lon="6.0633">
        <ele>1098.2</ele>
        <time>2020-07-12T13:27:08Z</time>
      </trkpt>
      <trkpt lat="46.59015" lon="6.06329">
        <ele>1096.5</ele>
        <time>2020-07-12T13:27:13Z</time>
      </trkpt>
      <trkpt lat="46.58996" lon="6.06323">
        <ele>1096.3</ele>
        <time>2020-07-12T13:27:22Z</time>
      </trkpt>
      <trkpt lat="46.58992" lon="6.06319">
        <ele>1097</ele>
        <time>2020-07-12T13:27:24Z</time>
      </trkpt>
      <trkpt lat="46.58987" lon="6.06317">
        <ele>1097.7</ele>
        <time>2020-07-12T13:27:26Z</time>
      </trkpt>
      <trkpt lat="46.58976" lon="6.06312">
        <ele>1103.4</ele>
        <time>2020-07-12T13:27:36Z</time>
      </trkpt>
      <trkpt lat="46.58971" lon="6.0631">
        <ele>1105.3</ele>
        <time>2020-07-12T13:27:41Z</time>
      </trkpt>
      <trkpt lat="46.58966" lon="6.06309">
        <ele>1107.8</ele>
        <time>2020-07-12T13:27:47Z</time>
      </trkpt>
      <trkpt lat="46.58961" lon="6.06308">
        <ele>1109.9</ele>
        <time>2020-07-12T13:27:52Z</time>
      </trkpt>
      <trkpt lat="46.58957" lon="6.06305">
        <ele>1111.6</ele>
        <time>2020-07-12T13:27:56Z</time>
      </trkpt>
      <trkpt lat="46.58942" lon="6.06307">
        <ele>1115</ele>
        <time>2020-07-12T13:28:07Z</time>
      </trkpt>
      <trkpt lat="46.58936" lon="6.0631">
        <ele>1115</ele>
        <time>2020-07-12T13:28:12Z</time>
      </trkpt>
      <trkpt lat="46.58931" lon="6.0631">
        <ele>1114.9</ele>
        <time>2020-07-12T13:28:17Z</time>
      </trkpt>
      <trkpt lat="46.58923" lon="6.06312">
        <ele>1114.8</ele>
        <time>2020-07-12T13:28:23Z</time>
      </trkpt>
      <trkpt lat="46.58917" lon="6.06313">
        <ele>1114.8</ele>
        <time>2020-07-12T13:28:25Z</time>
      </trkpt>
      <trkpt lat="46.58913" lon="6.06313">
        <ele>1114.7</ele>
        <time>2020-07-12T13:28:28Z</time>
      </trkpt>
      <trkpt lat="46.58908" lon="6.06312">
        <ele>1114.7</ele>
        <time>2020-07-12T13:28:32Z</time>
      </trkpt>
      <trkpt lat="46.58903" lon="6.06311">
        <ele>1114.7</ele>
        <time>2020-07-12T13:28:35Z</time>
      </trkpt>
      <trkpt lat="46.58899" lon="6.06309">
        <ele>1115.7</ele>
        <time>2020-07-12T13:28:41Z</time>
      </trkpt>
      <trkpt lat="46.58895" lon="6.06306">
        <ele>1117.6</ele>
        <time>2020-07-12T13:28:49Z</time>
      </trkpt>
      <trkpt lat="46.5889" lon="6.06303">
        <ele>1118.2</ele>
        <time>2020-07-12T13:28:53Z</time>
      </trkpt>
      <trkpt lat="46.58886" lon="6.063">
        <ele>1118.4</ele>
        <time>2020-07-12T13:28:57Z</time>
      </trkpt>
      <trkpt lat="46.58881" lon="6.06297">
        <ele>1118.5</ele>
        <time>2020-07-12T13:29:02Z</time>
      </trkpt>
      <trkpt lat="46.58876" lon="6.06295">
        <ele>1118.5</ele>
        <time>2020-07-12T13:29:06Z</time>
      </trkpt>
      <trkpt lat="46.58872" lon="6.06293">
        <ele>1118.6</ele>
        <time>2020-07-12T13:29:10Z</time>
      </trkpt>
      <trkpt lat="46.58867" lon="6.0629">
        <ele>1118.5</ele>
        <time>2020-07-12T13:29:16Z</time>
      </trkpt>
      <trkpt lat="46.58863" lon="6.06286">
        <ele>1118.9</ele>
        <time>2020-07-12T13:29:22Z</time>
      </trkpt>
      <trkpt lat="46.58859" lon="6.0628">
        <ele>1119.4</ele>
        <time>2020-07-12T13:29:26Z</time>
      </trkpt>
      <trkpt lat="46.58854" lon="6.06278">
        <ele>1119.8</ele>
        <time>2020-07-12T13:29:29Z</time>
      </trkpt>
      <trkpt lat="46.58849" lon="6.06277">
        <ele>1120.2</ele>
        <time>2020-07-12T13:29:32Z</time>
      </trkpt>
      <trkpt lat="46.58844" lon="6.06276">
        <ele>1120.9</ele>
        <time>2020-07-12T13:29:37Z</time>
      </trkpt>
      <trkpt lat="46.58839" lon="6.06272">
        <ele>1121.3</ele>
        <time>2020-07-12T13:29:41Z</time>
      </trkpt>
      <trkpt lat="46.58835" lon="6.0627">
        <ele>1121.3</ele>
        <time>2020-07-12T13:29:45Z</time>
      </trkpt>
      <trkpt lat="46.58831" lon="6.06267">
        <ele>1120.9</ele>
        <time>2020-07-12T13:29:49Z</time>
      </trkpt>
      <trkpt lat="46.58826" lon="6.06264">
        <ele>1120.1</ele>
        <time>2020-07-12T13:29:53Z</time>
      </trkpt>
      <trkpt lat="46.58821" lon="6.06263">
        <ele>1118.6</ele>
        <time>2020-07-12T13:29:59Z</time>
      </trkpt>
      <trkpt lat="46.58815" lon="6.06261">
        <ele>1117.3</ele>
        <time>2020-07-12T13:30:04Z</time>
      </trkpt>
      <trkpt lat="46.5881" lon="6.06257">
        <ele>1116.1</ele>
        <time>2020-07-12T13:30:08Z</time>
      </trkpt>
      <trkpt lat="46.58806" lon="6.06254">
        <ele>1115.1</ele>
        <time>2020-07-12T13:30:13Z</time>
      </trkpt>
      <trkpt lat="46.58801" lon="6.0625">
        <ele>1114.5</ele>
        <time>2020-07-12T13:30:17Z</time>
      </trkpt>
      <trkpt lat="46.58797" lon="6.06247">
        <ele>1114.1</ele>
        <time>2020-07-12T13:30:21Z</time>
      </trkpt>
      <trkpt lat="46.58793" lon="6.06243">
        <ele>1113.9</ele>
        <time>2020-07-12T13:30:24Z</time>
      </trkpt>
      <trkpt lat="46.58788" lon="6.0624">
        <ele>1113.6</ele>
        <time>2020-07-12T13:30:27Z</time>
      </trkpt>
      <trkpt lat="46.58784" lon="6.06237">
        <ele>1113.4</ele>
        <time>2020-07-12T13:30:30Z</time>
      </trkpt>
      <trkpt lat="46.58779" lon="6.06235">
        <ele>1113</ele>
        <time>2020-07-12T13:30:34Z</time>
      </trkpt>
      <trkpt lat="46.58774" lon="6.06232">
        <ele>1112.7</ele>
        <time>2020-07-12T13:30:38Z</time>
      </trkpt>
      <trkpt lat="46.5877" lon="6.06228">
        <ele>1112.2</ele>
        <time>2020-07-12T13:30:42Z</time>
      </trkpt>
      <trkpt lat="46.58766" lon="6.06223">
        <ele>1111.7</ele>
        <time>2020-07-12T13:30:47Z</time>
      </trkpt>
      <trkpt lat="46.58763" lon="6.06217">
        <ele>1111.5</ele>
        <time>2020-07-12T13:30:52Z</time>
      </trkpt>
      <trkpt lat="46.58761" lon="6.06211">
        <ele>1111.7</ele>
        <time>2020-07-12T13:30:56Z</time>
      </trkpt>
      <trkpt lat="46.58758" lon="6.06205">
        <ele>1111.9</ele>
        <time>2020-07-12T13:31:00Z</time>
      </trkpt>
      <trkpt lat="46.58754" lon="6.062">
        <ele>1112</ele>
        <time>2020-07-12T13:31:03Z</time>
      </trkpt>
      <trkpt lat="46.5875" lon="6.06195">
        <ele>1112</ele>
        <time>2020-07-12T13:31:06Z</time>
      </trkpt>
      <trkpt lat="46.58746" lon="6.06191">
        <ele>1111.8</ele>
        <time>2020-07-12T13:31:10Z</time>
      </trkpt>
      <trkpt lat="46.58743" lon="6.06184">
        <ele>1111.3</ele>
        <time>2020-07-12T13:31:14Z</time>
      </trkpt>
      <trkpt lat="46.58741" lon="6.06177">
        <ele>1110.4</ele>
        <time>2020-07-12T13:31:18Z</time>
      </trkpt>
      <trkpt lat="46.58738" lon="6.06172">
        <ele>1109.4</ele>
        <time>2020-07-12T13:31:22Z</time>
      </trkpt>
      <trkpt lat="46.58736" lon="6.06166">
        <ele>1107.4</ele>
        <time>2020-07-12T13:31:28Z</time>
      </trkpt>
      <trkpt lat="46.58733" lon="6.0616">
        <ele>1104.7</ele>
        <time>2020-07-12T13:31:35Z</time>
      </trkpt>
      <trkpt lat="46.58731" lon="6.06153">
        <ele>1102.2</ele>
        <time>2020-07-12T13:31:41Z</time>
      </trkpt>
      <trkpt lat="46.58727" lon="6.06147">
        <ele>1101</ele>
        <time>2020-07-12T13:31:44Z</time>
      </trkpt>
      <trkpt lat="46.58724" lon="6.0614">
        <ele>1099.9</ele>
        <time>2020-07-12T13:31:47Z</time>
      </trkpt>
      <trkpt lat="46.58721" lon="6.06134">
        <ele>1098.8</ele>
        <time>2020-07-12T13:31:50Z</time>
      </trkpt>
      <trkpt lat="46.58718" lon="6.06128">
        <ele>1097.9</ele>
        <time>2020-07-12T13:31:53Z</time>
      </trkpt>
      <trkpt lat="46.58716" lon="6.06121">
        <ele>1096.9</ele>
        <time>2020-07-12T13:31:57Z</time>
      </trkpt>
      <trkpt lat="46.58713" lon="6.06115">
        <ele>1096</ele>
        <time>2020-07-12T13:32:02Z</time>
      </trkpt>
      <trkpt lat="46.58709" lon="6.0611">
        <ele>1095.8</ele>
        <time>2020-07-12T13:32:06Z</time>
      </trkpt>
      <trkpt lat="46.58705" lon="6.06106">
        <ele>1095.4</ele>
        <time>2020-07-12T13:32:11Z</time>
      </trkpt>
      <trkpt lat="46.58701" lon="6.06101">
        <ele>1094.9</ele>
        <time>2020-07-12T13:32:16Z</time>
      </trkpt>
      <trkpt lat="46.58696" lon="6.06097">
        <ele>1094.7</ele>
        <time>2020-07-12T13:32:21Z</time>
      </trkpt>
      <trkpt lat="46.58692" lon="6.06096">
        <ele>1096.8</ele>
        <time>2020-07-12T13:33:08Z</time>
      </trkpt>
      <trkpt lat="46.58688" lon="6.06096">
        <ele>1096.5</ele>
        <time>2020-07-12T13:33:13Z</time>
      </trkpt>
      <trkpt lat="46.58682" lon="6.06095">
        <ele>1096.3</ele>
        <time>2020-07-12T13:33:16Z</time>
      </trkpt>
      <trkpt lat="46.58675" lon="6.06094">
        <ele>1096.3</ele>
        <time>2020-07-12T13:33:20Z</time>
      </trkpt>
      <trkpt lat="46.58668" lon="6.06093">
        <ele>1096.6</ele>
        <time>2020-07-12T13:33:23Z</time>
      </trkpt>
      <trkpt lat="46.58664" lon="6.06092">
        <ele>1097.2</ele>
        <time>2020-07-12T13:33:27Z</time>
      </trkpt>
      <trkpt lat="46.58659" lon="6.06092">
        <ele>1098</ele>
        <time>2020-07-12T13:33:31Z</time>
      </trkpt>
      <trkpt lat="46.58654" lon="6.0609">
        <ele>1099.8</ele>
        <time>2020-07-12T13:33:37Z</time>
      </trkpt>
      <trkpt lat="46.5865" lon="6.06086">
        <ele>1100.9</ele>
        <time>2020-07-12T13:33:43Z</time>
      </trkpt>
      <trkpt lat="46.58645" lon="6.06082">
        <ele>1101</ele>
        <time>2020-07-12T13:33:49Z</time>
      </trkpt>
      <trkpt lat="46.5864" lon="6.06082">
        <ele>1101.1</ele>
        <time>2020-07-12T13:33:53Z</time>
      </trkpt>
      <trkpt lat="46.58634" lon="6.06079">
        <ele>1101.3</ele>
        <time>2020-07-12T13:33:56Z</time>
      </trkpt>
      <trkpt lat="46.5863" lon="6.06078">
        <ele>1101.7</ele>
        <time>2020-07-12T13:33:59Z</time>
      </trkpt>
      <trkpt lat="46.58625" lon="6.06076">
        <ele>1102.5</ele>
        <time>2020-07-12T13:34:04Z</time>
      </trkpt>
      <trkpt lat="46.5862" lon="6.06074">
        <ele>1103.3</ele>
        <time>2020-07-12T13:34:08Z</time>
      </trkpt>
      <trkpt lat="46.58616" lon="6.0607">
        <ele>1103.8</ele>
        <time>2020-07-12T13:34:11Z</time>
      </trkpt>
      <trkpt lat="46.58612" lon="6.06076">
        <ele>1106.8</ele>
        <time>2020-07-12T13:34:25Z</time>
      </trkpt>
      <trkpt lat="46.58607" lon="6.06081">
        <ele>1106.8</ele>
        <time>2020-07-12T13:34:30Z</time>
      </trkpt>
      <trkpt lat="46.58603" lon="6.06085">
        <ele>1106.4</ele>
        <time>2020-07-12T13:34:34Z</time>
      </trkpt>
      <trkpt lat="46.58598" lon="6.06088">
        <ele>1106</ele>
        <time>2020-07-12T13:34:38Z</time>
      </trkpt>
      <trkpt lat="46.58593" lon="6.06092">
        <ele>1105.4</ele>
        <time>2020-07-12T13:34:43Z</time>
      </trkpt>
      <trkpt lat="46.58588" lon="6.06089">
        <ele>1104.9</ele>
        <time>2020-07-12T13:34:48Z</time>
      </trkpt>
      <trkpt lat="46.58585" lon="6.06085">
        <ele>1104.6</ele>
        <time>2020-07-12T13:34:51Z</time>
      </trkpt>
      <trkpt lat="46.5858" lon="6.0608">
        <ele>1104.3</ele>
        <time>2020-07-12T13:34:55Z</time>
      </trkpt>
      <trkpt lat="46.58577" lon="6.06075">
        <ele>1104</ele>
        <time>2020-07-12T13:34:59Z</time>
      </trkpt>
      <trkpt lat="46.58573" lon="6.06069">
        <ele>1104.1</ele>
        <time>2020-07-12T13:35:04Z</time>
      </trkpt>
    </trkseg>
  </trk>
</gpx>